Wetterdaten: Donnerstag, 27.10.2016
Datum Zeit Temp. A. Feuchte A. Luftdruck Regen Wind Richtung Richtung Sonnenschein ET UV Solar Taupunkt Windchill Windben Empfang
27.10.2016 00:00 9,2 C 96 % 1027,8 hPa 0,0 l/m 6,4 km/h (2 Bft) SW 232 0 min 0,000 mm 0,0 UV-I 0 W/m 8,6 C 9,2 C 8,0 km/h (2 Bft) 100,00 %
27.10.2016 00:01 9,2 C 96 % 1027,8 hPa 0,0 l/m 6,9 km/h (2 Bft) SW 236 0 min 0,000 mm 0,0 UV-I 0 W/m 8,6 C 8,8 C 8,0 km/h (2 Bft) 100,00 %
27.10.2016 00:02 9,3 C 96 % 1027,8 hPa 0,0 l/m 5,7 km/h (1 Bft) SW 229 0 min 0,000 mm 0,0 UV-I 0 W/m 8,7 C 9,3 C 8,0 km/h (2 Bft) 96,30 %
27.10.2016 00:03 9,3 C 96 % 1027,8 hPa 0,0 l/m 7,3 km/h (2 Bft) W-SW 240 0 min 0,000 mm 0,0 UV-I 0 W/m 8,7 C 8,6 C 9,7 km/h (2 Bft) 91,67 %
27.10.2016 00:04 9,2 C 96 % 1027,8 hPa 0,0 l/m 7,5 km/h (2 Bft) SW 223 0 min 0,000 mm 0,0 UV-I 0 W/m 8,6 C 8,4 C 11,3 km/h (2 Bft) 100,00 %
27.10.2016 00:05 9,3 C 96 % 1027,9 hPa 0,0 l/m 6,9 km/h (2 Bft) SW 230 0 min 0,000 mm 0,0 UV-I 0 W/m 8,7 C 8,9 C 9,7 km/h (2 Bft) 91,30 %
27.10.2016 00:06 9,3 C 96 % 1027,9 hPa 0,0 l/m 6,2 km/h (2 Bft) SW 231 0 min 0,000 mm 0,0 UV-I 0 W/m 8,7 C 9,3 C 8,0 km/h (2 Bft) 100,00 %
27.10.2016 00:07 9,3 C 96 % 1027,8 hPa 0,0 l/m 5,3 km/h (1 Bft) SW 230 0 min 0,000 mm 0,0 UV-I 0 W/m 8,7 C 9,3 C 6,4 km/h (2 Bft) 100,00 %
27.10.2016 00:08 9,3 C 96 % 1027,8 hPa 0,0 l/m 4,8 km/h (1 Bft) SW 229 0 min 0,000 mm 0,0 UV-I 0 W/m 8,7 C 9,3 C 6,4 km/h (2 Bft) 100,00 %
27.10.2016 00:09 9,3 C 96 % 1027,8 hPa 0,0 l/m 5,0 km/h (1 Bft) SW 229 0 min 0,000 mm 0,0 UV-I 0 W/m 8,7 C 9,3 C 8,0 km/h (2 Bft) 100,00 %
27.10.2016 00:10 9,3 C 96 % 1027,8 hPa 0,0 l/m 4,5 km/h (1 Bft) SW 228 0 min 0,000 mm 0,0 UV-I 0 W/m 8,7 C 9,3 C 6,4 km/h (2 Bft) 100,00 %
27.10.2016 00:11 9,3 C 96 % 1027,9 hPa 0,0 l/m 5,1 km/h (1 Bft) SW 225 0 min 0,000 mm 0,0 UV-I 0 W/m 8,7 C 9,3 C 6,4 km/h (2 Bft) 86,96 %
27.10.2016 00:12 9,3 C 96 % 1027,8 hPa 0,0 l/m 4,7 km/h (1 Bft) SW 224 0 min 0,000 mm 0,0 UV-I 0 W/m 8,7 C 9,3 C 6,4 km/h (2 Bft) 100,00 %
27.10.2016 00:13 9,3 C 96 % 1027,8 hPa 0,0 l/m 4,8 km/h (1 Bft) SW 233 0 min 0,000 mm 0,0 UV-I 0 W/m 8,7 C 9,3 C 6,4 km/h (2 Bft) 100,00 %
27.10.2016 00:14 9,3 C 96 % 1027,8 hPa 0,0 l/m 5,5 km/h (1 Bft) W-SW 238 0 min 0,000 mm 0,0 UV-I 0 W/m 8,7 C 9,3 C 6,4 km/h (2 Bft) 100,00 %
27.10.2016 00:15 9,3 C 96 % 1027,8 hPa 0,0 l/m 5,3 km/h (1 Bft) SW 227 0 min 0,000 mm 0,0 UV-I 0 W/m 8,7 C 9,3 C 6,4 km/h (2 Bft) 100,00 %
27.10.2016 00:16 9,3 C 96 % 1027,8 hPa 0,0 l/m 4,5 km/h (1 Bft) SW 227 0 min 0,000 mm 0,0 UV-I 0 W/m 8,7 C 9,3 C 6,4 km/h (2 Bft) 100,00 %
27.10.2016 00:17 9,3 C 96 % 1027,8 hPa 0,0 l/m 5,8 km/h (2 Bft) SW 228 0 min 0,000 mm 0,0 UV-I 0 W/m 8,7 C 9,3 C 8,0 km/h (2 Bft) 95,65 %
27.10.2016 00:18 9,3 C 96 % 1027,8 hPa 0,0 l/m 5,5 km/h (1 Bft) SW 227 0 min 0,000 mm 0,0 UV-I 0 W/m 8,7 C 9,3 C 6,4 km/h (2 Bft) 100,00 %
27.10.2016 00:19 9,3 C 96 % 1027,8 hPa 0,0 l/m 5,2 km/h (1 Bft) SW 236 0 min 0,000 mm 0,0 UV-I 0 W/m 8,7 C 9,3 C 6,4 km/h (2 Bft) 100,00 %
27.10.2016 00:20 9,3 C 96 % 1027,8 hPa 0,0 l/m 5,0 km/h (1 Bft) SW 231 0 min 0,000 mm 0,0 UV-I 0 W/m 8,7 C 9,3 C 6,4 km/h (2 Bft) 100,00 %
27.10.2016 00:21 9,3 C 96 % 1027,8 hPa 0,0 l/m 4,4 km/h (1 Bft) SW 232 0 min 0,000 mm 0,0 UV-I 0 W/m 8,7 C 9,3 C 8,0 km/h (2 Bft) 100,00 %
27.10.2016 00:22 9,3 C 96 % 1027,8 hPa 0,0 l/m 5,2 km/h (1 Bft) S 180 0 min 0,000 mm 0,0 UV-I 0 W/m 8,7 C 9,3 C 8,0 km/h (2 Bft) 100,00 %
27.10.2016 00:23 9,3 C 96 % 1027,8 hPa 0,0 l/m 4,1 km/h (1 Bft) W-SW 243 0 min 0,000 mm 0,0 UV-I 0 W/m 8,7 C 9,3 C 6,4 km/h (2 Bft) 100,00 %
27.10.2016 00:24 9,3 C 96 % 1027,8 hPa 0,0 l/m 6,1 km/h (2 Bft) SW 236 0 min 0,000 mm 0,0 UV-I 0 W/m 8,7 C 9,3 C 6,4 km/h (2 Bft) 95,65 %
27.10.2016 00:25 9,3 C 96 % 1027,8 hPa 0,0 l/m 6,9 km/h (2 Bft) SW 229 0 min 0,000 mm 0,0 UV-I 0 W/m 8,7 C 8,9 C 9,7 km/h (2 Bft) 100,00 %
27.10.2016 00:26 9,3 C 96 % 1027,8 hPa 0,0 l/m 6,1 km/h (2 Bft) SW 235 0 min 0,000 mm 0,0 UV-I 0 W/m 8,7 C 9,3 C 8,0 km/h (2 Bft) 100,00 %
27.10.2016 00:27 9,3 C 96 % 1027,8 hPa 0,0 l/m 4,0 km/h (1 Bft) SW 235 0 min 0,000 mm 0,0 UV-I 0 W/m 8,7 C 9,3 C 4,8 km/h (1 Bft) 100,00 %
27.10.2016 00:28 9,3 C 96 % 1027,8 hPa 0,0 l/m 6,4 km/h (2 Bft) SW 232 0 min 0,000 mm 0,0 UV-I 0 W/m 8,7 C 9,3 C 9,7 km/h (2 Bft) 100,00 %
27.10.2016 00:29 9,3 C 96 % 1027,8 hPa 0,0 l/m 6,3 km/h (2 Bft) SW 223 0 min 0,000 mm 0,0 UV-I 0 W/m 8,7 C 9,3 C 8,0 km/h (2 Bft) 100,00 %
27.10.2016 00:30 9,3 C 96 % 1027,8 hPa 0,0 l/m 5,2 km/h (1 Bft) SW 228 0 min 0,000 mm 0,0 UV-I 0 W/m 8,7 C 9,3 C 8,0 km/h (2 Bft) 100,00 %
27.10.2016 00:31 9,3 C 96 % 1027,8 hPa 0,0 l/m 6,0 km/h (2 Bft) SW 231 0 min 0,000 mm 0,0 UV-I 0 W/m 8,7 C 9,3 C 8,0 km/h (2 Bft) 100,00 %
27.10.2016 00:32 9,3 C 96 % 1027,8 hPa 0,0 l/m 6,8 km/h (2 Bft) SW 225 0 min 0,000 mm 0,0 UV-I 0 W/m 8,7 C 9,0 C 9,7 km/h (2 Bft) 100,00 %
27.10.2016 00:33 9,3 C 96 % 1027,8 hPa 0,0 l/m 6,6 km/h (2 Bft) W-SW 242 0 min 0,000 mm 0,0 UV-I 0 W/m 8,7 C 9,2 C 8,0 km/h (2 Bft) 100,00 %
27.10.2016 00:34 9,3 C 96 % 1027,8 hPa 0,0 l/m 6,6 km/h (2 Bft) W-SW 242 0 min 0,000 mm 0,0 UV-I 0 W/m 8,7 C 9,2 C 9,7 km/h (2 Bft) 100,00 %
27.10.2016 00:35 9,3 C 96 % 1027,8 hPa 0,0 l/m 6,8 km/h (2 Bft) SW 224 0 min 0,000 mm 0,0 UV-I 0 W/m 8,7 C 9,0 C 8,0 km/h (2 Bft) 100,00 %
27.10.2016 00:36 9,3 C 96 % 1027,8 hPa 0,0 l/m 6,2 km/h (2 Bft) W-SW 250 0 min 0,000 mm 0,0 UV-I 0 W/m 8,7 C 9,3 C 8,0 km/h (2 Bft) 100,00 %
27.10.2016 00:37 9,3 C 96 % 1027,8 hPa 0,0 l/m 6,4 km/h (2 Bft) SW 231 0 min 0,000 mm 0,0 UV-I 0 W/m 8,7 C 9,3 C 9,7 km/h (2 Bft) 100,00 %
27.10.2016 00:38 9,3 C 96 % 1027,8 hPa 0,0 l/m 4,5 km/h (1 Bft) W-SW 239 0 min 0,000 mm 0,0 UV-I 0 W/m 8,7 C 9,3 C 6,4 km/h (2 Bft) 100,00 %
27.10.2016 00:39 9,3 C 96 % 1027,8 hPa 0,0 l/m 2,9 km/h (1 Bft) SW 230 0 min 0,000 mm 0,0 UV-I 0 W/m 8,7 C 9,3 C 4,8 km/h (1 Bft) 100,00 %
27.10.2016 00:40 9,3 C 96 % 1027,8 hPa 0,0 l/m 4,1 km/h (1 Bft) SW 229 0 min 0,000 mm 0,0 UV-I 0 W/m 8,7 C 9,3 C 6,4 km/h (2 Bft) 100,00 %
27.10.2016 00:41 9,3 C 96 % 1027,8 hPa 0,0 l/m 5,1 km/h (1 Bft) S-SW 208 0 min 0,000 mm 0,0 UV-I 0 W/m 8,7 C 9,3 C 6,4 km/h (2 Bft) 100,00 %
27.10.2016 00:42 9,3 C 96 % 1027,7 hPa 0,0 l/m 5,3 km/h (1 Bft) S-SW 209 0 min 0,000 mm 0,0 UV-I 0 W/m 8,7 C 9,3 C 8,0 km/h (2 Bft) 100,00 %
27.10.2016 00:43 9,3 C 96 % 1027,7 hPa 0,0 l/m 5,0 km/h (1 Bft) SW 229 0 min 0,000 mm 0,0 UV-I 0 W/m 8,7 C 9,3 C 8,0 km/h (2 Bft) 100,00 %
27.10.2016 00:44 9,3 C 96 % 1027,7 hPa 0,0 l/m 5,4 km/h (1 Bft) SW 221 0 min 0,000 mm 0,0 UV-I 0 W/m 8,7 C 9,3 C 8,0 km/h (2 Bft) 100,00 %
27.10.2016 00:45 9,3 C 96 % 1027,7 hPa 0,0 l/m 5,0 km/h (1 Bft) SW 221 0 min 0,000 mm 0,0 UV-I 0 W/m 8,7 C 9,3 C 6,4 km/h (2 Bft) 100,00 %
27.10.2016 00:46 9,3 C 96 % 1027,7 hPa 0,0 l/m 4,8 km/h (1 Bft) SW 229 0 min 0,000 mm 0,0 UV-I 0 W/m 8,7 C 9,3 C 6,4 km/h (2 Bft) 100,00 %
27.10.2016 00:47 9,3 C 96 % 1027,7 hPa 0,0 l/m 4,4 km/h (1 Bft) SW 236 0 min 0,000 mm 0,0 UV-I 0 W/m 8,7 C 9,3 C 6,4 km/h (2 Bft) 100,00 %
27.10.2016 00:48 9,3 C 96 % 1027,8 hPa 0,0 l/m 4,5 km/h (1 Bft) SW 229 0 min 0,000 mm 0,0 UV-I 0 W/m 8,7 C 9,3 C 6,4 km/h (2 Bft) 100,00 %
27.10.2016 00:49 9,3 C 96 % 1027,7 hPa 0,0 l/m 5,4 km/h (1 Bft) SW 226 0 min 0,000 mm 0,0 UV-I 0 W/m 8,7 C 9,3 C 8,0 km/h (2 Bft) 100,00 %
27.10.2016 00:50 9,2 C 96 % 1027,8 hPa 0,0 l/m 4,2 km/h (1 Bft) SW 227 0 min 0,000 mm 0,0 UV-I 0 W/m 8,6 C 9,2 C 6,4 km/h (2 Bft) 100,00 %
27.10.2016 00:51 9,2 C 96 % 1027,8 hPa 0,0 l/m 6,4 km/h (2 Bft) W-SW 242 0 min 0,000 mm 0,0 UV-I 0 W/m 8,6 C 9,2 C 8,0 km/h (2 Bft) 100,00 %
27.10.2016 00:52 9,2 C 96 % 1027,8 hPa 0,0 l/m 5,6 km/h (1 Bft) SW 229 0 min 0,000 mm 0,0 UV-I 0 W/m 8,6 C 9,2 C 8,0 km/h (2 Bft) 100,00 %
27.10.2016 00:53 9,2 C 96 % 1027,8 hPa 0,0 l/m 5,6 km/h (1 Bft) W-SW 244 0 min 0,000 mm 0,0 UV-I 0 W/m 8,6 C 9,2 C 6,4 km/h (2 Bft) 100,00 %
27.10.2016 00:54 9,2 C 96 % 1027,8 hPa 0,0 l/m 5,0 km/h (1 Bft) SW 235 0 min 0,000 mm 0,0 UV-I 0 W/m 8,6 C 9,2 C 6,4 km/h (2 Bft) 100,00 %
27.10.2016 00:55 9,2 C 96 % 1027,9 hPa 0,0 l/m 6,3 km/h (2 Bft) SW 221 0 min 0,000 mm 0,0 UV-I 0 W/m 8,6 C 9,2 C 8,0 km/h (2 Bft) 100,00 %
27.10.2016 00:56 9,2 C 96 % 1027,9 hPa 0,0 l/m 6,0 km/h (2 Bft) SW 234 0 min 0,000 mm 0,0 UV-I 0 W/m 8,6 C 9,2 C 8,0 km/h (2 Bft) 100,00 %
27.10.2016 00:57 9,2 C 96 % 1027,8 hPa 0,0 l/m 4,4 km/h (1 Bft) SW 231 0 min 0,000 mm 0,0 UV-I 0 W/m 8,6 C 9,2 C 6,4 km/h (2 Bft) 100,00 %
27.10.2016 00:58 9,2 C 96 % 1027,8 hPa 0,0 l/m 4,8 km/h (1 Bft) SW 235 0 min 0,000 mm 0,0 UV-I 0 W/m 8,6 C 9,2 C 6,4 km/h (2 Bft) 100,00 %
27.10.2016 00:59 9,2 C 96 % 1027,8 hPa 0,0 l/m 5,2 km/h (1 Bft) SW 236 0 min 0,000 mm 0,0 UV-I 0 W/m 8,6 C 9,2 C 8,0 km/h (2 Bft) 100,00 %
27.10.2016 01:00 9,2 C 96 % 1027,8 hPa 0,0 l/m 4,0 km/h (1 Bft) SW 230 0 min 0,000 mm 0,0 UV-I 0 W/m 8,6 C 9,2 C 6,4 km/h (2 Bft) 100,00 %
27.10.2016 01:01 9,2 C 96 % 1027,8 hPa 0,0 l/m 4,7 km/h (1 Bft) W-SW 244 0 min 0,000 mm 0,0 UV-I 0 W/m 8,6 C 9,2 C 8,0 km/h (2 Bft) 100,00 %
27.10.2016 01:02 9,2 C 96 % 1027,8 hPa 0,0 l/m 5,6 km/h (1 Bft) SW 236 0 min 0,000 mm 0,0 UV-I 0 W/m 8,6 C 9,2 C 8,0 km/h (2 Bft) 91,67 %
27.10.2016 01:03 9,2 C 96 % 1027,8 hPa 0,0 l/m 7,2 km/h (2 Bft) SW 236 0 min 0,000 mm 0,0 UV-I 0 W/m 8,6 C 8,6 C 9,7 km/h (2 Bft) 95,65 %
27.10.2016 01:04 9,2 C 96 % 1027,8 hPa 0,0 l/m 5,0 km/h (1 Bft) SW 235 0 min 0,000 mm 0,0 UV-I 0 W/m 8,6 C 9,2 C 8,0 km/h (2 Bft) 100,00 %
27.10.2016 01:05 9,1 C 96 % 1027,8 hPa 0,0 l/m 5,4 km/h (1 Bft) SW 227 0 min 0,000 mm 0,0 UV-I 0 W/m 8,5 C 9,1 C 8,0 km/h (2 Bft) 100,00 %
27.10.2016 01:06 9,1 C 96 % 1027,9 hPa 0,0 l/m 6,2 km/h (2 Bft) SW 225 0 min 0,000 mm 0,0 UV-I 0 W/m 8,5 C 9,1 C 8,0 km/h (2 Bft) 95,65 %
27.10.2016 01:07 9,1 C 96 % 1028,0 hPa 0,0 l/m 6,1 km/h (2 Bft) SW 225 0 min 0,000 mm 0,0 UV-I 0 W/m 8,5 C 9,1 C 8,0 km/h (2 Bft) 100,00 %
27.10.2016 01:08 9,1 C 96 % 1028,0 hPa 0,0 l/m 5,4 km/h (1 Bft) SW 226 0 min 0,000 mm 0,0 UV-I 0 W/m 8,5 C 9,1 C 8,0 km/h (2 Bft) 100,00 %
27.10.2016 01:09 9,1 C 96 % 1028,0 hPa 0,0 l/m 5,8 km/h (2 Bft) SW 229 0 min 0,000 mm 0,0 UV-I 0 W/m 8,5 C 9,1 C 8,0 km/h (2 Bft) 100,00 %
27.10.2016 01:10 9,1 C 96 % 1028,0 hPa 0,0 l/m 4,0 km/h (1 Bft) SW 229 0 min 0,000 mm 0,0 UV-I 0 W/m 8,5 C 9,1 C 4,8 km/h (1 Bft) 95,65 %
27.10.2016 01:11 9,1 C 96 % 1028,0 hPa 0,0 l/m 4,2 km/h (1 Bft) SW 223 0 min 0,000 mm 0,0 UV-I 0 W/m 8,5 C 9,1 C 6,4 km/h (2 Bft) 100,00 %
27.10.2016 01:12 9,1 C 96 % 1028,0 hPa 0,0 l/m 4,7 km/h (1 Bft) SW 225 0 min 0,000 mm 0,0 UV-I 0 W/m 8,5 C 9,1 C 6,4 km/h (2 Bft) 100,00 %
27.10.2016 01:13 9,1 C 96 % 1028,0 hPa 0,0 l/m 4,2 km/h (1 Bft) SW 232 0 min 0,000 mm 0,0 UV-I 0 W/m 8,5 C 9,1 C 4,8 km/h (1 Bft) 100,00 %
27.10.2016 01:14 9,1 C 96 % 1028,0 hPa 0,0 l/m 5,6 km/h (1 Bft) W-SW 255 0 min 0,000 mm 0,0 UV-I 0 W/m 8,5 C 9,1 C 8,0 km/h (2 Bft) 95,65 %
27.10.2016 01:15 9,1 C 96 % 1028,1 hPa 0,0 l/m 4,6 km/h (1 Bft) W-SW 243 0 min 0,000 mm 0,0 UV-I 0 W/m 8,5 C 9,1 C 6,4 km/h (2 Bft) 100,00 %
27.10.2016 01:16 9,1 C 96 % 1028,1 hPa 0,0 l/m 4,0 km/h (1 Bft) W-SW 245 0 min 0,000 mm 0,0 UV-I 0 W/m 8,5 C 9,1 C 4,8 km/h (1 Bft) 100,00 %
27.10.2016 01:17 9,1 C 96 % 1028,1 hPa 0,0 l/m 3,9 km/h (1 Bft) W 261 0 min 0,000 mm 0,0 UV-I 0 W/m 8,5 C 9,1 C 4,8 km/h (1 Bft) 100,00 %
27.10.2016 01:18 9,2 C 96 % 1028,0 hPa 0,0 l/m 3,8 km/h (1 Bft) W-SW 240 0 min 0,000 mm 0,0 UV-I 0 W/m 8,6 C 9,2 C 4,8 km/h (1 Bft) 95,65 %
27.10.2016 01:19 9,2 C 96 % 1028,0 hPa 0,0 l/m 3,7 km/h (1 Bft) SW 231 0 min 0,000 mm 0,0 UV-I 0 W/m 8,6 C 9,2 C 4,8 km/h (1 Bft) 100,00 %
27.10.2016 01:20 9,2 C 96 % 1028,0 hPa 0,0 l/m 3,4 km/h (1 Bft) SW 231 0 min 0,000 mm 0,0 UV-I 0 W/m 8,6 C 9,2 C 4,8 km/h (1 Bft) 91,67 %
27.10.2016 01:21 9,2 C 96 % 1028,0 hPa 0,0 l/m 3,5 km/h (1 Bft) SW 231 0 min 0,000 mm 0,0 UV-I 0 W/m 8,6 C 9,2 C 4,8 km/h (1 Bft) 95,65 %
27.10.2016 01:22 9,2 C 96 % 1028,0 hPa 0,0 l/m 3,8 km/h (1 Bft) SW 231 0 min 0,000 mm 0,0 UV-I 0 W/m 8,6 C 9,2 C 6,4 km/h (2 Bft) 100,00 %
27.10.2016 01:23 9,2 C 96 % 1028,0 hPa 0,0 l/m 3,3 km/h (1 Bft) SW 231 0 min 0,000 mm 0,0 UV-I 0 W/m 8,6 C 9,2 C 4,8 km/h (1 Bft) 91,30 %
27.10.2016 01:24 9,2 C 96 % 1028,0 hPa 0,0 l/m 1,5 km/h (1 Bft) SW 231 0 min 0,000 mm 0,0 UV-I 0 W/m 8,6 C 9,2 C 4,8 km/h (1 Bft) 100,00 %
27.10.2016 01:25 9,2 C 96 % 1028,0 hPa 0,0 l/m 1,2 km/h (1 Bft) SW 231 0 min 0,000 mm 0,0 UV-I 0 W/m 8,6 C 9,2 C 3,2 km/h (1 Bft) 95,65 %
27.10.2016 01:26 9,2 C 96 % 1027,9 hPa 0,0 l/m 0,0 km/h (0 Bft) SW 231 0 min 0,000 mm 0,0 UV-I 0 W/m 8,6 C 9,2 C 0,0 km/h (0 Bft) 100,00 %
27.10.2016 01:27 9,1 C 96 % 1028,0 hPa 0,0 l/m 0,9 km/h (0 Bft) SW 231 0 min 0,000 mm 0,0 UV-I 0 W/m 8,5 C 9,1 C 3,2 km/h (1 Bft) 86,96 %
27.10.2016 01:28 9,1 C 96 % 1028,0 hPa 0,0 l/m 0,9 km/h (0 Bft) SW 231 0 min 0,000 mm 0,0 UV-I 0 W/m 8,5 C 9,1 C 3,2 km/h (1 Bft) 95,83 %
27.10.2016 01:29 9,1 C 96 % 1028,0 hPa 0,0 l/m 2,6 km/h (1 Bft) SW 231 0 min 0,000 mm 0,0 UV-I 0 W/m 8,5 C 9,1 C 3,2 km/h (1 Bft) 100,00 %
27.10.2016 01:30 9,1 C 96 % 1028,0 hPa 0,0 l/m 2,8 km/h (1 Bft) SW 231 0 min 0,000 mm 0,0 UV-I 0 W/m 8,5 C 9,1 C 4,8 km/h (1 Bft) 95,83 %
27.10.2016 01:31 9,1 C 96 % 1028,1 hPa 0,0 l/m 4,0 km/h (1 Bft) SW 231 0 min 0,000 mm 0,0 UV-I 0 W/m 8,5 C 9,1 C 4,8 km/h (1 Bft) 100,00 %
27.10.2016 01:32 9,1 C 96 % 1028,1 hPa 0,0 l/m 5,8 km/h (2 Bft) SW 231 0 min 0,000 mm 0,0 UV-I 0 W/m 8,5 C 9,1 C 8,0 km/h (2 Bft) 95,83 %
27.10.2016 01:33 9,1 C 96 % 1028,1 hPa 0,0 l/m 6,3 km/h (2 Bft) SW 228 0 min 0,000 mm 0,0 UV-I 0 W/m 8,5 C 9,1 C 8,0 km/h (2 Bft) 95,65 %
27.10.2016 01:34 9,1 C 96 % 1028,1 hPa 0,0 l/m 5,6 km/h (1 Bft) SW 223 0 min 0,000 mm 0,0 UV-I 0 W/m 8,5 C 9,1 C 9,7 km/h (2 Bft) 95,83 %
27.10.2016 01:35 9,1 C 96 % 1028,1 hPa 0,0 l/m 5,7 km/h (1 Bft) SW 234 0 min 0,000 mm 0,0 UV-I 0 W/m 8,5 C 9,1 C 6,4 km/h (2 Bft) 95,65 %
27.10.2016 01:36 9,1 C 96 % 1028,1 hPa 0,0 l/m 5,6 km/h (1 Bft) W-SW 244 0 min 0,000 mm 0,0 UV-I 0 W/m 8,5 C 9,1 C 8,0 km/h (2 Bft) 100,00 %
27.10.2016 01:37 9,1 C 96 % 1028,1 hPa 0,0 l/m 6,6 km/h (2 Bft) W-SW 255 0 min 0,000 mm 0,0 UV-I 0 W/m 8,5 C 9,0 C 8,0 km/h (2 Bft) 95,65 %
27.10.2016 01:38 9,2 C 96 % 1028,1 hPa 0,0 l/m 5,7 km/h (1 Bft) SW 236 0 min 0,000 mm 0,0 UV-I 0 W/m 8,6 C 9,2 C 8,0 km/h (2 Bft) 100,00 %
27.10.2016 01:39 9,2 C 96 % 1028,1 hPa 0,0 l/m 5,9 km/h (2 Bft) SW 236 0 min 0,000 mm 0,0 UV-I 0 W/m 8,6 C 9,2 C 8,0 km/h (2 Bft) 95,65 %
27.10.2016 01:40 9,2 C 96 % 1028,1 hPa 0,0 l/m 6,1 km/h (2 Bft) W-SW 244 0 min 0,000 mm 0,0 UV-I 0 W/m 8,6 C 9,2 C 8,0 km/h (2 Bft) 100,00 %
27.10.2016 01:41 9,2 C 96 % 1028,1 hPa 0,0 l/m 8,6 km/h (2 Bft) SW 231 0 min 0,000 mm 0,0 UV-I 0 W/m 8,6 C 7,6 C 11,3 km/h (2 Bft) 95,83 %
27.10.2016 01:42 9,2 C 96 % 1028,1 hPa 0,0 l/m 6,5 km/h (2 Bft) SW 226 0 min 0,000 mm 0,0 UV-I 0 W/m 8,6 C 9,2 C 9,7 km/h (2 Bft) 96,15 %
27.10.2016 01:43 9,2 C 96 % 1028,1 hPa 0,0 l/m 7,4 km/h (2 Bft) SW 217 0 min 0,000 mm 0,0 UV-I 0 W/m 8,6 C 8,4 C 9,7 km/h (2 Bft) 91,67 %
27.10.2016 01:44 9,2 C 96 % 1028,1 hPa 0,0 l/m 9,3 km/h (2 Bft) W-SW 239 0 min 0,000 mm 0,0 UV-I 0 W/m 8,6 C 7,1 C 12,9 km/h (3 Bft) 100,00 %
27.10.2016 01:45 9,2 C 96 % 1028,1 hPa 0,0 l/m 6,8 km/h (2 Bft) W-SW 242 0 min 0,000 mm 0,0 UV-I 0 W/m 8,6 C 8,9 C 11,3 km/h (2 Bft) 95,83 %
27.10.2016 01:46 9,3 C 96 % 1028,1 hPa 0,0 l/m 7,9 km/h (2 Bft) W-SW 238 0 min 0,000 mm 0,0 UV-I 0 W/m 8,7 C 8,2 C 12,9 km/h (3 Bft) 95,65 %
27.10.2016 01:47 9,3 C 96 % 1028,1 hPa 0,0 l/m 8,1 km/h (2 Bft) SW 230 0 min 0,000 mm 0,0 UV-I 0 W/m 8,7 C 8,0 C 9,7 km/h (2 Bft) 100,00 %
27.10.2016 01:48 9,3 C 96 % 1028,1 hPa 0,0 l/m 8,0 km/h (2 Bft) SW 236 0 min 0,000 mm 0,0 UV-I 0 W/m 8,7 C 8,1 C 9,7 km/h (2 Bft) 91,30 %
27.10.2016 01:49 9,3 C 96 % 1028,1 hPa 0,0 l/m 7,4 km/h (2 Bft) SW 234 0 min 0,000 mm 0,0 UV-I 0 W/m 8,7 C 8,6 C 9,7 km/h (2 Bft) 100,00 %
27.10.2016 01:50 9,3 C 96 % 1028,1 hPa 0,0 l/m 6,8 km/h (2 Bft) SW 223 0 min 0,000 mm 0,0 UV-I 0 W/m 8,7 C 9,0 C 8,0 km/h (2 Bft) 96,15 %
27.10.2016 01:51 9,3 C 96 % 1028,2 hPa 0,0 l/m 6,1 km/h (2 Bft) SW 224 0 min 0,000 mm 0,0 UV-I 0 W/m 8,7 C 9,3 C 8,0 km/h (2 Bft) 100,00 %
27.10.2016 01:52 9,3 C 96 % 1028,2 hPa 0,0 l/m 5,6 km/h (1 Bft) SW 233 0 min 0,000 mm 0,0 UV-I 0 W/m 8,7 C 9,3 C 8,0 km/h (2 Bft) 100,00 %
27.10.2016 01:53 9,3 C 96 % 1028,1 hPa 0,0 l/m 3,9 km/h (1 Bft) W-SW 250 0 min 0,000 mm 0,0 UV-I 0 W/m 8,7 C 9,3 C 4,8 km/h (1 Bft) 91,67 %
27.10.2016 01:54 9,3 C 96 % 1028,1 hPa 0,0 l/m 4,9 km/h (1 Bft) W-SW 243 0 min 0,000 mm 0,0 UV-I 0 W/m 8,7 C 9,3 C 6,4 km/h (2 Bft) 100,00 %
27.10.2016 01:55 9,3 C 96 % 1028,1 hPa 0,0 l/m 4,4 km/h (1 Bft) W-SW 256 0 min 0,000 mm 0,0 UV-I 0 W/m 8,7 C 9,3 C 6,4 km/h (2 Bft) 100,00 %
27.10.2016 01:56 9,3 C 96 % 1028,1 hPa 0,0 l/m 3,7 km/h (1 Bft) W-SW 256 0 min 0,000 mm 0,0 UV-I 0 W/m 8,7 C 9,3 C 6,4 km/h (2 Bft) 100,00 %
27.10.2016 01:57 9,3 C 96 % 1028,1 hPa 0,0 l/m 4,9 km/h (1 Bft) W-SW 254 0 min 0,000 mm 0,0 UV-I 0 W/m 8,7 C 9,3 C 6,4 km/h (2 Bft) 100,00 %
27.10.2016 01:58 9,3 C 96 % 1028,2 hPa 0,0 l/m 3,4 km/h (1 Bft) W-SW 254 0 min 0,000 mm 0,0 UV-I 0 W/m 8,7 C 9,3 C 4,8 km/h (1 Bft) 100,00 %
27.10.2016 01:59 9,3 C 96 % 1028,2 hPa 0,0 l/m 4,6 km/h (1 Bft) W 269 0 min 0,000 mm 0,0 UV-I 0 W/m 8,7 C 9,3 C 6,4 km/h (2 Bft) 100,00 %
27.10.2016 02:00 9,3 C 96 % 1028,2 hPa 0,0 l/m 4,2 km/h (1 Bft) W 260 0 min 0,000 mm 0,0 UV-I 0 W/m 8,7 C 9,3 C 6,4 km/h (2 Bft) 100,00 %
27.10.2016 02:01 9,3 C 96 % 1028,2 hPa 0,0 l/m 5,3 km/h (1 Bft) W-SW 251 0 min 0,000 mm 0,0 UV-I 0 W/m 8,7 C 9,3 C 6,4 km/h (2 Bft) 100,00 %
27.10.2016 02:02 9,4 C 96 % 1028,2 hPa 0,0 l/m 4,5 km/h (1 Bft) W-SW 252 0 min 0,000 mm 0,0 UV-I 0 W/m 8,8 C 9,4 C 4,8 km/h (1 Bft) 95,83 %
27.10.2016 02:03 9,4 C 96 % 1028,2 hPa 0,0 l/m 4,8 km/h (1 Bft) W-SW 256 0 min 0,000 mm 0,0 UV-I 0 W/m 8,8 C 9,4 C 6,4 km/h (2 Bft) 86,96 %
27.10.2016 02:04 9,4 C 96 % 1028,2 hPa 0,0 l/m 4,4 km/h (1 Bft) W-SW 248 0 min 0,000 mm 0,0 UV-I 0 W/m 8,8 C 9,4 C 6,4 km/h (2 Bft) 100,00 %
27.10.2016 02:05 9,4 C 96 % 1028,2 hPa 0,0 l/m 4,2 km/h (1 Bft) W-SW 246 0 min 0,000 mm 0,0 UV-I 0 W/m 8,8 C 9,4 C 6,4 km/h (2 Bft) 100,00 %
27.10.2016 02:06 9,4 C 96 % 1028,2 hPa 0,0 l/m 4,3 km/h (1 Bft) W-SW 250 0 min 0,000 mm 0,0 UV-I 0 W/m 8,8 C 9,4 C 4,8 km/h (1 Bft) 100,00 %
27.10.2016 02:07 9,4 C 96 % 1028,2 hPa 0,0 l/m 5,8 km/h (2 Bft) W-SW 256 0 min 0,000 mm 0,0 UV-I 0 W/m 8,8 C 9,4 C 6,4 km/h (2 Bft) 100,00 %
27.10.2016 02:08 9,4 C 96 % 1028,3 hPa 0,0 l/m 5,6 km/h (1 Bft) W-SW 254 0 min 0,000 mm 0,0 UV-I 0 W/m 8,8 C 9,4 C 9,7 km/h (2 Bft) 100,00 %
27.10.2016 02:09 9,4 C 96 % 1028,3 hPa 0,0 l/m 6,8 km/h (2 Bft) W-SW 242 0 min 0,000 mm 0,0 UV-I 0 W/m 8,8 C 9,1 C 11,3 km/h (2 Bft) 100,00 %
27.10.2016 02:10 9,4 C 96 % 1028,3 hPa 0,0 l/m 6,2 km/h (2 Bft) W-SW 254 0 min 0,000 mm 0,0 UV-I 0 W/m 8,8 C 9,4 C 8,0 km/h (2 Bft) 100,00 %
27.10.2016 02:11 9,4 C 96 % 1028,4 hPa 0,0 l/m 3,8 km/h (1 Bft) W-SW 254 0 min 0,000 mm 0,0 UV-I 0 W/m 8,8 C 9,4 C 4,8 km/h (1 Bft) 100,00 %
27.10.2016 02:12 9,4 C 96 % 1028,4 hPa 0,0 l/m 5,2 km/h (1 Bft) W-SW 254 0 min 0,000 mm 0,0 UV-I 0 W/m 8,8 C 9,4 C 6,4 km/h (2 Bft) 100,00 %
27.10.2016 02:13 9,4 C 96 % 1028,4 hPa 0,0 l/m 4,7 km/h (1 Bft) SW 234 0 min 0,000 mm 0,0 UV-I 0 W/m 8,8 C 9,4 C 6,4 km/h (2 Bft) 100,00 %
27.10.2016 02:14 9,4 C 96 % 1028,3 hPa 0,0 l/m 4,9 km/h (1 Bft) W-SW 250 0 min 0,000 mm 0,0 UV-I 0 W/m 8,8 C 9,4 C 6,4 km/h (2 Bft) 100,00 %
27.10.2016 02:15 9,5 C 96 % 1028,4 hPa 0,0 l/m 4,3 km/h (1 Bft) W-SW 250 0 min 0,000 mm 0,0 UV-I 0 W/m 8,9 C 9,5 C 6,4 km/h (2 Bft) 100,00 %
27.10.2016 02:16 9,4 C 96 % 1028,4 hPa 0,0 l/m 4,7 km/h (1 Bft) W-SW 250 0 min 0,000 mm 0,0 UV-I 0 W/m 8,8 C 9,4 C 6,4 km/h (2 Bft) 100,00 %
27.10.2016 02:17 9,4 C 96 % 1028,4 hPa 0,0 l/m 4,9 km/h (1 Bft) W-SW 252 0 min 0,000 mm 0,0 UV-I 0 W/m 8,8 C 9,4 C 6,4 km/h (2 Bft) 100,00 %
27.10.2016 02:18 9,4 C 96 % 1028,4 hPa 0,0 l/m 4,8 km/h (1 Bft) W-SW 252 0 min 0,000 mm 0,0 UV-I 0 W/m 8,8 C 9,4 C 6,4 km/h (2 Bft) 100,00 %
27.10.2016 02:19 9,4 C 96 % 1028,4 hPa 0,0 l/m 4,4 km/h (1 Bft) W-SW 252 0 min 0,000 mm 0,0 UV-I 0 W/m 8,8 C 9,4 C 4,8 km/h (1 Bft) 95,65 %
27.10.2016 02:20 9,5 C 96 % 1028,4 hPa 0,0 l/m 4,2 km/h (1 Bft) W-SW 255 0 min 0,000 mm 0,0 UV-I 0 W/m 8,9 C 9,5 C 4,8 km/h (1 Bft) 95,83 %
27.10.2016 02:21 9,4 C 96 % 1028,4 hPa 0,0 l/m 4,5 km/h (1 Bft) W-SW 255 0 min 0,000 mm 0,0 UV-I 0 W/m 8,8 C 9,4 C 6,4 km/h (2 Bft) 95,65 %
27.10.2016 02:22 9,4 C 96 % 1028,4 hPa 0,0 l/m 4,3 km/h (1 Bft) W-SW 258 0 min 0,000 mm 0,0 UV-I 0 W/m 8,8 C 9,4 C 6,4 km/h (2 Bft) 100,00 %
27.10.2016 02:23 9,4 C 96 % 1028,4 hPa 0,0 l/m 3,6 km/h (1 Bft) W-SW 258 0 min 0,000 mm 0,0 UV-I 0 W/m 8,8 C 9,4 C 4,8 km/h (1 Bft) 100,00 %
27.10.2016 02:24 9,4 C 96 % 1028,4 hPa 0,0 l/m 4,2 km/h (1 Bft) W-SW 258 0 min 0,000 mm 0,0 UV-I 0 W/m 8,8 C 9,4 C 6,4 km/h (2 Bft) 100,00 %
27.10.2016 02:25 9,4 C 96 % 1028,4 hPa 0,0 l/m 4,0 km/h (1 Bft) W-SW 258 0 min 0,000 mm 0,0 UV-I 0 W/m 8,8 C 9,4 C 6,4 km/h (2 Bft) 100,00 %
27.10.2016 02:26 9,4 C 95 % 1028,4 hPa 0,0 l/m 5,0 km/h (1 Bft) W 265 0 min 0,000 mm 0,0 UV-I 0 W/m 8,6 C 9,4 C 9,7 km/h (2 Bft) 100,00 %
27.10.2016 02:27 9,4 C 96 % 1028,4 hPa 0,0 l/m 5,5 km/h (1 Bft) W 265 0 min 0,000 mm 0,0 UV-I 0 W/m 8,8 C 9,4 C 6,4 km/h (2 Bft) 100,00 %
27.10.2016 02:28 9,4 C 95 % 1028,4 hPa 0,0 l/m 5,2 km/h (1 Bft) W 263 0 min 0,000 mm 0,0 UV-I 0 W/m 8,6 C 9,4 C 6,4 km/h (2 Bft) 95,65 %
27.10.2016 02:29 9,4 C 96 % 1028,3 hPa 0,0 l/m 6,6 km/h (2 Bft) W-SW 254 0 min 0,000 mm 0,0 UV-I 0 W/m 8,8 C 9,3 C 9,7 km/h (2 Bft) 100,00 %
27.10.2016 02:30 9,5 C 95 % 1028,3 hPa 0,0 l/m 4,9 km/h (1 Bft) W 262 0 min 0,000 mm 0,0 UV-I 0 W/m 8,7 C 9,5 C 6,4 km/h (2 Bft) 90,91 %
27.10.2016 02:31 9,5 C 95 % 1028,3 hPa 0,0 l/m 6,8 km/h (2 Bft) W 265 0 min 0,000 mm 0,0 UV-I 0 W/m 8,7 C 9,2 C 11,3 km/h (2 Bft) 100,00 %
27.10.2016 02:32 9,5 C 95 % 1028,3 hPa 0,0 l/m 6,4 km/h (2 Bft) W-SW 256 0 min 0,000 mm 0,0 UV-I 0 W/m 8,7 C 9,5 C 8,0 km/h (2 Bft) 100,00 %
27.10.2016 02:33 9,5 C 95 % 1028,3 hPa 0,0 l/m 5,8 km/h (2 Bft) W-SW 257 0 min 0,000 mm 0,0 UV-I 0 W/m 8,7 C 9,5 C 9,7 km/h (2 Bft) 100,00 %
27.10.2016 02:34 9,5 C 95 % 1028,3 hPa 0,0 l/m 5,5 km/h (1 Bft) W-SW 258 0 min 0,000 mm 0,0 UV-I 0 W/m 8,7 C 9,5 C 6,4 km/h (2 Bft) 100,00 %
27.10.2016 02:35 9,5 C 95 % 1028,3 hPa 0,0 l/m 6,2 km/h (2 Bft) W-SW 255 0 min 0,000 mm 0,0 UV-I 0 W/m 8,7 C 9,5 C 6,4 km/h (2 Bft) 100,00 %
27.10.2016 02:36 9,5 C 95 % 1028,3 hPa 0,0 l/m 6,0 km/h (2 Bft) W-SW 250 0 min 0,000 mm 0,0 UV-I 0 W/m 8,7 C 9,5 C 8,0 km/h (2 Bft) 95,65 %
27.10.2016 02:37 9,5 C 95 % 1028,4 hPa 0,0 l/m 5,8 km/h (2 Bft) W 261 0 min 0,000 mm 0,0 UV-I 0 W/m 8,7 C 9,5 C 9,7 km/h (2 Bft) 100,00 %
27.10.2016 02:38 9,5 C 95 % 1028,4 hPa 0,0 l/m 6,2 km/h (2 Bft) W-SW 258 0 min 0,000 mm 0,0 UV-I 0 W/m 8,7 C 9,5 C 9,7 km/h (2 Bft) 100,00 %
27.10.2016 02:39 9,5 C 95 % 1028,4 hPa 0,0 l/m 6,4 km/h (2 Bft) W-SW 246 0 min 0,000 mm 0,0 UV-I 0 W/m 8,7 C 9,5 C 9,7 km/h (2 Bft) 100,00 %
27.10.2016 02:40 9,5 C 95 % 1028,4 hPa 0,0 l/m 6,4 km/h (2 Bft) W 263 0 min 0,000 mm 0,0 UV-I 0 W/m 8,7 C 9,5 C 8,0 km/h (2 Bft) 100,00 %
27.10.2016 02:41 9,5 C 95 % 1028,4 hPa 0,0 l/m 6,6 km/h (2 Bft) W-SW 257 0 min 0,000 mm 0,0 UV-I 0 W/m 8,7 C 9,4 C 9,7 km/h (2 Bft) 95,65 %
27.10.2016 02:42 9,5 C 95 % 1028,4 hPa 0,0 l/m 6,0 km/h (2 Bft) W-SW 248 0 min 0,000 mm 0,0 UV-I 0 W/m 8,7 C 9,5 C 8,0 km/h (2 Bft) 100,00 %
27.10.2016 02:43 9,5 C 95 % 1028,4 hPa 0,0 l/m 6,4 km/h (2 Bft) W-SW 252 0 min 0,000 mm 0,0 UV-I 0 W/m 8,7 C 9,5 C 8,0 km/h (2 Bft) 100,00 %
27.10.2016 02:44 9,6 C 95 % 1028,4 hPa 0,0 l/m 6,3 km/h (2 Bft) W-SW 258 0 min 0,000 mm 0,0 UV-I 0 W/m 8,8 C 9,6 C 9,7 km/h (2 Bft) 100,00 %
27.10.2016 02:45 9,5 C 95 % 1028,4 hPa 0,0 l/m 7,7 km/h (2 Bft) W-SW 253 0 min 0,000 mm 0,0 UV-I 0 W/m 8,7 C 8,5 C 9,7 km/h (2 Bft) 100,00 %
27.10.2016 02:46 9,5 C 95 % 1028,4 hPa 0,0 l/m 5,4 km/h (1 Bft) W-SW 250 0 min 0,000 mm 0,0 UV-I 0 W/m 8,7 C 9,5 C 6,4 km/h (2 Bft) 100,00 %
27.10.2016 02:47 9,5 C 95 % 1028,4 hPa 0,0 l/m 5,4 km/h (1 Bft) W-SW 252 0 min 0,000 mm 0,0 UV-I 0 W/m 8,7 C 9,5 C 6,4 km/h (2 Bft) 95,65 %
27.10.2016 02:48 9,5 C 95 % 1028,4 hPa 0,0 l/m 5,8 km/h (2 Bft) W-NW 284 0 min 0,000 mm 0,0 UV-I 0 W/m 8,7 C 9,5 C 9,7 km/h (2 Bft) 100,00 %
27.10.2016 02:49 9,5 C 95 % 1028,5 hPa 0,0 l/m 5,0 km/h (1 Bft) SW 235 0 min 0,000 mm 0,0 UV-I 0 W/m 8,7 C 9,5 C 11,3 km/h (2 Bft) 100,00 %
27.10.2016 02:50 9,5 C 95 % 1028,5 hPa 0,0 l/m 5,7 km/h (1 Bft) W-SW 250 0 min 0,000 mm 0,0 UV-I 0 W/m 8,7 C 9,5 C 11,3 km/h (2 Bft) 100,00 %
27.10.2016 02:51 9,5 C 95 % 1028,4 hPa 0,0 l/m 6,2 km/h (2 Bft) W-SW 254 0 min 0,000 mm 0,0 UV-I 0 W/m 8,7 C 9,5 C 9,7 km/h (2 Bft) 100,00 %
27.10.2016 02:52 9,5 C 95 % 1028,4 hPa 0,0 l/m 6,3 km/h (2 Bft) W-SW 250 0 min 0,000 mm 0,0 UV-I 0 W/m 8,7 C 9,5 C 8,0 km/h (2 Bft) 100,00 %
27.10.2016 02:53 9,5 C 95 % 1028,4 hPa 0,0 l/m 5,9 km/h (2 Bft) W-SW 248 0 min 0,000 mm 0,0 UV-I 0 W/m 8,7 C 9,5 C 6,4 km/h (2 Bft) 100,00 %
27.10.2016 02:54 9,5 C 95 % 1028,5 hPa 0,0 l/m 5,8 km/h (2 Bft) W-SW 249 0 min 0,000 mm 0,0 UV-I 0 W/m 8,7 C 9,5 C 6,4 km/h (2 Bft) 100,00 %
27.10.2016 02:55 9,5 C 95 % 1028,4 hPa 0,0 l/m 6,6 km/h (2 Bft) W-SW 257 0 min 0,000 mm 0,0 UV-I 0 W/m 8,7 C 9,4 C 8,0 km/h (2 Bft) 100,00 %
27.10.2016 02:56 9,5 C 95 % 1028,4 hPa 0,0 l/m 6,3 km/h (2 Bft) W-SW 248 0 min 0,000 mm 0,0 UV-I 0 W/m 8,7 C 9,5 C 8,0 km/h (2 Bft) 100,00 %
27.10.2016 02:57 9,5 C 95 % 1028,4 hPa 0,0 l/m 5,4 km/h (1 Bft) W-SW 257 0 min 0,000 mm 0,0 UV-I 0 W/m 8,7 C 9,5 C 6,4 km/h (2 Bft) 100,00 %
27.10.2016 02:58 9,5 C 95 % 1028,4 hPa 0,0 l/m 5,7 km/h (1 Bft) W-SW 243 0 min 0,000 mm 0,0 UV-I 0 W/m 8,7 C 9,5 C 11,3 km/h (2 Bft) 100,00 %
27.10.2016 02:59 9,5 C 95 % 1028,4 hPa 0,0 l/m 6,0 km/h (2 Bft) W-SW 252 0 min 0,000 mm 0,0 UV-I 0 W/m 8,7 C 9,5 C 8,0 km/h (2 Bft) 95,83 %
27.10.2016 03:00 9,5 C 95 % 1028,4 hPa 0,0 l/m 5,8 km/h (2 Bft) W-SW 247 0 min 0,000 mm 0,0 UV-I 0 W/m 8,7 C 9,5 C 8,0 km/h (2 Bft) 100,00 %
27.10.2016 03:01 9,5 C 95 % 1028,4 hPa 0,0 l/m 4,6 km/h (1 Bft) W-SW 248 0 min 0,000 mm 0,0 UV-I 0 W/m 8,7 C 9,5 C 6,4 km/h (2 Bft) 100,00 %
27.10.2016 03:02 9,5 C 95 % 1028,4 hPa 0,0 l/m 4,4 km/h (1 Bft) W-SW 255 0 min 0,000 mm 0,0 UV-I 0 W/m 8,7 C 9,5 C 4,8 km/h (1 Bft) 95,83 %
27.10.2016 03:03 9,4 C 95 % 1028,4 hPa 0,0 l/m 4,3 km/h (1 Bft) W-SW 255 0 min 0,000 mm 0,0 UV-I 0 W/m 8,6 C 9,4 C 6,4 km/h (2 Bft) 100,00 %
27.10.2016 03:04 9,5 C 95 % 1028,4 hPa 0,0 l/m 5,3 km/h (1 Bft) W-SW 250 0 min 0,000 mm 0,0 UV-I 0 W/m 8,7 C 9,5 C 6,4 km/h (2 Bft) 100,00 %
27.10.2016 03:05 9,4 C 95 % 1028,4 hPa 0,0 l/m 4,9 km/h (1 Bft) W-SW 250 0 min 0,000 mm 0,0 UV-I 0 W/m 8,6 C 9,4 C 8,0 km/h (2 Bft) 100,00 %
27.10.2016 03:06 9,4 C 95 % 1028,4 hPa 0,0 l/m 6,0 km/h (2 Bft) W-SW 252 0 min 0,000 mm 0,0 UV-I 0 W/m 8,6 C 9,4 C 8,0 km/h (2 Bft) 100,00 %
27.10.2016 03:07 9,4 C 95 % 1028,4 hPa 0,0 l/m 6,0 km/h (2 Bft) W-SW 253 0 min 0,000 mm 0,0 UV-I 0 W/m 8,6 C 9,4 C 6,4 km/h (2 Bft) 100,00 %
27.10.2016 03:08 9,4 C 95 % 1028,4 hPa 0,0 l/m 6,2 km/h (2 Bft) W 262 0 min 0,000 mm 0,0 UV-I 0 W/m 8,6 C 9,4 C 8,0 km/h (2 Bft) 100,00 %
27.10.2016 03:09 9,4 C 95 % 1028,4 hPa 0,0 l/m 5,6 km/h (1 Bft) W 261 0 min 0,000 mm 0,0 UV-I 0 W/m 8,6 C 9,4 C 6,4 km/h (2 Bft) 100,00 %
27.10.2016 03:10 9,4 C 95 % 1028,4 hPa 0,0 l/m 6,5 km/h (2 Bft) W 259 0 min 0,000 mm 0,0 UV-I 0 W/m 8,6 C 9,4 C 9,7 km/h (2 Bft) 100,00 %
27.10.2016 03:11 9,4 C 95 % 1028,4 hPa 0,0 l/m 6,1 km/h (2 Bft) W-SW 251 0 min 0,000 mm 0,0 UV-I 0 W/m 8,6 C 9,4 C 8,0 km/h (2 Bft) 100,00 %
27.10.2016 03:12 9,4 C 95 % 1028,4 hPa 0,0 l/m 4,9 km/h (1 Bft) W 267 0 min 0,000 mm 0,0 UV-I 0 W/m 8,6 C 9,4 C 6,4 km/h (2 Bft) 100,00 %
27.10.2016 03:13 9,4 C 95 % 1028,4 hPa 0,0 l/m 4,3 km/h (1 Bft) W 267 0 min 0,000 mm 0,0 UV-I 0 W/m 8,6 C 9,4 C 4,8 km/h (1 Bft) 100,00 %
27.10.2016 03:14 9,5 C 95 % 1028,4 hPa 0,0 l/m 4,8 km/h (1 Bft) W 266 0 min 0,000 mm 0,0 UV-I 0 W/m 8,7 C 9,5 C 6,4 km/h (2 Bft) 100,00 %
27.10.2016 03:15 9,4 C 95 % 1028,4 hPa 0,0 l/m 4,1 km/h (1 Bft) W 265 0 min 0,000 mm 0,0 UV-I 0 W/m 8,6 C 9,4 C 4,8 km/h (1 Bft) 100,00 %
27.10.2016 03:16 9,4 C 95 % 1028,4 hPa 0,0 l/m 4,6 km/h (1 Bft) W 265 0 min 0,000 mm 0,0 UV-I 0 W/m 8,6 C 9,4 C 6,4 km/h (2 Bft) 100,00 %
27.10.2016 03:17 9,4 C 95 % 1028,4 hPa 0,0 l/m 3,3 km/h (1 Bft) W 265 0 min 0,000 mm 0,0 UV-I 0 W/m 8,6 C 9,4 C 4,8 km/h (1 Bft) 100,00 %
27.10.2016 03:18 9,4 C 95 % 1028,4 hPa 0,0 l/m 2,5 km/h (1 Bft) W 265 0 min 0,000 mm 0,0 UV-I 0 W/m 8,6 C 9,4 C 3,2 km/h (1 Bft) 100,00 %
27.10.2016 03:19 9,4 C 95 % 1028,4 hPa 0,0 l/m 3,3 km/h (1 Bft) W 265 0 min 0,000 mm 0,0 UV-I 0 W/m 8,6 C 9,4 C 4,8 km/h (1 Bft) 100,00 %
27.10.2016 03:20 9,4 C 95 % 1028,5 hPa 0,0 l/m 4,0 km/h (1 Bft) W 265 0 min 0,000 mm 0,0 UV-I 0 W/m 8,6 C 9,4 C 4,8 km/h (1 Bft) 100,00 %
27.10.2016 03:21 9,4 C 95 % 1028,5 hPa 0,0 l/m 3,8 km/h (1 Bft) W 265 0 min 0,000 mm 0,0 UV-I 0 W/m 8,6 C 9,4 C 4,8 km/h (1 Bft) 100,00 %
27.10.2016 03:22 9,4 C 95 % 1028,5 hPa 0,0 l/m 5,1 km/h (1 Bft) W 261 0 min 0,000 mm 0,0 UV-I 0 W/m 8,6 C 9,4 C 6,4 km/h (2 Bft) 100,00 %
27.10.2016 03:23 9,4 C 95 % 1028,4 hPa 0,0 l/m 4,7 km/h (1 Bft) W 259 0 min 0,000 mm 0,0 UV-I 0 W/m 8,6 C 9,4 C 6,4 km/h (2 Bft) 100,00 %
27.10.2016 03:24 9,4 C 95 % 1028,4 hPa 0,0 l/m 4,4 km/h (1 Bft) W 259 0 min 0,000 mm 0,0 UV-I 0 W/m 8,6 C 9,4 C 6,4 km/h (2 Bft) 100,00 %
27.10.2016 03:25 9,4 C 95 % 1028,4 hPa 0,0 l/m 3,4 km/h (1 Bft) W 259 0 min 0,000 mm 0,0 UV-I 0 W/m 8,6 C 9,4 C 6,4 km/h (2 Bft) 95,65 %
27.10.2016 03:26 9,4 C 95 % 1028,4 hPa 0,0 l/m 5,2 km/h (1 Bft) W-SW 257 0 min 0,000 mm 0,0 UV-I 0 W/m 8,6 C 9,4 C 6,4 km/h (2 Bft) 100,00 %
27.10.2016 03:27 9,4 C 95 % 1028,4 hPa 0,0 l/m 4,5 km/h (1 Bft) W-SW 257 0 min 0,000 mm 0,0 UV-I 0 W/m 8,6 C 9,4 C 6,4 km/h (2 Bft) 95,65 %
27.10.2016 03:28 9,4 C 95 % 1028,4 hPa 0,0 l/m 4,7 km/h (1 Bft) W-SW 257 0 min 0,000 mm 0,0 UV-I 0 W/m 8,6 C 9,4 C 6,4 km/h (2 Bft) 95,83 %
27.10.2016 03:29 9,4 C 95 % 1028,5 hPa 0,0 l/m 5,0 km/h (1 Bft) W-SW 257 0 min 0,000 mm 0,0 UV-I 0 W/m 8,6 C 9,4 C 6,4 km/h (2 Bft) 95,65 %
27.10.2016 03:30 9,4 C 95 % 1028,4 hPa 0,0 l/m 5,8 km/h (2 Bft) W-SW 256 0 min 0,000 mm 0,0 UV-I 0 W/m 8,6 C 9,4 C 8,0 km/h (2 Bft) 91,67 %
27.10.2016 03:31 9,4 C 95 % 1028,4 hPa 0,0 l/m 5,6 km/h (1 Bft) W-SW 246 0 min 0,000 mm 0,0 UV-I 0 W/m 8,6 C 9,4 C 8,0 km/h (2 Bft) 95,65 %
27.10.2016 03:32 9,4 C 95 % 1028,4 hPa 0,0 l/m 4,8 km/h (1 Bft) W 260 0 min 0,000 mm 0,0 UV-I 0 W/m 8,6 C 9,4 C 6,4 km/h (2 Bft) 95,83 %
27.10.2016 03:33 9,4 C 95 % 1028,5 hPa 0,0 l/m 4,1 km/h (1 Bft) W 260 0 min 0,000 mm 0,0 UV-I 0 W/m 8,6 C 9,4 C 6,4 km/h (2 Bft) 100,00 %
27.10.2016 03:34 9,4 C 95 % 1028,5 hPa 0,0 l/m 4,9 km/h (1 Bft) W 260 0 min 0,000 mm 0,0 UV-I 0 W/m 8,6 C 9,4 C 6,4 km/h (2 Bft) 91,67 %
27.10.2016 03:35 9,4 C 95 % 1028,5 hPa 0,0 l/m 5,8 km/h (2 Bft) W 271 0 min 0,000 mm 0,0 UV-I 0 W/m 8,6 C 9,4 C 9,7 km/h (2 Bft) 100,00 %
27.10.2016 03:36 9,4 C 95 % 1028,5 hPa 0,0 l/m 4,3 km/h (1 Bft) W 271 0 min 0,000 mm 0,0 UV-I 0 W/m 8,6 C 9,4 C 6,4 km/h (2 Bft) 95,83 %
27.10.2016 03:37 9,4 C 95 % 1028,5 hPa 0,0 l/m 4,6 km/h (1 Bft) W 271 0 min 0,000 mm 0,0 UV-I 0 W/m 8,6 C 9,4 C 4,8 km/h (1 Bft) 100,00 %
27.10.2016 03:38 9,4 C 95 % 1028,5 hPa 0,0 l/m 4,1 km/h (1 Bft) W 271 0 min 0,000 mm 0,0 UV-I 0 W/m 8,6 C 9,4 C 4,8 km/h (1 Bft) 95,83 %
27.10.2016 03:39 9,4 C 95 % 1028,5 hPa 0,0 l/m 4,5 km/h (1 Bft) W 269 0 min 0,000 mm 0,0 UV-I 0 W/m 8,6 C 9,4 C 4,8 km/h (1 Bft) 95,65 %
27.10.2016 03:40 9,4 C 95 % 1028,5 hPa 0,0 l/m 4,9 km/h (1 Bft) W 269 0 min 0,000 mm 0,0 UV-I 0 W/m 8,6 C 9,4 C 6,4 km/h (2 Bft) 100,00 %
27.10.2016 03:41 9,4 C 95 % 1028,5 hPa 0,0 l/m 4,2 km/h (1 Bft) W 269 0 min 0,000 mm 0,0 UV-I 0 W/m 8,6 C 9,4 C 4,8 km/h (1 Bft) 91,67 %
27.10.2016 03:42 9,5 C 95 % 1028,5 hPa 0,0 l/m 5,2 km/h (1 Bft) W 268 0 min 0,000 mm 0,0 UV-I 0 W/m 8,7 C 9,5 C 6,4 km/h (2 Bft) 95,65 %
27.10.2016 03:43 9,5 C 95 % 1028,5 hPa 0,0 l/m 5,6 km/h (1 Bft) W 265 0 min 0,000 mm 0,0 UV-I 0 W/m 8,7 C 9,5 C 6,4 km/h (2 Bft) 95,83 %
27.10.2016 03:44 9,5 C 95 % 1028,5 hPa 0,0 l/m 6,6 km/h (2 Bft) W 259 0 min 0,000 mm 0,0 UV-I 0 W/m 8,7 C 9,4 C 9,7 km/h (2 Bft) 100,00 %
27.10.2016 03:45 9,5 C 95 % 1028,6 hPa 0,0 l/m 6,0 km/h (2 Bft) W 259 0 min 0,000 mm 0,0 UV-I 0 W/m 8,7 C 9,5 C 6,4 km/h (2 Bft) 95,83 %
27.10.2016 03:46 9,5 C 95 % 1028,5 hPa 0,0 l/m 6,0 km/h (2 Bft) W 259 0 min 0,000 mm 0,0 UV-I 0 W/m 8,7 C 9,5 C 9,7 km/h (2 Bft) 95,65 %
27.10.2016 03:47 9,5 C 95 % 1028,5 hPa 0,0 l/m 5,5 km/h (1 Bft) W-SW 244 0 min 0,000 mm 0,0 UV-I 0 W/m 8,7 C 9,5 C 8,0 km/h (2 Bft) 100,00 %
27.10.2016 03:48 9,5 C 95 % 1028,5 hPa 0,0 l/m 4,4 km/h (1 Bft) W-SW 237 0 min 0,000 mm 0,0 UV-I 0 W/m 8,7 C 9,5 C 6,4 km/h (2 Bft) 95,65 %
27.10.2016 03:49 9,5 C 95 % 1028,5 hPa 0,0 l/m 5,5 km/h (1 Bft) W-SW 238 0 min 0,000 mm 0,0 UV-I 0 W/m 8,7 C 9,5 C 8,0 km/h (2 Bft) 100,00 %
27.10.2016 03:50 9,4 C 95 % 1028,5 hPa 0,0 l/m 5,4 km/h (1 Bft) SW 234 0 min 0,000 mm 0,0 UV-I 0 W/m 8,6 C 9,4 C 8,0 km/h (2 Bft) 91,30 %
27.10.2016 03:51 9,4 C 95 % 1028,5 hPa 0,0 l/m 6,9 km/h (2 Bft) SW 230 0 min 0,000 mm 0,0 UV-I 0 W/m 8,6 C 9,0 C 8,0 km/h (2 Bft) 100,00 %
27.10.2016 03:52 9,4 C 95 % 1028,5 hPa 0,0 l/m 6,1 km/h (2 Bft) SW 236 0 min 0,000 mm 0,0 UV-I 0 W/m 8,6 C 9,4 C 11,3 km/h (2 Bft) 91,30 %
27.10.2016 03:53 9,4 C 95 % 1028,5 hPa 0,0 l/m 6,0 km/h (2 Bft) SW 229 0 min 0,000 mm 0,0 UV-I 0 W/m 8,6 C 9,4 C 8,0 km/h (2 Bft) 100,00 %
27.10.2016 03:54 9,4 C 96 % 1028,5 hPa 0,0 l/m 4,3 km/h (1 Bft) SW 229 0 min 0,000 mm 0,0 UV-I 0 W/m 8,8 C 9,4 C 8,0 km/h (2 Bft) 95,65 %
27.10.2016 03:55 9,4 C 95 % 1028,4 hPa 0,0 l/m 3,8 km/h (1 Bft) SW 229 0 min 0,000 mm 0,0 UV-I 0 W/m 8,6 C 9,4 C 6,4 km/h (2 Bft) 95,83 %
27.10.2016 03:56 9,4 C 95 % 1028,4 hPa 0,0 l/m 4,4 km/h (1 Bft) SW 227 0 min 0,000 mm 0,0 UV-I 0 W/m 8,6 C 9,4 C 6,4 km/h (2 Bft) 91,30 %
27.10.2016 03:57 9,4 C 95 % 1028,4 hPa 0,0 l/m 5,0 km/h (1 Bft) SW 227 0 min 0,000 mm 0,0 UV-I 0 W/m 8,6 C 9,4 C 6,4 km/h (2 Bft) 95,83 %
27.10.2016 03:58 9,4 C 95 % 1028,4 hPa 0,0 l/m 5,1 km/h (1 Bft) SW 229 0 min 0,000 mm 0,0 UV-I 0 W/m 8,6 C 9,4 C 8,0 km/h (2 Bft) 100,00 %
27.10.2016 03:59 9,4 C 95 % 1028,5 hPa 0,0 l/m 4,2 km/h (1 Bft) W-SW 237 0 min 0,000 mm 0,0 UV-I 0 W/m 8,6 C 9,4 C 6,4 km/h (2 Bft) 91,30 %
27.10.2016 04:00 9,4 C 95 % 1028,4 hPa 0,0 l/m 4,1 km/h (1 Bft) W-SW 237 0 min 0,000 mm 0,0 UV-I 0 W/m 8,6 C 9,4 C 4,8 km/h (1 Bft) 100,00 %
27.10.2016 04:01 9,4 C 95 % 1028,5 hPa 0,0 l/m 4,5 km/h (1 Bft) W-SW 237 0 min 0,000 mm 0,0 UV-I 0 W/m 8,6 C 9,4 C 4,8 km/h (1 Bft) 100,00 %
27.10.2016 04:02 9,4 C 95 % 1028,4 hPa 0,0 l/m 5,4 km/h (1 Bft) W-SW 238 0 min 0,000 mm 0,0 UV-I 0 W/m 8,6 C 9,4 C 6,4 km/h (2 Bft) 100,00 %
27.10.2016 04:03 9,3 C 95 % 1028,4 hPa 0,0 l/m 3,7 km/h (1 Bft) W-SW 238 0 min 0,000 mm 0,0 UV-I 0 W/m 8,5 C 9,3 C 6,4 km/h (2 Bft) 97,14 %
27.10.2016 04:04 9,3 C 95 % 1028,4 hPa 0,0 l/m 3,9 km/h (1 Bft) SW 226 0 min 0,000 mm 0,0 UV-I 0 W/m 8,5 C 9,3 C 6,4 km/h (2 Bft) 100,00 %
27.10.2016 04:05 9,3 C 95 % 1028,4 hPa 0,0 l/m 4,8 km/h (1 Bft) SW 225 0 min 0,000 mm 0,0 UV-I 0 W/m 8,5 C 9,3 C 6,4 km/h (2 Bft) 95,65 %
27.10.2016 04:06 9,3 C 95 % 1028,4 hPa 0,0 l/m 4,2 km/h (1 Bft) SW 232 0 min 0,000 mm 0,0 UV-I 0 W/m 8,5 C 9,3 C 4,8 km/h (1 Bft) 100,00 %
27.10.2016 04:07 9,3 C 95 % 1028,4 hPa 0,0 l/m 3,3 km/h (1 Bft) SW 232 0 min 0,000 mm 0,0 UV-I 0 W/m 8,5 C 9,3 C 4,8 km/h (1 Bft) 100,00 %
27.10.2016 04:08 9,3 C 96 % 1028,5 hPa 0,0 l/m 3,4 km/h (1 Bft) SW 232 0 min 0,000 mm 0,0 UV-I 0 W/m 8,7 C 9,3 C 4,8 km/h (1 Bft) 95,83 %
27.10.2016 04:09 9,3 C 96 % 1028,4 hPa 0,0 l/m 4,0 km/h (1 Bft) SW 232 0 min 0,000 mm 0,0 UV-I 0 W/m 8,7 C 9,3 C 4,8 km/h (1 Bft) 95,65 %
27.10.2016 04:10 9,3 C 96 % 1028,4 hPa 0,0 l/m 5,0 km/h (1 Bft) SW 228 0 min 0,000 mm 0,0 UV-I 0 W/m 8,7 C 9,3 C 6,4 km/h (2 Bft) 100,00 %
27.10.2016 04:11 9,3 C 96 % 1028,4 hPa 0,0 l/m 5,7 km/h (1 Bft) SW 227 0 min 0,000 mm 0,0 UV-I 0 W/m 8,7 C 9,3 C 6,4 km/h (2 Bft) 100,00 %
27.10.2016 04:12 9,3 C 96 % 1028,4 hPa 0,0 l/m 4,9 km/h (1 Bft) SW 227 0 min 0,000 mm 0,0 UV-I 0 W/m 8,7 C 9,3 C 6,4 km/h (2 Bft) 100,00 %
27.10.2016 04:13 9,3 C 96 % 1028,4 hPa 0,0 l/m 6,6 km/h (2 Bft) SW 218 0 min 0,000 mm 0,0 UV-I 0 W/m 8,7 C 9,2 C 8,0 km/h (2 Bft) 100,00 %
27.10.2016 04:14 9,3 C 96 % 1028,4 hPa 0,0 l/m 5,6 km/h (1 Bft) SW 225 0 min 0,000 mm 0,0 UV-I 0 W/m 8,7 C 9,3 C 8,0 km/h (2 Bft) 100,00 %
27.10.2016 04:15 9,3 C 96 % 1028,4 hPa 0,0 l/m 3,9 km/h (1 Bft) SW 225 0 min 0,000 mm 0,0 UV-I 0 W/m 8,7 C 9,3 C 4,8 km/h (1 Bft) 100,00 %
27.10.2016 04:16 9,3 C 96 % 1028,4 hPa 0,0 l/m 4,4 km/h (1 Bft) SW 225 0 min 0,000 mm 0,0 UV-I 0 W/m 8,7 C 9,3 C 6,4 km/h (2 Bft) 95,83 %
27.10.2016 04:17 9,3 C 96 % 1028,5 hPa 0,0 l/m 4,4 km/h (1 Bft) SW 225 0 min 0,000 mm 0,0 UV-I 0 W/m 8,7 C 9,3 C 4,8 km/h (1 Bft) 100,00 %
27.10.2016 04:18 9,3 C 96 % 1028,5 hPa 0,0 l/m 4,7 km/h (1 Bft) SW 229 0 min 0,000 mm 0,0 UV-I 0 W/m 8,7 C 9,3 C 8,0 km/h (2 Bft) 100,00 %
27.10.2016 04:19 9,3 C 96 % 1028,4 hPa 0,0 l/m 5,4 km/h (1 Bft) SW 231 0 min 0,000 mm 0,0 UV-I 0 W/m 8,7 C 9,3 C 8,0 km/h (2 Bft) 100,00 %
27.10.2016 04:20 9,3 C 96 % 1028,4 hPa 0,0 l/m 5,2 km/h (1 Bft) SW 234 0 min 0,000 mm 0,0 UV-I 0 W/m 8,7 C 9,3 C 6,4 km/h (2 Bft) 100,00 %
27.10.2016 04:21 9,3 C 96 % 1028,4 hPa 0,0 l/m 4,9 km/h (1 Bft) SW 234 0 min 0,000 mm 0,0 UV-I 0 W/m 8,7 C 9,3 C 8,0 km/h (2 Bft) 100,00 %
27.10.2016 04:22 9,3 C 96 % 1028,4 hPa 0,0 l/m 6,0 km/h (2 Bft) SW 227 0 min 0,000 mm 0,0 UV-I 0 W/m 8,7 C 9,3 C 9,7 km/h (2 Bft) 100,00 %
27.10.2016 04:23 9,3 C 96 % 1028,4 hPa 0,0 l/m 7,3 km/h (2 Bft) SW 234 0 min 0,000 mm 0,0 UV-I 0 W/m 8,7 C 8,6 C 9,7 km/h (2 Bft) 100,00 %
27.10.2016 04:24 9,3 C 96 % 1028,5 hPa 0,0 l/m 8,0 km/h (2 Bft) SW 229 0 min 0,000 mm 0,0 UV-I 0 W/m 8,7 C 8,1 C 9,7 km/h (2 Bft) 100,00 %
27.10.2016 04:25 9,3 C 96 % 1028,5 hPa 0,0 l/m 8,4 km/h (2 Bft) W-SW 242 0 min 0,000 mm 0,0 UV-I 0 W/m 8,7 C 7,8 C 12,9 km/h (3 Bft) 100,00 %
27.10.2016 04:26 9,3 C 96 % 1028,4 hPa 0,0 l/m 5,6 km/h (1 Bft) SW 225 0 min 0,000 mm 0,0 UV-I 0 W/m 8,7 C 9,3 C 8,0 km/h (2 Bft) 100,00 %
27.10.2016 04:27 9,3 C 96 % 1028,4 hPa 0,0 l/m 4,9 km/h (1 Bft) W-SW 243 0 min 0,000 mm 0,0 UV-I 0 W/m 8,7 C 9,3 C 6,4 km/h (2 Bft) 95,83 %
27.10.2016 04:28 9,3 C 96 % 1028,4 hPa 0,0 l/m 5,2 km/h (1 Bft) W-SW 244 0 min 0,000 mm 0,0 UV-I 0 W/m 8,7 C 9,3 C 8,0 km/h (2 Bft) 100,00 %
27.10.2016 04:29 9,3 C 96 % 1028,4 hPa 0,0 l/m 6,0 km/h (2 Bft) SW 236 0 min 0,000 mm 0,0 UV-I 0 W/m 8,7 C 9,3 C 8,0 km/h (2 Bft) 100,00 %
27.10.2016 04:30 9,3 C 96 % 1028,4 hPa 0,0 l/m 5,7 km/h (1 Bft) W-SW 238 0 min 0,000 mm 0,0 UV-I 0 W/m 8,7 C 9,3 C 8,0 km/h (2 Bft) 100,00 %
27.10.2016 04:31 9,3 C 96 % 1028,5 hPa 0,0 l/m 6,0 km/h (2 Bft) W-SW 238 0 min 0,000 mm 0,0 UV-I 0 W/m 8,7 C 9,3 C 8,0 km/h (2 Bft) 95,83 %
27.10.2016 04:32 9,3 C 96 % 1028,5 hPa 0,0 l/m 6,7 km/h (2 Bft) SW 234 0 min 0,000 mm 0,0 UV-I 0 W/m 8,7 C 9,1 C 8,0 km/h (2 Bft) 100,00 %
27.10.2016 04:33 9,3 C 96 % 1028,5 hPa 0,0 l/m 6,4 km/h (2 Bft) SW 234 0 min 0,000 mm 0,0 UV-I 0 W/m 8,7 C 9,3 C 8,0 km/h (2 Bft) 100,00 %
27.10.2016 04:34 9,3 C 96 % 1028,5 hPa 0,0 l/m 6,9 km/h (2 Bft) SW 236 0 min 0,000 mm 0,0 UV-I 0 W/m 8,7 C 8,9 C 8,0 km/h (2 Bft) 100,00 %
27.10.2016 04:35 9,3 C 96 % 1028,5 hPa 0,0 l/m 5,2 km/h (1 Bft) W-SW 238 0 min 0,000 mm 0,0 UV-I 0 W/m 8,7 C 9,3 C 6,4 km/h (2 Bft) 100,00 %
27.10.2016 04:36 9,3 C 96 % 1028,5 hPa 0,0 l/m 4,6 km/h (1 Bft) SW 234 0 min 0,000 mm 0,0 UV-I 0 W/m 8,7 C 9,3 C 6,4 km/h (2 Bft) 100,00 %
27.10.2016 04:37 9,3 C 96 % 1028,5 hPa 0,0 l/m 6,0 km/h (2 Bft) SW 229 0 min 0,000 mm 0,0 UV-I 0 W/m 8,7 C 9,3 C 8,0 km/h (2 Bft) 100,00 %
27.10.2016 04:38 9,3 C 96 % 1028,5 hPa 0,0 l/m 6,2 km/h (2 Bft) SW 228 0 min 0,000 mm 0,0 UV-I 0 W/m 8,7 C 9,3 C 8,0 km/h (2 Bft) 83,33 %
27.10.2016 04:39 9,3 C 96 % 1028,5 hPa 0,0 l/m 6,8 km/h (2 Bft) SW 227 0 min 0,000 mm 0,0 UV-I 0 W/m 8,7 C 9,0 C 9,7 km/h (2 Bft) 97,14 %
27.10.2016 04:40 9,3 C 96 % 1028,5 hPa 0,0 l/m 7,5 km/h (2 Bft) SW 234 0 min 0,000 mm 0,0 UV-I 0 W/m 8,7 C 8,5 C 9,7 km/h (2 Bft) 100,00 %
27.10.2016 04:41 9,3 C 96 % 1028,5 hPa 0,0 l/m 7,8 km/h (2 Bft) SW 229 0 min 0,000 mm 0,0 UV-I 0 W/m 8,7 C 8,3 C 9,7 km/h (2 Bft) 100,00 %
27.10.2016 04:42 9,3 C 96 % 1028,5 hPa 0,0 l/m 6,8 km/h (2 Bft) SW 234 0 min 0,000 mm 0,0 UV-I 0 W/m 8,7 C 9,0 C 9,7 km/h (2 Bft) 95,83 %
27.10.2016 04:43 9,3 C 96 % 1028,5 hPa 0,0 l/m 7,6 km/h (2 Bft) SW 232 0 min 0,000 mm 0,0 UV-I 0 W/m 8,7 C 8,4 C 9,7 km/h (2 Bft) 100,00 %
27.10.2016 04:44 9,3 C 96 % 1028,5 hPa 0,0 l/m 7,3 km/h (2 Bft) SW 228 0 min 0,000 mm 0,0 UV-I 0 W/m 8,7 C 8,6 C 9,7 km/h (2 Bft) 95,83 %
27.10.2016 04:45 9,3 C 96 % 1028,4 hPa 0,0 l/m 6,3 km/h (2 Bft) W-SW 240 0 min 0,000 mm 0,0 UV-I 0 W/m 8,7 C 9,3 C 9,7 km/h (2 Bft) 100,00 %
27.10.2016 04:46 9,3 C 96 % 1028,4 hPa 0,0 l/m 8,2 km/h (2 Bft) W-SW 244 0 min 0,000 mm 0,0 UV-I 0 W/m 8,7 C 8,0 C 11,3 km/h (2 Bft) 100,00 %
27.10.2016 04:47 9,3 C 96 % 1028,5 hPa 0,0 l/m 7,9 km/h (2 Bft) SW 236 0 min 0,000 mm 0,0 UV-I 0 W/m 8,7 C 8,2 C 9,7 km/h (2 Bft) 95,65 %
27.10.2016 04:48 9,3 C 96 % 1028,5 hPa 0,0 l/m 8,1 km/h (2 Bft) SW 236 0 min 0,000 mm 0,0 UV-I 0 W/m 8,7 C 8,0 C 9,7 km/h (2 Bft) 100,00 %
27.10.2016 04:49 9,3 C 96 % 1028,4 hPa 0,0 l/m 7,4 km/h (2 Bft) SW 228 0 min 0,000 mm 0,0 UV-I 0 W/m 8,7 C 8,6 C 9,7 km/h (2 Bft) 100,00 %
27.10.2016 04:50 9,3 C 96 % 1028,4 hPa 0,0 l/m 6,4 km/h (2 Bft) W 259 0 min 0,000 mm 0,0 UV-I 0 W/m 8,7 C 9,3 C 8,0 km/h (2 Bft) 100,00 %
27.10.2016 04:51 9,3 C 96 % 1028,5 hPa 0,0 l/m 6,7 km/h (2 Bft) SW 232 0 min 0,000 mm 0,0 UV-I 0 W/m 8,7 C 9,1 C 9,7 km/h (2 Bft) 100,00 %
27.10.2016 04:52 9,3 C 96 % 1028,5 hPa 0,0 l/m 8,8 km/h (2 Bft) W 260 0 min 0,000 mm 0,0 UV-I 0 W/m 8,7 C 7,6 C 12,9 km/h (3 Bft) 100,00 %
27.10.2016 04:53 9,3 C 96 % 1028,5 hPa 0,0 l/m 9,4 km/h (2 Bft) W-SW 257 0 min 0,000 mm 0,0 UV-I 0 W/m 8,7 C 7,2 C 12,9 km/h (3 Bft) 100,00 %
27.10.2016 04:54 9,3 C 96 % 1028,5 hPa 0,0 l/m 8,2 km/h (2 Bft) W 262 0 min 0,000 mm 0,0 UV-I 0 W/m 8,7 C 8,0 C 11,3 km/h (2 Bft) 100,00 %
27.10.2016 04:55 9,3 C 96 % 1028,5 hPa 0,0 l/m 9,6 km/h (2 Bft) SW 229 0 min 0,000 mm 0,0 UV-I 0 W/m 8,7 C 7,1 C 12,9 km/h (3 Bft) 100,00 %
27.10.2016 04:56 9,3 C 96 % 1028,5 hPa 0,0 l/m 9,1 km/h (2 Bft) W-SW 247 0 min 0,000 mm 0,0 UV-I 0 W/m 8,7 C 7,4 C 12,9 km/h (3 Bft) 100,00 %
27.10.2016 04:57 9,3 C 96 % 1028,5 hPa 0,0 l/m 9,6 km/h (2 Bft) W-SW 252 0 min 0,000 mm 0,0 UV-I 0 W/m 8,7 C 7,1 C 12,9 km/h (3 Bft) 100,00 %
27.10.2016 04:58 9,3 C 96 % 1028,5 hPa 0,0 l/m 8,4 km/h (2 Bft) W 262 0 min 0,000 mm 0,0 UV-I 0 W/m 8,7 C 7,8 C 11,3 km/h (2 Bft) 95,83 %
27.10.2016 04:59 9,3 C 96 % 1028,5 hPa 0,0 l/m 6,7 km/h (2 Bft) W-SW 247 0 min 0,000 mm 0,0 UV-I 0 W/m 8,7 C 9,1 C 11,3 km/h (2 Bft) 95,65 %
27.10.2016 05:00 9,3 C 96 % 1028,5 hPa 0,0 l/m 7,5 km/h (2 Bft) W-SW 246 0 min 0,000 mm 0,0 UV-I 0 W/m 8,7 C 8,5 C 11,3 km/h (2 Bft) 100,00 %
27.10.2016 05:01 9,3 C 96 % 1028,5 hPa 0,0 l/m 7,8 km/h (2 Bft) W-SW 246 0 min 0,000 mm 0,0 UV-I 0 W/m 8,7 C 8,3 C 11,3 km/h (2 Bft) 100,00 %
27.10.2016 05:02 9,3 C 96 % 1028,6 hPa 0,0 l/m 7,3 km/h (2 Bft) W-SW 238 0 min 0,000 mm 0,0 UV-I 0 W/m 8,7 C 8,6 C 11,3 km/h (2 Bft) 95,65 %
27.10.2016 05:03 9,3 C 96 % 1028,6 hPa 0,0 l/m 9,1 km/h (2 Bft) W 259 0 min 0,000 mm 0,0 UV-I 0 W/m 8,7 C 7,4 C 11,3 km/h (2 Bft) 100,00 %
27.10.2016 05:04 9,3 C 95 % 1028,6 hPa 0,0 l/m 8,8 km/h (2 Bft) SW 232 0 min 0,000 mm 0,0 UV-I 0 W/m 8,5 C 7,6 C 12,9 km/h (3 Bft) 95,65 %
27.10.2016 05:05 9,3 C 95 % 1028,5 hPa 0,0 l/m 8,0 km/h (2 Bft) W 265 0 min 0,000 mm 0,0 UV-I 0 W/m 8,5 C 8,1 C 12,9 km/h (3 Bft) 96,30 %
27.10.2016 05:06 9,3 C 95 % 1028,5 hPa 0,0 l/m 7,3 km/h (2 Bft) SW 220 0 min 0,000 mm 0,0 UV-I 0 W/m 8,5 C 8,6 C 9,7 km/h (2 Bft) 95,83 %
27.10.2016 05:07 9,3 C 95 % 1028,5 hPa 0,0 l/m 6,5 km/h (2 Bft) W-SW 242 0 min 0,000 mm 0,0 UV-I 0 W/m 8,5 C 9,3 C 9,7 km/h (2 Bft) 100,00 %
27.10.2016 05:08 9,4 C 95 % 1028,5 hPa 0,0 l/m 7,8 km/h (2 Bft) W-SW 242 0 min 0,000 mm 0,0 UV-I 0 W/m 8,6 C 8,4 C 11,3 km/h (2 Bft) 95,65 %
27.10.2016 05:09 9,4 C 95 % 1028,6 hPa 0,0 l/m 7,4 km/h (2 Bft) W-SW 249 0 min 0,000 mm 0,0 UV-I 0 W/m 8,6 C 8,7 C 12,9 km/h (3 Bft) 100,00 %
27.10.2016 05:10 9,4 C 95 % 1028,6 hPa 0,0 l/m 7,1 km/h (2 Bft) W-SW 244 0 min 0,000 mm 0,0 UV-I 0 W/m 8,6 C 8,9 C 11,3 km/h (2 Bft) 100,00 %
27.10.2016 05:11 9,4 C 95 % 1028,5 hPa 0,0 l/m 7,2 km/h (2 Bft) W-SW 255 0 min 0,000 mm 0,0 UV-I 0 W/m 8,6 C 8,8 C 11,3 km/h (2 Bft) 100,00 %
27.10.2016 05:12 9,4 C 95 % 1028,6 hPa 0,0 l/m 7,0 km/h (2 Bft) W-SW 252 0 min 0,000 mm 0,0 UV-I 0 W/m 8,6 C 9,0 C 11,3 km/h (2 Bft) 95,65 %
27.10.2016 05:13 9,4 C 95 % 1028,6 hPa 0,0 l/m 9,9 km/h (2 Bft) W-SW 252 0 min 0,000 mm 0,0 UV-I 0 W/m 8,6 C 7,0 C 12,9 km/h (3 Bft) 100,00 %
27.10.2016 05:14 9,4 C 95 % 1028,7 hPa 0,0 l/m 8,1 km/h (2 Bft) W-SW 247 0 min 0,000 mm 0,0 UV-I 0 W/m 8,6 C 8,2 C 14,5 km/h (3 Bft) 100,00 %
27.10.2016 05:15 9,4 C 95 % 1028,7 hPa 0,0 l/m 9,7 km/h (2 Bft) W-SW 238 0 min 0,000 mm 0,0 UV-I 0 W/m 8,6 C 7,1 C 12,9 km/h (3 Bft) 100,00 %
27.10.2016 05:16 9,4 C 95 % 1028,6 hPa 0,0 l/m 9,8 km/h (2 Bft) W 273 0 min 0,000 mm 0,0 UV-I 0 W/m 8,6 C 7,1 C 12,9 km/h (3 Bft) 100,00 %
27.10.2016 05:17 9,4 C 95 % 1028,7 hPa 0,0 l/m 7,3 km/h (2 Bft) W-SW 244 0 min 0,000 mm 0,0 UV-I 0 W/m 8,6 C 8,7 C 11,3 km/h (2 Bft) 100,00 %
27.10.2016 05:18 9,4 C 95 % 1028,6 hPa 0,0 l/m 6,6 km/h (2 Bft) W-SW 240 0 min 0,000 mm 0,0 UV-I 0 W/m 8,6 C 9,3 C 9,7 km/h (2 Bft) 91,30 %
27.10.2016 05:19 9,4 C 95 % 1028,6 hPa 0,0 l/m 10,0 km/h (2 Bft) S-SW 212 0 min 0,000 mm 0,0 UV-I 0 W/m 8,6 C 6,9 C 14,5 km/h (3 Bft) 100,00 %
27.10.2016 05:20 9,4 C 95 % 1028,6 hPa 0,0 l/m 7,8 km/h (2 Bft) SW 227 0 min 0,000 mm 0,0 UV-I 0 W/m 8,6 C 8,4 C 11,3 km/h (2 Bft) 100,00 %
27.10.2016 05:21 9,4 C 95 % 1028,6 hPa 0,0 l/m 9,3 km/h (2 Bft) SW 236 0 min 0,000 mm 0,0 UV-I 0 W/m 8,6 C 7,4 C 11,3 km/h (2 Bft) 95,65 %
27.10.2016 05:22 9,4 C 95 % 1028,7 hPa 0,0 l/m 9,3 km/h (2 Bft) W 259 0 min 0,000 mm 0,0 UV-I 0 W/m 8,6 C 7,4 C 14,5 km/h (3 Bft) 100,00 %
27.10.2016 05:23 9,4 C 95 % 1028,7 hPa 0,0 l/m 11,1 km/h (2 Bft) W-SW 247 0 min 0,000 mm 0,0 UV-I 0 W/m 8,6 C 6,3 C 16,1 km/h (3 Bft) 95,65 %
27.10.2016 05:24 9,4 C 95 % 1028,7 hPa 0,0 l/m 8,1 km/h (2 Bft) W-SW 246 0 min 0,000 mm 0,0 UV-I 0 W/m 8,6 C 8,2 C 11,3 km/h (2 Bft) 100,00 %
27.10.2016 05:25 9,4 C 95 % 1028,7 hPa 0,0 l/m 8,6 km/h (2 Bft) SW 233 0 min 0,000 mm 0,0 UV-I 0 W/m 8,6 C 7,8 C 12,9 km/h (3 Bft) 95,65 %
27.10.2016 05:26 9,4 C 95 % 1028,8 hPa 0,0 l/m 9,5 km/h (2 Bft) W-SW 254 0 min 0,000 mm 0,0 UV-I 0 W/m 8,6 C 7,2 C 12,9 km/h (3 Bft) 100,00 %
27.10.2016 05:27 9,4 C 94 % 1028,8 hPa 0,0 l/m 8,9 km/h (2 Bft) SW 233 0 min 0,000 mm 0,0 UV-I 0 W/m 8,5 C 7,6 C 12,9 km/h (3 Bft) 100,00 %
27.10.2016 05:28 9,4 C 94 % 1028,8 hPa 0,0 l/m 6,2 km/h (2 Bft) W-SW 238 0 min 0,000 mm 0,0 UV-I 0 W/m 8,5 C 9,4 C 11,3 km/h (2 Bft) 100,00 %
27.10.2016 05:29 9,4 C 94 % 1028,8 hPa 0,0 l/m 7,8 km/h (2 Bft) SW 234 0 min 0,000 mm 0,0 UV-I 0 W/m 8,5 C 8,4 C 11,3 km/h (2 Bft) 100,00 %
27.10.2016 05:30 9,4 C 94 % 1028,8 hPa 0,0 l/m 5,0 km/h (1 Bft) W-SW 240 0 min 0,000 mm 0,0 UV-I 0 W/m 8,5 C 9,4 C 6,4 km/h (2 Bft) 100,00 %
27.10.2016 05:31 9,4 C 94 % 1028,8 hPa 0,0 l/m 6,0 km/h (2 Bft) S-SW 213 0 min 0,000 mm 0,0 UV-I 0 W/m 8,5 C 9,4 C 8,0 km/h (2 Bft) 95,65 %
27.10.2016 05:32 9,4 C 94 % 1028,8 hPa 0,0 l/m 7,1 km/h (2 Bft) SW 227 0 min 0,000 mm 0,0 UV-I 0 W/m 8,5 C 8,9 C 11,3 km/h (2 Bft) 95,83 %
27.10.2016 05:33 9,4 C 94 % 1028,8 hPa 0,0 l/m 6,4 km/h (2 Bft) W-SW 244 0 min 0,000 mm 0,0 UV-I 0 W/m 8,5 C 9,4 C 9,7 km/h (2 Bft) 100,00 %
27.10.2016 05:34 9,4 C 95 % 1028,8 hPa 0,0 l/m 7,4 km/h (2 Bft) W-SW 240 0 min 0,000 mm 0,0 UV-I 0 W/m 8,6 C 8,7 C 11,3 km/h (2 Bft) 96,30 %
27.10.2016 05:35 9,4 C 95 % 1028,8 hPa 0,0 l/m 9,1 km/h (2 Bft) S-SW 205 0 min 0,000 mm 0,0 UV-I 0 W/m 8,6 C 7,5 C 11,3 km/h (2 Bft) 100,00 %
27.10.2016 05:36 9,4 C 95 % 1028,8 hPa 0,0 l/m 7,9 km/h (2 Bft) SW 223 0 min 0,000 mm 0,0 UV-I 0 W/m 8,6 C 8,3 C 12,9 km/h (3 Bft) 95,83 %
27.10.2016 05:37 9,4 C 95 % 1028,9 hPa 0,0 l/m 7,2 km/h (2 Bft) W-SW 239 0 min 0,000 mm 0,0 UV-I 0 W/m 8,6 C 8,8 C 11,3 km/h (2 Bft) 100,00 %
27.10.2016 05:38 9,4 C 95 % 1028,9 hPa 0,0 l/m 5,8 km/h (2 Bft) SW 224 0 min 0,000 mm 0,0 UV-I 0 W/m 8,6 C 9,4 C 8,0 km/h (2 Bft) 96,15 %
27.10.2016 05:39 9,3 C 95 % 1028,8 hPa 0,0 l/m 7,2 km/h (2 Bft) W-SW 244 0 min 0,000 mm 0,0 UV-I 0 W/m 8,5 C 8,7 C 9,7 km/h (2 Bft) 95,65 %
27.10.2016 05:40 9,3 C 95 % 1028,9 hPa 0,0 l/m 7,8 km/h (2 Bft) SW 221 0 min 0,000 mm 0,0 UV-I 0 W/m 8,5 C 8,3 C 11,3 km/h (2 Bft) 100,00 %
27.10.2016 05:41 9,3 C 95 % 1028,9 hPa 0,0 l/m 7,1 km/h (2 Bft) SW 229 0 min 0,000 mm 0,0 UV-I 0 W/m 8,5 C 8,8 C 9,7 km/h (2 Bft) 95,83 %
27.10.2016 05:42 9,3 C 95 % 1028,9 hPa 0,0 l/m 6,5 km/h (2 Bft) SW 227 0 min 0,000 mm 0,0 UV-I 0 W/m 8,5 C 9,3 C 9,7 km/h (2 Bft) 100,00 %
27.10.2016 05:43 9,3 C 95 % 1028,9 hPa 0,0 l/m 8,0 km/h (2 Bft) SW 215 0 min 0,000 mm 0,0 UV-I 0 W/m 8,5 C 8,1 C 9,7 km/h (2 Bft) 95,83 %
27.10.2016 05:44 9,3 C 95 % 1028,9 hPa 0,0 l/m 6,9 km/h (2 Bft) W-SW 238 0 min 0,000 mm 0,0 UV-I 0 W/m 8,5 C 8,9 C 9,7 km/h (2 Bft) 100,00 %
27.10.2016 05:45 9,3 C 95 % 1028,9 hPa 0,0 l/m 5,1 km/h (1 Bft) SW 227 0 min 0,000 mm 0,0 UV-I 0 W/m 8,5 C 9,3 C 8,0 km/h (2 Bft) 91,67 %
27.10.2016 05:46 9,3 C 95 % 1028,9 hPa 0,0 l/m 8,2 km/h (2 Bft) SW 225 0 min 0,000 mm 0,0 UV-I 0 W/m 8,5 C 8,0 C 11,3 km/h (2 Bft) 100,00 %
27.10.2016 05:47 9,3 C 95 % 1029,0 hPa 0,0 l/m 6,8 km/h (2 Bft) W-SW 239 0 min 0,000 mm 0,0 UV-I 0 W/m 8,5 C 9,0 C 8,0 km/h (2 Bft) 96,30 %
27.10.2016 05:48 9,3 C 95 % 1029,0 hPa 0,0 l/m 7,0 km/h (2 Bft) W-SW 238 0 min 0,000 mm 0,0 UV-I 0 W/m 8,5 C 8,9 C 11,3 km/h (2 Bft) 96,15 %
27.10.2016 05:49 9,3 C 95 % 1029,0 hPa 0,0 l/m 6,3 km/h (2 Bft) W-SW 240 0 min 0,000 mm 0,0 UV-I 0 W/m 8,5 C 9,3 C 8,0 km/h (2 Bft) 100,00 %
27.10.2016 05:50 9,3 C 95 % 1029,1 hPa 0,0 l/m 6,4 km/h (2 Bft) SW 236 0 min 0,000 mm 0,0 UV-I 0 W/m 8,5 C 9,3 C 9,7 km/h (2 Bft) 95,65 %
27.10.2016 05:51 9,3 C 95 % 1029,0 hPa 0,0 l/m 4,8 km/h (1 Bft) SW 235 0 min 0,000 mm 0,0 UV-I 0 W/m 8,5 C 9,3 C 8,0 km/h (2 Bft) 100,00 %
27.10.2016 05:52 9,3 C 95 % 1029,0 hPa 0,0 l/m 5,9 km/h (2 Bft) W 265 0 min 0,000 mm 0,0 UV-I 0 W/m 8,5 C 9,3 C 8,0 km/h (2 Bft) 95,65 %
27.10.2016 05:53 9,3 C 95 % 1029,1 hPa 0,0 l/m 5,0 km/h (1 Bft) W-SW 248 0 min 0,000 mm 0,0 UV-I 0 W/m 8,5 C 9,3 C 6,4 km/h (2 Bft) 100,00 %
27.10.2016 05:54 9,3 C 95 % 1029,0 hPa 0,0 l/m 6,4 km/h (2 Bft) W 262 0 min 0,000 mm 0,0 UV-I 0 W/m 8,5 C 9,3 C 11,3 km/h (2 Bft) 95,83 %
27.10.2016 05:55 9,3 C 95 % 1029,1 hPa 0,0 l/m 4,7 km/h (1 Bft) SW 225 0 min 0,000 mm 0,0 UV-I 0 W/m 8,5 C 9,3 C 8,0 km/h (2 Bft) 95,83 %
27.10.2016 05:56 9,3 C 95 % 1029,1 hPa 0,0 l/m 6,4 km/h (2 Bft) W-SW 252 0 min 0,000 mm 0,0 UV-I 0 W/m 8,5 C 9,3 C 9,7 km/h (2 Bft) 100,00 %
27.10.2016 05:57 9,3 C 95 % 1029,1 hPa 0,0 l/m 4,2 km/h (1 Bft) W-SW 254 0 min 0,000 mm 0,0 UV-I 0 W/m 8,5 C 9,3 C 4,8 km/h (1 Bft) 100,00 %
27.10.2016 05:58 9,3 C 95 % 1029,1 hPa 0,0 l/m 4,0 km/h (1 Bft) W-SW 255 0 min 0,000 mm 0,0 UV-I 0 W/m 8,5 C 9,3 C 6,4 km/h (2 Bft) 95,83 %
27.10.2016 05:59 9,3 C 95 % 1029,2 hPa 0,0 l/m 4,6 km/h (1 Bft) W-SW 256 0 min 0,000 mm 0,0 UV-I 0 W/m 8,5 C 9,3 C 6,4 km/h (2 Bft) 100,00 %
27.10.2016 06:00 9,2 C 95 % 1029,2 hPa 0,0 l/m 4,0 km/h (1 Bft) W-SW 256 0 min 0,000 mm 0,0 UV-I 0 W/m 8,4 C 9,2 C 6,4 km/h (2 Bft) 100,00 %
27.10.2016 06:01 9,2 C 95 % 1029,2 hPa 0,0 l/m 4,3 km/h (1 Bft) W-SW 250 0 min 0,000 mm 0,0 UV-I 0 W/m 8,4 C 9,2 C 6,4 km/h (2 Bft) 86,96 %
27.10.2016 06:02 9,2 C 95 % 1029,2 hPa 0,0 l/m 5,7 km/h (1 Bft) W-SW 251 0 min 0,000 mm 0,0 UV-I 0 W/m 8,4 C 9,2 C 6,4 km/h (2 Bft) 100,00 %
27.10.2016 06:03 9,2 C 95 % 1029,2 hPa 0,0 l/m 3,9 km/h (1 Bft) W-SW 251 0 min 0,000 mm 0,0 UV-I 0 W/m 8,4 C 9,2 C 4,8 km/h (1 Bft) 96,15 %
27.10.2016 06:04 9,2 C 95 % 1029,2 hPa 0,0 l/m 3,2 km/h (1 Bft) W-SW 237 0 min 0,000 mm 0,0 UV-I 0 W/m 8,4 C 9,2 C 4,8 km/h (1 Bft) 96,30 %
27.10.2016 06:05 9,2 C 95 % 1029,2 hPa 0,0 l/m 4,8 km/h (1 Bft) W-SW 247 0 min 0,000 mm 0,0 UV-I 0 W/m 8,4 C 9,2 C 6,4 km/h (2 Bft) 99,12 %
27.10.2016 06:10 9,2 C 95 % 1029,2 hPa 0,0 l/m 4,8 km/h (1 Bft) W 270 0 min 0,000 mm 0,0 UV-I 0 W/m 8,4 C 9,2 C 6,4 km/h (2 Bft) 96,49 %
27.10.2016 06:15 9,2 C 95 % 1029,2 hPa 0,0 l/m 4,8 km/h (1 Bft) SW 225 0 min 0,000 mm 0,0 UV-I 0 W/m 8,4 C 9,2 C 8,0 km/h (2 Bft) 98,25 %
27.10.2016 06:20 9,2 C 95 % 1029,2 hPa 0,0 l/m 6,4 km/h (2 Bft) SW 225 0 min 0,000 mm 0,0 UV-I 0 W/m 8,4 C 9,2 C 9,7 km/h (2 Bft) 97,37 %
27.10.2016 06:25 9,2 C 95 % 1029,2 hPa 0,0 l/m 6,4 km/h (2 Bft) W-SW 247 0 min 0,000 mm 0,0 UV-I 0 W/m 8,4 C 9,2 C 14,5 km/h (3 Bft) 97,37 %
27.10.2016 06:30 9,2 C 95 % 1029,2 hPa 0,0 l/m 8,0 km/h (2 Bft) W-SW 247 0 min 0,000 mm 0,0 UV-I 0 W/m 8,4 C 8,0 C 14,5 km/h (3 Bft) 98,25 %
27.10.2016 06:35 9,2 C 95 % 1029,3 hPa 0,0 l/m 6,4 km/h (2 Bft) W-SW 247 0 min 0,000 mm 0,0 UV-I 0 W/m 8,4 C 9,2 C 12,9 km/h (3 Bft) 97,37 %
27.10.2016 06:40 9,2 C 95 % 1029,2 hPa 0,0 l/m 8,2 km/h (2 Bft) W-SW 241 0 min 0,000 mm 0,0 UV-I 0 W/m 8,4 C 7,9 C 11,3 km/h (2 Bft) 100,00 %
27.10.2016 06:42 9,2 C 95 % 1029,2 hPa 0,0 l/m 8,5 km/h (2 Bft) SW 229 0 min 0,000 mm 0,0 UV-I 0 W/m 8,4 C 7,7 C 12,9 km/h (3 Bft) 98,00 %
27.10.2016 06:43 9,2 C 95 % 1029,2 hPa 0,0 l/m 8,7 km/h (2 Bft) W-SW 241 0 min 0,000 mm 0,0 UV-I 0 W/m 8,4 C 7,5 C 12,9 km/h (3 Bft) 100,00 %
27.10.2016 06:44 9,2 C 95 % 1029,2 hPa 0,0 l/m 8,7 km/h (2 Bft) W-SW 244 0 min 0,000 mm 0,0 UV-I 0 W/m 8,4 C 7,5 C 14,5 km/h (3 Bft) 100,00 %
27.10.2016 06:45 9,2 C 95 % 1029,2 hPa 0,0 l/m 8,4 km/h (2 Bft) W-SW 252 0 min 0,000 mm 0,0 UV-I 0 W/m 8,4 C 7,7 C 16,1 km/h (3 Bft) 100,00 %
27.10.2016 06:46 9,2 C 95 % 1029,2 hPa 0,0 l/m 12,7 km/h (3 Bft) W-SW 256 0 min 0,000 mm 0,0 UV-I 0 W/m 8,4 C 5,2 C 16,1 km/h (3 Bft) 96,15 %
27.10.2016 06:47 9,2 C 95 % 1029,2 hPa 0,0 l/m 7,3 km/h (2 Bft) W-SW 238 0 min 0,000 mm 0,0 UV-I 0 W/m 8,4 C 8,5 C 11,3 km/h (2 Bft) 100,00 %
27.10.2016 06:48 9,2 C 95 % 1029,2 hPa 0,0 l/m 9,3 km/h (2 Bft) W-SW 239 0 min 0,000 mm 0,0 UV-I 0 W/m 8,4 C 7,1 C 14,5 km/h (3 Bft) 96,15 %
27.10.2016 06:49 9,3 C 95 % 1029,2 hPa 0,0 l/m 10,4 km/h (2 Bft) W 281 0 min 0,000 mm 0,0 UV-I 0 W/m 8,5 C 6,6 C 12,9 km/h (3 Bft) 100,00 %
27.10.2016 06:50 9,3 C 95 % 1029,2 hPa 0,0 l/m 7,6 km/h (2 Bft) SW 236 0 min 0,000 mm 0,0 UV-I 0 W/m 8,5 C 8,4 C 11,3 km/h (2 Bft) 100,00 %
27.10.2016 06:51 9,2 C 95 % 1029,2 hPa 0,0 l/m 7,4 km/h (2 Bft) SW 236 0 min 0,000 mm 0,0 UV-I 0 W/m 8,4 C 8,4 C 11,3 km/h (2 Bft) 100,00 %
27.10.2016 06:53 9,2 C 95 % 1029,2 hPa 0,0 l/m 6,7 km/h (2 Bft) W-SW 255 0 min 0,000 mm 0,0 UV-I 0 W/m 8,4 C 9,0 C 11,3 km/h (2 Bft) 100,00 %
27.10.2016 06:54 9,2 C 95 % 1029,2 hPa 0,0 l/m 6,3 km/h (2 Bft) W-SW 240 0 min 0,000 mm 0,0 UV-I 0 W/m 8,4 C 9,2 C 9,7 km/h (2 Bft) 100,00 %
27.10.2016 06:55 9,2 C 95 % 1029,2 hPa 0,0 l/m 4,9 km/h (1 Bft) W-SW 242 0 min 0,000 mm 0,0 UV-I 0 W/m 8,4 C 9,2 C 6,4 km/h (2 Bft) 95,65 %
27.10.2016 06:56 9,2 C 95 % 1029,2 hPa 0,0 l/m 6,1 km/h (2 Bft) W-SW 239 0 min 0,000 mm 0,0 UV-I 0 W/m 8,4 C 9,2 C 11,3 km/h (2 Bft) 100,00 %
27.10.2016 06:57 9,2 C 95 % 1029,2 hPa 0,0 l/m 6,0 km/h (2 Bft) W-SW 252 0 min 0,000 mm 0,0 UV-I 0 W/m 8,4 C 9,2 C 8,0 km/h (2 Bft) 100,00 %
27.10.2016 06:58 9,2 C 95 % 1029,3 hPa 0,0 l/m 7,4 km/h (2 Bft) SW 232 0 min 0,000 mm 0,0 UV-I 0 W/m 8,4 C 8,4 C 11,3 km/h (2 Bft) 100,00 %
27.10.2016 06:59 9,2 C 95 % 1029,3 hPa 0,0 l/m 7,5 km/h (2 Bft) W 259 0 min 0,000 mm 0,0 UV-I 0 W/m 8,4 C 8,4 C 9,7 km/h (2 Bft) 100,00 %
27.10.2016 07:00 9,2 C 95 % 1029,3 hPa 0,0 l/m 4,3 km/h (1 Bft) W-SW 242 0 min 0,000 mm 0,0 UV-I 0 W/m 8,4 C 9,2 C 6,4 km/h (2 Bft) 100,00 %
27.10.2016 07:01 9,2 C 95 % 1029,2 hPa 0,0 l/m 6,6 km/h (2 Bft) SW 236 0 min 0,000 mm 0,0 UV-I 0 W/m 8,4 C 9,1 C 8,0 km/h (2 Bft) 96,15 %
27.10.2016 07:02 9,2 C 95 % 1029,2 hPa 0,0 l/m 6,5 km/h (2 Bft) SW 234 0 min 0,000 mm 0,0 UV-I 0 W/m 8,4 C 9,2 C 9,7 km/h (2 Bft) 100,00 %
27.10.2016 07:03 9,2 C 95 % 1029,3 hPa 0,0 l/m 9,4 km/h (2 Bft) SW 232 0 min 0,000 mm 0,0 UV-I 0 W/m 8,4 C 7,1 C 12,9 km/h (3 Bft) 100,00 %
27.10.2016 07:04 9,2 C 95 % 1029,3 hPa 0,0 l/m 8,2 km/h (2 Bft) SW 227 0 min 0,000 mm 0,0 UV-I 0 W/m 8,4 C 7,9 C 11,3 km/h (2 Bft) 100,00 %
27.10.2016 07:05 9,2 C 95 % 1029,2 hPa 0,0 l/m 7,6 km/h (2 Bft) SW 229 0 min 0,000 mm 0,0 UV-I 0 W/m 8,4 C 8,3 C 11,3 km/h (2 Bft) 100,00 %
27.10.2016 07:06 9,2 C 95 % 1029,2 hPa 0,0 l/m 9,1 km/h (2 Bft) W-SW 248 0 min 0,000 mm 0,0 UV-I 0 W/m 8,4 C 7,3 C 16,1 km/h (3 Bft) 100,00 %
27.10.2016 07:07 9,2 C 95 % 1029,2 hPa 0,0 l/m 8,6 km/h (2 Bft) SW 217 0 min 0,000 mm 0,0 UV-I 0 W/m 8,4 C 7,6 C 14,5 km/h (3 Bft) 100,00 %
27.10.2016 07:08 9,2 C 95 % 1029,2 hPa 0,0 l/m 7,8 km/h (2 Bft) W-SW 250 0 min 0,000 mm 0,0 UV-I 0 W/m 8,4 C 8,2 C 12,9 km/h (3 Bft) 95,65 %
27.10.2016 07:09 9,2 C 95 % 1029,2 hPa 0,0 l/m 6,8 km/h (2 Bft) W-SW 238 0 min 0,000 mm 0,0 UV-I 0 W/m 8,4 C 8,9 C 8,0 km/h (2 Bft) 100,00 %
27.10.2016 07:10 9,2 C 95 % 1029,3 hPa 0,0 l/m 6,8 km/h (2 Bft) W-SW 248 0 min 0,000 mm 0,0 UV-I 0 W/m 8,4 C 8,9 C 8,0 km/h (2 Bft) 96,15 %
27.10.2016 07:11 9,2 C 95 % 1029,3 hPa 0,0 l/m 7,1 km/h (2 Bft) SW 233 0 min 0,000 mm 0,0 UV-I 0 W/m 8,4 C 8,7 C 9,7 km/h (2 Bft) 96,55 %
27.10.2016 07:12 9,2 C 95 % 1029,3 hPa 0,0 l/m 7,0 km/h (2 Bft) W-SW 250 0 min 0,000 mm 0,0 UV-I 0 W/m 8,4 C 8,8 C 11,3 km/h (2 Bft) 95,83 %
27.10.2016 07:13 9,2 C 95 % 1029,3 hPa 0,0 l/m 9,2 km/h (2 Bft) W-SW 238 0 min 0,000 mm 0,0 UV-I 0 W/m 8,4 C 7,2 C 12,9 km/h (3 Bft) 100,00 %
27.10.2016 07:14 9,2 C 95 % 1029,3 hPa 0,0 l/m 8,3 km/h (2 Bft) W-SW 242 0 min 0,000 mm 0,0 UV-I 0 W/m 8,4 C 7,8 C 12,9 km/h (3 Bft) 100,00 %
27.10.2016 07:15 9,2 C 95 % 1029,4 hPa 0,0 l/m 8,1 km/h (2 Bft) W-SW 242 0 min 0,000 mm 0,0 UV-I 0 W/m 8,4 C 7,9 C 11,3 km/h (2 Bft) 100,00 %
27.10.2016 07:16 9,2 C 95 % 1029,4 hPa 0,0 l/m 7,2 km/h (2 Bft) W-SW 244 0 min 0,000 mm 0,0 UV-I 0 W/m 8,4 C 8,6 C 11,3 km/h (2 Bft) 100,00 %
27.10.2016 07:17 9,2 C 95 % 1029,4 hPa 0,0 l/m 8,0 km/h (2 Bft) W-SW 238 0 min 0,000 mm 0,0 UV-I 0 W/m 8,4 C 8,0 C 12,9 km/h (3 Bft) 100,00 %
27.10.2016 07:18 9,2 C 95 % 1029,4 hPa 0,0 l/m 8,9 km/h (2 Bft) W-SW 255 0 min 0,000 mm 0,0 UV-I 0 W/m 8,4 C 7,4 C 12,9 km/h (3 Bft) 100,00 %
27.10.2016 07:19 9,2 C 95 % 1029,4 hPa 0,0 l/m 8,9 km/h (2 Bft) SW 226 0 min 0,000 mm 0,0 UV-I 0 W/m 8,4 C 7,4 C 11,3 km/h (2 Bft) 100,00 %
27.10.2016 07:20 9,2 C 95 % 1029,4 hPa 0,0 l/m 9,0 km/h (2 Bft) W-SW 245 0 min 0,000 mm 0,0 UV-I 0 W/m 8,4 C 7,3 C 12,9 km/h (3 Bft) 100,00 %
27.10.2016 07:21 9,1 C 95 % 1029,4 hPa 0,0 l/m 7,8 km/h (2 Bft) W-SW 253 0 min 0,000 mm 0,0 UV-I 0 W/m 8,3 C 8,1 C 11,3 km/h (2 Bft) 95,83 %
27.10.2016 07:22 9,2 C 95 % 1029,4 hPa 0,0 l/m 7,4 km/h (2 Bft) W-SW 242 0 min 0,000 mm 0,0 UV-I 0 W/m 8,4 C 8,4 C 11,3 km/h (2 Bft) 100,00 %
27.10.2016 07:23 9,2 C 95 % 1029,5 hPa 0,0 l/m 6,3 km/h (2 Bft) W-SW 242 0 min 0,000 mm 0,0 UV-I 0 W/m 8,4 C 9,2 C 8,0 km/h (2 Bft) 100,00 %
27.10.2016 07:24 9,2 C 95 % 1029,4 hPa 0,0 l/m 6,0 km/h (2 Bft) W-SW 254 0 min 0,000 mm 0,0 UV-I 0 W/m 8,4 C 9,2 C 8,0 km/h (2 Bft) 100,00 %
27.10.2016 07:25 9,1 C 95 % 1029,4 hPa 0,0 l/m 6,4 km/h (2 Bft) W-SW 250 0 min 0,000 mm 0,0 UV-I 0 W/m 8,3 C 9,1 C 8,0 km/h (2 Bft) 100,00 %
27.10.2016 07:26 9,2 C 95 % 1029,5 hPa 0,0 l/m 5,9 km/h (2 Bft) W-SW 238 0 min 0,000 mm 0,0 UV-I 0 W/m 8,4 C 9,2 C 8,0 km/h (2 Bft) 100,00 %
27.10.2016 07:28 9,1 C 95 % 1029,5 hPa 0,0 l/m 5,9 km/h (2 Bft) SW 225 0 min 0,000 mm 0,0 UV-I 0 W/m 8,3 C 9,1 C 11,3 km/h (2 Bft) 100,00 %
27.10.2016 07:29 9,1 C 95 % 1029,5 hPa 0,0 l/m 6,4 km/h (2 Bft) W-SW 248 0 min 0,000 mm 0,0 UV-I 0 W/m 8,3 C 9,1 C 9,7 km/h (2 Bft) 96,67 %
27.10.2016 07:30 9,2 C 95 % 1029,5 hPa 0,0 l/m 6,8 km/h (2 Bft) SW 229 0 min 0,000 mm 0,0 UV-I 0 W/m 8,4 C 8,9 C 9,7 km/h (2 Bft) 100,00 %
27.10.2016 07:33 9,2 C 95 % 1029,5 hPa 0,0 l/m 8,7 km/h (2 Bft) W-SW 238 0 min 0,000 mm 0,0 UV-I 0 W/m 8,4 C 7,5 C 11,3 km/h (2 Bft) 100,00 %
27.10.2016 07:35 9,2 C 95 % 1029,6 hPa 0,0 l/m 6,9 km/h (2 Bft) SW 221 0 min 0,000 mm 0,0 UV-I 0 W/m 8,4 C 8,8 C 11,3 km/h (2 Bft) 98,00 %
27.10.2016 07:36 9,2 C 95 % 1029,5 hPa 0,0 l/m 6,6 km/h (2 Bft) SW 231 0 min 0,000 mm 0,0 UV-I 0 W/m 8,4 C 9,1 C 8,0 km/h (2 Bft) 98,71 %
27.10.2016 07:37 9,2 C 95 % 1029,5 hPa 0,0 l/m 8,2 km/h (2 Bft) SW 232 0 min 0,000 mm 0,0 UV-I 0 W/m 8,4 C 7,9 C 9,7 km/h (2 Bft) 97,73 %
27.10.2016 07:40 9,2 C 95 % 1029,6 hPa 0,0 l/m 9,2 km/h (2 Bft) W-SW 237 0 min 0,000 mm 0,0 UV-I 0 W/m 8,4 C 7,2 C 11,3 km/h (2 Bft) 100,00 %
27.10.2016 07:42 9,2 C 95 % 1029,6 hPa 0,0 l/m 7,8 km/h (2 Bft) SW 229 0 min 0,000 mm 0,0 UV-I 2 W/m 8,4 C 8,2 C 11,3 km/h (2 Bft) 95,12 %
27.10.2016 07:43 9,2 C 95 % 1029,6 hPa 0,0 l/m 7,3 km/h (2 Bft) SW 217 0 min 0,000 mm 0,0 UV-I 5 W/m 8,4 C 8,5 C 9,7 km/h (2 Bft) 96,15 %
27.10.2016 07:44 9,2 C 95 % 1029,6 hPa 0,0 l/m 6,7 km/h (2 Bft) SW 235 0 min 0,000 mm 0,0 UV-I 5 W/m 8,4 C 9,0 C 8,0 km/h (2 Bft) 100,00 %
27.10.2016 07:45 9,2 C 95 % 1029,6 hPa 0,0 l/m 8,0 km/h (2 Bft) SW 225 0 min 0,000 mm 0,0 UV-I 5 W/m 8,4 C 8,0 C 11,3 km/h (2 Bft) 100,00 %
27.10.2016 07:50 9,2 C 95 % 1029,7 hPa 0,0 l/m 6,4 km/h (2 Bft) SW 225 0 min 0,000 mm 0,0 UV-I 6 W/m 8,4 C 9,2 C 8,0 km/h (2 Bft) 100,00 %
27.10.2016 07:55 9,2 C 95 % 1029,7 hPa 0,0 l/m 6,4 km/h (2 Bft) SW 225 0 min 0,000 mm 0,0 UV-I 7 W/m 8,4 C 9,2 C 9,7 km/h (2 Bft) 100,00 %
27.10.2016 08:00 9,2 C 95 % 1029,8 hPa 0,0 l/m 6,4 km/h (2 Bft) SW 225 0 min 0,000 mm 0,0 UV-I 9 W/m 8,4 C 9,2 C 9,7 km/h (2 Bft) 100,00 %
27.10.2016 08:06 9,2 C 96 % 1029,9 hPa 0,0 l/m 7,2 km/h (2 Bft) SW 227 0 min 0,000 mm 0,0 UV-I 9 W/m 8,6 C 8,6 C 9,7 km/h (2 Bft) 100,00 %
27.10.2016 08:08 9,2 C 96 % 1030,0 hPa 0,0 l/m 5,0 km/h (1 Bft) W-SW 244 0 min 0,000 mm 0,0 UV-I 9 W/m 8,6 C 9,2 C 6,4 km/h (2 Bft) 97,18 %
27.10.2016 08:10 9,2 C 96 % 1030,0 hPa 0,0 l/m 4,6 km/h (1 Bft) W-SW 237 0 min 0,000 mm 0,0 UV-I 10 W/m 8,6 C 9,2 C 6,4 km/h (2 Bft) 98,00 %
27.10.2016 08:12 9,2 C 95 % 1030,0 hPa 0,0 l/m 3,8 km/h (1 Bft) W-SW 242 0 min 0,000 mm 0,0 UV-I 11 W/m 8,4 C 9,2 C 6,4 km/h (2 Bft) 100,00 %
27.10.2016 08:14 9,2 C 95 % 1030,0 hPa 0,0 l/m 4,7 km/h (1 Bft) SW 222 0 min 0,000 mm 0,0 UV-I 12 W/m 8,4 C 9,2 C 6,4 km/h (2 Bft) 100,00 %
27.10.2016 08:16 9,2 C 95 % 1030,1 hPa 0,0 l/m 4,9 km/h (1 Bft) W-SW 240 0 min 0,000 mm 0,0 UV-I 13 W/m 8,4 C 9,2 C 9,7 km/h (2 Bft) 100,00 %
27.10.2016 08:18 9,2 C 95 % 1030,1 hPa 0,0 l/m 5,7 km/h (1 Bft) W-SW 246 0 min 0,000 mm 0,0 UV-I 15 W/m 8,4 C 9,2 C 11,3 km/h (2 Bft) 100,00 %
27.10.2016 08:20 9,2 C 95 % 1030,1 hPa 0,0 l/m 6,7 km/h (2 Bft) W-SW 247 0 min 0,000 mm 0,0 UV-I 16 W/m 8,4 C 9,0 C 12,9 km/h (3 Bft) 95,74 %
27.10.2016 08:22 9,3 C 95 % 1030,1 hPa 0,0 l/m 6,0 km/h (2 Bft) W-SW 254 0 min 0,000 mm 0,0 UV-I 17 W/m 8,5 C 9,3 C 9,7 km/h (2 Bft) 100,00 %
27.10.2016 08:24 9,3 C 95 % 1030,2 hPa 0,0 l/m 5,0 km/h (1 Bft) SW 227 0 min 0,000 mm 0,0 UV-I 18 W/m 8,5 C 9,3 C 8,0 km/h (2 Bft) 100,00 %
27.10.2016 08:26 9,3 C 95 % 1030,2 hPa 0,0 l/m 6,2 km/h (2 Bft) W-SW 250 0 min 0,000 mm 0,0 UV-I 18 W/m 8,5 C 9,3 C 9,7 km/h (2 Bft) 100,00 %
27.10.2016 08:28 9,3 C 95 % 1030,2 hPa 0,0 l/m 6,5 km/h (2 Bft) W 266 0 min 0,000 mm 0,0 UV-I 18 W/m 8,5 C 9,3 C 9,7 km/h (2 Bft) 100,00 %
27.10.2016 08:30 9,3 C 95 % 1030,3 hPa 0,0 l/m 7,4 km/h (2 Bft) W-SW 244 0 min 0,000 mm 0,0 UV-I 16 W/m 8,5 C 8,6 C 12,9 km/h (3 Bft) 100,00 %
27.10.2016 08:32 9,3 C 95 % 1030,3 hPa 0,0 l/m 6,8 km/h (2 Bft) W-SW 246 0 min 0,000 mm 0,0 UV-I 16 W/m 8,5 C 9,0 C 11,3 km/h (2 Bft) 100,00 %
27.10.2016 08:34 9,3 C 95 % 1030,4 hPa 0,0 l/m 6,3 km/h (2 Bft) W-SW 241 0 min 0,000 mm 0,0 UV-I 15 W/m 8,5 C 9,3 C 11,3 km/h (2 Bft) 100,00 %
27.10.2016 08:36 9,3 C 95 % 1030,5 hPa 0,0 l/m 8,4 km/h (2 Bft) W 265 0 min 0,000 mm 0,0 UV-I 12 W/m 8,5 C 7,8 C 12,9 km/h (3 Bft) 100,00 %
27.10.2016 08:38 9,3 C 95 % 1030,5 hPa 0,0 l/m 7,1 km/h (2 Bft) W 261 0 min 0,000 mm 0,0 UV-I 11 W/m 8,5 C 8,8 C 11,3 km/h (2 Bft) 100,00 %
27.10.2016 08:40 9,3 C 95 % 1030,5 hPa 0,0 l/m 7,6 km/h (2 Bft) W-SW 254 0 min 0,000 mm 0,0 UV-I 11 W/m 8,5 C 8,4 C 11,3 km/h (2 Bft) 100,00 %
27.10.2016 08:42 9,3 C 95 % 1030,6 hPa 0,0 l/m 5,3 km/h (1 Bft) W 266 0 min 0,000 mm 0,0 UV-I 11 W/m 8,5 C 9,3 C 6,4 km/h (2 Bft) 100,00 %
27.10.2016 08:44 9,3 C 95 % 1030,6 hPa 0,0 l/m 5,7 km/h (1 Bft) W-SW 246 0 min 0,000 mm 0,0 UV-I 13 W/m 8,5 C 9,3 C 8,0 km/h (2 Bft) 98,21 %
27.10.2016 08:46 9,3 C 95 % 1030,7 hPa 0,0 l/m 7,1 km/h (2 Bft) W-SW 246 0 min 0,000 mm 0,0 UV-I 16 W/m 8,5 C 8,8 C 11,3 km/h (2 Bft) 100,00 %
27.10.2016 08:48 9,3 C 95 % 1030,7 hPa 0,0 l/m 7,4 km/h (2 Bft) W-SW 256 0 min 0,000 mm 0,0 UV-I 19 W/m 8,5 C 8,6 C 12,9 km/h (3 Bft) 98,00 %
27.10.2016 08:50 9,3 C 95 % 1030,7 hPa 0,0 l/m 6,0 km/h (2 Bft) W-SW 253 0 min 0,000 mm 0,0 UV-I 23 W/m 8,5 C 9,3 C 9,7 km/h (2 Bft) 98,00 %
27.10.2016 08:51 9,3 C 95 % 1030,7 hPa 0,0 l/m 6,7 km/h (2 Bft) W-SW 248 0 min 0,000 mm 0,0 UV-I 29 W/m 8,5 C 9,1 C 12,9 km/h (3 Bft) 100,00 %
27.10.2016 08:52 9,3 C 95 % 1030,7 hPa 0,0 l/m 5,4 km/h (1 Bft) W-SW 245 0 min 0,000 mm 0,0 UV-I 33 W/m 8,5 C 9,3 C 11,3 km/h (2 Bft) 100,00 %
27.10.2016 08:53 9,3 C 95 % 1030,7 hPa 0,0 l/m 5,7 km/h (1 Bft) W 265 0 min 0,000 mm 0,0 UV-I 38 W/m 8,5 C 9,3 C 9,7 km/h (2 Bft) 100,00 %
27.10.2016 08:54 9,3 C 95 % 1030,7 hPa 0,0 l/m 5,7 km/h (1 Bft) W-SW 250 0 min 0,000 mm 0,0 UV-I 41 W/m 8,5 C 9,3 C 8,0 km/h (2 Bft) 100,00 %
27.10.2016 08:55 9,3 C 95 % 1030,7 hPa 0,0 l/m 6,2 km/h (2 Bft) W-SW 246 0 min 0,000 mm 0,0 UV-I 46 W/m 8,5 C 9,3 C 8,0 km/h (2 Bft) 100,00 %
27.10.2016 08:56 9,3 C 95 % 1030,7 hPa 0,0 l/m 5,1 km/h (1 Bft) W-SW 238 0 min 0,000 mm 0,0 UV-I 47 W/m 8,5 C 9,3 C 6,4 km/h (2 Bft) 95,83 %
27.10.2016 08:57 9,3 C 94 % 1030,7 hPa 0,0 l/m 7,1 km/h (2 Bft) W-SW 254 0 min 0,000 mm 0,0 UV-I 50 W/m 8,4 C 8,8 C 11,3 km/h (2 Bft) 100,00 %
27.10.2016 08:58 9,3 C 94 % 1030,8 hPa 0,0 l/m 9,2 km/h (2 Bft) W-SW 248 0 min 0,000 mm 0,0 UV-I 53 W/m 8,4 C 7,3 C 11,3 km/h (2 Bft) 100,00 %
27.10.2016 08:59 9,3 C 94 % 1030,8 hPa 0,0 l/m 7,8 km/h (2 Bft) SW 217 0 min 0,000 mm 0,0 UV-I 56 W/m 8,4 C 8,3 C 12,9 km/h (3 Bft) 100,00 %
27.10.2016 09:00 9,3 C 94 % 1030,8 hPa 0,0 l/m 8,0 km/h (2 Bft) SW 236 0 min 0,000 mm 0,0 UV-I 59 W/m 8,4 C 8,1 C 11,3 km/h (2 Bft) 100,00 %
27.10.2016 09:01 9,3 C 94 % 1030,7 hPa 0,0 l/m 6,8 km/h (2 Bft) W-SW 257 0 min 0,000 mm 0,0 UV-I 64 W/m 8,4 C 9,0 C 8,0 km/h (2 Bft) 100,00 %
27.10.2016 09:02 9,3 C 94 % 1030,8 hPa 0,0 l/m 5,6 km/h (1 Bft) SW 234 0 min 0,000 mm 0,0 UV-I 69 W/m 8,4 C 9,3 C 6,4 km/h (2 Bft) 98,66 %
27.10.2016 09:03 9,3 C 94 % 1030,8 hPa 0,0 l/m 6,4 km/h (2 Bft) W-SW 246 0 min 0,000 mm 0,0 UV-I 73 W/m 8,4 C 9,3 C 9,7 km/h (2 Bft) 100,00 %
27.10.2016 09:04 9,3 C 94 % 1030,8 hPa 0,0 l/m 4,0 km/h (1 Bft) W-SW 246 0 min 0,000 mm 0,0 UV-I 74 W/m 8,4 C 9,3 C 4,8 km/h (1 Bft) 96,15 %
27.10.2016 09:05 9,3 C 94 % 1030,8 hPa 0,0 l/m 4,4 km/h (1 Bft) W-SW 258 0 min 0,000 mm 0,0 UV-I 75 W/m 8,4 C 9,3 C 6,4 km/h (2 Bft) 100,00 %
27.10.2016 09:06 9,3 C 94 % 1030,8 hPa 0,0 l/m 6,9 km/h (2 Bft) W-SW 252 0 min 0,000 mm 0,0 UV-I 76 W/m 8,4 C 8,9 C 12,9 km/h (3 Bft) 100,00 %
27.10.2016 09:07 9,4 C 94 % 1030,8 hPa 0,0 l/m 6,7 km/h (2 Bft) SW 223 0 min 0,000 mm 0,0 UV-I 77 W/m 8,5 C 9,2 C 11,3 km/h (2 Bft) 100,00 %
27.10.2016 09:08 9,3 C 94 % 1030,9 hPa 0,0 l/m 7,4 km/h (2 Bft) W-SW 241 0 min 0,000 mm 0,0 UV-I 76 W/m 8,4 C 8,6 C 11,3 km/h (2 Bft) 100,00 %
27.10.2016 09:09 9,4 C 94 % 1030,9 hPa 0,0 l/m 8,2 km/h (2 Bft) W-SW 246 0 min 0,000 mm 0,0 UV-I 73 W/m 8,5 C 8,1 C 14,5 km/h (3 Bft) 100,00 %
27.10.2016 09:10 9,4 C 94 % 1030,9 hPa 0,0 l/m 10,8 km/h (2 Bft) W-SW 256 0 min 0,000 mm 0,0 UV-I 71 W/m 8,5 C 6,5 C 12,9 km/h (3 Bft) 100,00 %
27.10.2016 09:11 9,4 C 94 % 1030,9 hPa 0,0 l/m 6,4 km/h (2 Bft) SW 234 0 min 0,000 mm 0,0 UV-I 70 W/m 8,5 C 9,4 C 9,7 km/h (2 Bft) 100,00 %
27.10.2016 09:12 9,4 C 94 % 1030,9 hPa 0,0 l/m 6,3 km/h (2 Bft) W-SW 244 0 min 0,000 mm 0,0 UV-I 69 W/m 8,5 C 9,4 C 9,7 km/h (2 Bft) 100,00 %
27.10.2016 09:13 9,4 C 94 % 1031,0 hPa 0,0 l/m 6,4 km/h (2 Bft) W-SW 253 0 min 0,000 mm 0,0 UV-I 69 W/m 8,5 C 9,4 C 8,0 km/h (2 Bft) 100,00 %
27.10.2016 09:14 9,4 C 93 % 1031,0 hPa 0,0 l/m 13,4 km/h (3 Bft) SW 218 0 min 0,000 mm 0,0 UV-I 69 W/m 8,3 C 5,1 C 16,1 km/h (3 Bft) 100,00 %
27.10.2016 09:15 9,4 C 93 % 1031,0 hPa 0,0 l/m 14,0 km/h (3 Bft) W-SW 247 0 min 0,000 mm 0,0 UV-I 69 W/m 8,3 C 4,9 C 20,9 km/h (4 Bft) 100,00 %
27.10.2016 09:16 9,4 C 93 % 1031,0 hPa 0,0 l/m 10,5 km/h (2 Bft) SW 235 0 min 0,000 mm 0,0 UV-I 70 W/m 8,3 C 6,6 C 16,1 km/h (3 Bft) 100,00 %
27.10.2016 09:17 9,4 C 92 % 1031,0 hPa 0,0 l/m 10,6 km/h (2 Bft) W-SW 246 0 min 0,000 mm 0,0 UV-I 73 W/m 8,2 C 6,6 C 16,1 km/h (3 Bft) 100,00 %
27.10.2016 09:18 9,5 C 92 % 1031,0 hPa 0,0 l/m 10,3 km/h (2 Bft) SW 227 0 min 0,000 mm 0,0 UV-I 74 W/m 8,3 C 6,9 C 16,1 km/h (3 Bft) 100,00 %
27.10.2016 09:19 9,5 C 92 % 1031,0 hPa 0,0 l/m 9,1 km/h (2 Bft) W-SW 242 0 min 0,000 mm 0,0 UV-I 72 W/m 8,3 C 7,6 C 14,5 km/h (3 Bft) 100,00 %
27.10.2016 09:20 9,5 C 92 % 1031,0 hPa 0,0 l/m 7,2 km/h (2 Bft) W-SW 246 0 min 0,000 mm 0,0 UV-I 70 W/m 8,3 C 8,9 C 11,3 km/h (2 Bft) 96,15 %
27.10.2016 09:21 9,6 C 92 % 1031,0 hPa 0,0 l/m 8,4 km/h (2 Bft) SW 233 0 min 0,000 mm 0,0 UV-I 70 W/m 8,4 C 8,2 C 12,9 km/h (3 Bft) 100,00 %
27.10.2016 09:22 9,6 C 92 % 1031,0 hPa 0,0 l/m 9,5 km/h (2 Bft) W-SW 241 0 min 0,000 mm 0,0 UV-I 71 W/m 8,4 C 7,5 C 14,5 km/h (3 Bft) 100,00 %
27.10.2016 09:23 9,6 C 92 % 1031,0 hPa 0,0 l/m 11,4 km/h (2 Bft) W-SW 250 0 min 0,000 mm 0,0 UV-I 70 W/m 8,4 C 6,4 C 14,5 km/h (3 Bft) 100,00 %
27.10.2016 09:24 9,6 C 92 % 1031,1 hPa 0,0 l/m 8,7 km/h (2 Bft) W 259 0 min 0,000 mm 0,0 UV-I 69 W/m 8,4 C 8,0 C 11,3 km/h (2 Bft) 100,00 %
27.10.2016 09:25 9,6 C 91 % 1031,0 hPa 0,0 l/m 8,3 km/h (2 Bft) W 260 0 min 0,000 mm 0,0 UV-I 67 W/m 8,2 C 8,2 C 16,1 km/h (3 Bft) 100,00 %
27.10.2016 09:26 9,6 C 91 % 1031,1 hPa 0,0 l/m 10,9 km/h (2 Bft) W-SW 250 0 min 0,000 mm 0,0 UV-I 66 W/m 8,2 C 6,6 C 14,5 km/h (3 Bft) 100,00 %
27.10.2016 09:27 9,6 C 91 % 1031,1 hPa 0,0 l/m 11,1 km/h (2 Bft) W-NW 294 0 min 0,000 mm 0,0 UV-I 61 W/m 8,2 C 6,5 C 16,1 km/h (3 Bft) 100,00 %
27.10.2016 09:28 9,6 C 91 % 1031,1 hPa 0,0 l/m 9,0 km/h (2 Bft) W 259 0 min 0,000 mm 0,0 UV-I 54 W/m 8,2 C 7,8 C 12,9 km/h (3 Bft) 100,00 %
27.10.2016 09:29 9,6 C 91 % 1031,1 hPa 0,0 l/m 9,7 km/h (2 Bft) W 268 0 min 0,000 mm 0,0 UV-I 51 W/m 8,2 C 7,3 C 12,9 km/h (3 Bft) 100,00 %
27.10.2016 09:30 9,6 C 90 % 1031,1 hPa 0,0 l/m 8,5 km/h (2 Bft) SW 232 0 min 0,000 mm 0,0 UV-I 53 W/m 8,0 C 8,1 C 12,9 km/h (3 Bft) 100,00 %
27.10.2016 09:31 9,5 C 90 % 1031,1 hPa 0,0 l/m 8,8 km/h (2 Bft) W 281 0 min 0,000 mm 0,0 UV-I 54 W/m 7,9 C 7,8 C 11,3 km/h (2 Bft) 100,00 %
27.10.2016 09:32 9,5 C 90 % 1031,1 hPa 0,0 l/m 7,0 km/h (2 Bft) W-SW 258 0 min 0,000 mm 0,0 UV-I 52 W/m 7,9 C 9,1 C 11,3 km/h (2 Bft) 100,00 %
27.10.2016 09:33 9,5 C 90 % 1031,1 hPa 0,0 l/m 11,2 km/h (2 Bft) W-SW 244 0 min 0,000 mm 0,0 UV-I 50 W/m 7,9 C 6,4 C 19,3 km/h (3 Bft) 100,00 %
27.10.2016 09:34 9,5 C 89 % 1031,1 hPa 0,0 l/m 11,5 km/h (2 Bft) W 260 0 min 0,000 mm 0,0 UV-I 44 W/m 7,8 C 6,2 C 16,1 km/h (3 Bft) 100,00 %
27.10.2016 09:35 9,5 C 89 % 1031,1 hPa 0,0 l/m 10,1 km/h (2 Bft) W-SW 253 0 min 0,000 mm 0,0 UV-I 38 W/m 7,8 C 7,0 C 16,1 km/h (3 Bft) 91,30 %
27.10.2016 09:36 9,5 C 89 % 1031,1 hPa 0,0 l/m 9,5 km/h (2 Bft) W-SW 244 0 min 0,000 mm 0,0 UV-I 33 W/m 7,8 C 7,3 C 14,5 km/h (3 Bft) 100,00 %
27.10.2016 09:37 9,4 C 89 % 1031,1 hPa 0,0 l/m 10,2 km/h (2 Bft) W-SW 257 0 min 0,000 mm 0,0 UV-I 29 W/m 7,7 C 6,8 C 16,1 km/h (3 Bft) 100,00 %
27.10.2016 09:38 9,4 C 89 % 1031,1 hPa 0,0 l/m 12,2 km/h (2 Bft) W 261 0 min 0,000 mm 0,0 UV-I 26 W/m 7,7 C 5,7 C 14,5 km/h (3 Bft) 100,00 %
27.10.2016 09:39 9,4 C 89 % 1031,1 hPa 0,0 l/m 8,9 km/h (2 Bft) W-SW 250 0 min 0,000 mm 0,0 UV-I 26 W/m 7,7 C 7,6 C 12,9 km/h (3 Bft) 100,00 %
27.10.2016 09:40 9,4 C 89 % 1031,1 hPa 0,0 l/m 7,5 km/h (2 Bft) W-SW 248 0 min 0,000 mm 0,0 UV-I 27 W/m 7,7 C 8,6 C 12,9 km/h (3 Bft) 95,65 %
27.10.2016 09:41 9,4 C 89 % 1031,1 hPa 0,0 l/m 6,0 km/h (2 Bft) W 266 0 min 0,000 mm 0,0 UV-I 32 W/m 7,7 C 9,4 C 9,7 km/h (2 Bft) 100,00 %
27.10.2016 09:42 9,4 C 89 % 1031,1 hPa 0,0 l/m 9,3 km/h (2 Bft) W-SW 256 0 min 0,000 mm 0,0 UV-I 39 W/m 7,7 C 7,4 C 11,3 km/h (2 Bft) 95,65 %
27.10.2016 09:43 9,3 C 89 % 1031,2 hPa 0,0 l/m 10,5 km/h (2 Bft) W 260 0 min 0,000 mm 0,0 UV-I 46 W/m 7,6 C 6,5 C 14,5 km/h (3 Bft) 100,00 %
27.10.2016 09:44 9,3 C 89 % 1031,3 hPa 0,0 l/m 14,0 km/h (3 Bft) W-SW 257 0 min 0,000 mm 0,0 UV-I 50 W/m 7,6 C 4,7 C 17,7 km/h (3 Bft) 96,15 %
27.10.2016 09:45 9,3 C 89 % 1031,2 hPa 0,0 l/m 12,3 km/h (3 Bft) W-SW 250 0 min 0,000 mm 0,0 UV-I 53 W/m 7,6 C 5,6 C 16,1 km/h (3 Bft) 96,30 %
27.10.2016 09:46 9,3 C 89 % 1031,2 hPa 0,0 l/m 11,3 km/h (2 Bft) W 281 0 min 0,000 mm 0,0 UV-I 54 W/m 7,6 C 6,1 C 16,1 km/h (3 Bft) 96,88 %
27.10.2016 09:47 9,3 C 89 % 1031,2 hPa 0,0 l/m 11,0 km/h (2 Bft) W-SW 254 0 min 0,000 mm 0,0 UV-I 53 W/m 7,6 C 6,2 C 16,1 km/h (3 Bft) 95,83 %
27.10.2016 09:48 9,3 C 89 % 1031,2 hPa 0,0 l/m 11,9 km/h (2 Bft) W 272 0 min 0,000 mm 0,0 UV-I 54 W/m 7,6 C 5,8 C 16,1 km/h (3 Bft) 100,00 %
27.10.2016 09:49 9,3 C 89 % 1031,2 hPa 0,0 l/m 12,9 km/h (3 Bft) W-SW 238 0 min 0,000 mm 0,0 UV-I 54 W/m 7,6 C 5,3 C 17,7 km/h (3 Bft) 91,67 %
27.10.2016 09:50 9,3 C 89 % 1031,2 hPa 0,0 l/m 8,7 km/h (2 Bft) W 267 0 min 0,000 mm 0,0 UV-I 55 W/m 7,6 C 7,6 C 12,9 km/h (3 Bft) 100,00 %
27.10.2016 09:51 9,3 C 89 % 1031,3 hPa 0,0 l/m 9,7 km/h (2 Bft) W-SW 249 0 min 0,000 mm 0,0 UV-I 57 W/m 7,6 C 7,0 C 12,9 km/h (3 Bft) 95,83 %
27.10.2016 09:52 9,3 C 89 % 1031,2 hPa 0,0 l/m 9,3 km/h (2 Bft) W-SW 245 0 min 0,000 mm 0,0 UV-I 59 W/m 7,6 C 7,3 C 12,9 km/h (3 Bft) 95,65 %
27.10.2016 09:53 9,3 C 89 % 1031,3 hPa 0,0 l/m 9,6 km/h (2 Bft) W 266 0 min 0,000 mm 0,0 UV-I 62 W/m 7,6 C 7,1 C 16,1 km/h (3 Bft) 100,00 %
27.10.2016 09:54 9,3 C 89 % 1031,3 hPa 0,0 l/m 10,2 km/h (2 Bft) W 263 0 min 0,000 mm 0,0 UV-I 63 W/m 7,6 C 6,7 C 14,5 km/h (3 Bft) 92,31 %
27.10.2016 09:55 9,3 C 89 % 1031,4 hPa 0,0 l/m 6,2 km/h (2 Bft) W-SW 257 0 min 0,000 mm 0,0 UV-I 63 W/m 7,6 C 9,3 C 11,3 km/h (2 Bft) 100,00 %
27.10.2016 09:56 9,3 C 89 % 1031,3 hPa 0,0 l/m 10,2 km/h (2 Bft) NW 315 0 min 0,000 mm 0,0 UV-I 63 W/m 7,6 C 6,7 C 17,7 km/h (3 Bft) 100,00 %
27.10.2016 09:57 9,3 C 89 % 1031,3 hPa 0,0 l/m 9,1 km/h (2 Bft) W-SW 246 0 min 0,000 mm 0,0 UV-I 63 W/m 7,6 C 7,4 C 14,5 km/h (3 Bft) 98,68 %
27.10.2016 09:58 9,3 C 89 % 1031,3 hPa 0,0 l/m 8,9 km/h (2 Bft) S-SW 197 0 min 0,000 mm 0,0 UV-I 62 W/m 7,6 C 7,5 C 12,9 km/h (3 Bft) 96,43 %
27.10.2016 09:59 9,3 C 89 % 1031,3 hPa 0,0 l/m 9,8 km/h (2 Bft) NW 306 0 min 0,000 mm 0,0 UV-I 62 W/m 7,6 C 6,9 C 16,1 km/h (3 Bft) 100,00 %
27.10.2016 10:00 9,3 C 89 % 1031,4 hPa 0,0 l/m 11,1 km/h (2 Bft) W-SW 257 0 min 0,000 mm 0,0 UV-I 62 W/m 7,6 C 6,2 C 16,1 km/h (3 Bft) 96,30 %
27.10.2016 10:01 9,3 C 89 % 1031,4 hPa 0,0 l/m 6,4 km/h (2 Bft) W-SW 257 0 min 0,025 mm 0,0 UV-I 64 W/m 7,6 C 9,3 C 11,3 km/h (2 Bft) 100,00 %
27.10.2016 10:02 9,3 C 89 % 1031,3 hPa 0,0 l/m 10,9 km/h (2 Bft) W-SW 247 0 min 0,000 mm 0,0 UV-I 65 W/m 7,6 C 6,3 C 17,7 km/h (3 Bft) 96,67 %
27.10.2016 10:03 9,4 C 89 % 1031,4 hPa 0,0 l/m 10,8 km/h (2 Bft) W-SW 257 0 min 0,000 mm 0,0 UV-I 65 W/m 7,7 C 6,5 C 16,1 km/h (3 Bft) 95,83 %
27.10.2016 10:04 9,3 C 89 % 1031,4 hPa 0,0 l/m 8,4 km/h (2 Bft) W-SW 256 0 min 0,000 mm 0,0 UV-I 64 W/m 7,6 C 7,8 C 12,9 km/h (3 Bft) 100,00 %
27.10.2016 10:05 9,4 C 90 % 1031,4 hPa 0,0 l/m 6,5 km/h (2 Bft) W 260 0 min 0,000 mm 0,0 UV-I 63 W/m 7,8 C 9,4 C 9,7 km/h (2 Bft) 95,65 %
27.10.2016 10:06 9,4 C 90 % 1031,4 hPa 0,0 l/m 6,4 km/h (2 Bft) W-SW 246 0 min 0,000 mm 0,0 UV-I 63 W/m 7,8 C 9,4 C 12,9 km/h (3 Bft) 100,00 %
27.10.2016 10:07 9,4 C 90 % 1031,4 hPa 0,0 l/m 9,7 km/h (2 Bft) W 277 0 min 0,000 mm 0,0 UV-I 64 W/m 7,8 C 7,1 C 14,5 km/h (3 Bft) 92,31 %
27.10.2016 10:08 9,4 C 89 % 1031,3 hPa 0,0 l/m 10,7 km/h (2 Bft) W-SW 252 0 min 0,000 mm 0,0 UV-I 66 W/m 7,7 C 6,5 C 14,5 km/h (3 Bft) 95,83 %
27.10.2016 10:09 9,4 C 89 % 1031,4 hPa 0,0 l/m 7,0 km/h (2 Bft) SW 234 0 min 0,000 mm 0,0 UV-I 68 W/m 7,7 C 9,0 C 9,7 km/h (2 Bft) 100,00 %
27.10.2016 10:10 9,4 C 90 % 1031,4 hPa 0,0 l/m 6,8 km/h (2 Bft) W 274 0 min 0,000 mm 0,0 UV-I 70 W/m 7,8 C 9,1 C 14,5 km/h (3 Bft) 96,30 %
27.10.2016 10:11 9,3 C 90 % 1031,4 hPa 0,0 l/m 9,4 km/h (2 Bft) W-SW 254 0 min 0,000 mm 0,0 UV-I 70 W/m 7,7 C 7,2 C 14,5 km/h (3 Bft) 100,00 %
27.10.2016 10:12 9,4 C 90 % 1031,4 hPa 0,0 l/m 5,6 km/h (1 Bft) W 279 0 min 0,000 mm 0,0 UV-I 70 W/m 7,8 C 9,4 C 9,7 km/h (2 Bft) 95,83 %
27.10.2016 10:13 9,4 C 90 % 1031,4 hPa 0,0 l/m 4,6 km/h (1 Bft) NW 320 0 min 0,000 mm 0,0 UV-I 69 W/m 7,8 C 9,4 C 6,4 km/h (2 Bft) 100,00 %
27.10.2016 10:14 9,4 C 90 % 1031,4 hPa 0,0 l/m 12,2 km/h (2 Bft) W-SW 242 0 min 0,000 mm 0,0 UV-I 68 W/m 7,8 C 5,7 C 14,5 km/h (3 Bft) 100,00 %
27.10.2016 10:15 9,4 C 89 % 1031,4 hPa 0,0 l/m 6,0 km/h (2 Bft) W-SW 247 0 min 0,000 mm 0,0 UV-I 66 W/m 7,7 C 9,4 C 8,0 km/h (2 Bft) 100,00 %
27.10.2016 10:16 9,4 C 89 % 1031,4 hPa 0,0 l/m 10,3 km/h (2 Bft) W-SW 254 0 min 0,000 mm 0,0 UV-I 65 W/m 7,7 C 6,8 C 17,7 km/h (3 Bft) 95,65 %
27.10.2016 10:17 9,4 C 89 % 1031,5 hPa 0,0 l/m 6,8 km/h (2 Bft) W-SW 255 0 min 0,000 mm 0,0 UV-I 65 W/m 7,7 C 9,1 C 12,9 km/h (3 Bft) 100,00 %
27.10.2016 10:18 9,4 C 89 % 1031,5 hPa 0,0 l/m 6,6 km/h (2 Bft) W 277 0 min 0,000 mm 0,0 UV-I 65 W/m 7,7 C 9,3 C 9,7 km/h (2 Bft) 100,00 %
27.10.2016 10:19 9,4 C 89 % 1031,5 hPa 0,0 l/m 7,7 km/h (2 Bft) W-SW 253 0 min 0,000 mm 0,0 UV-I 63 W/m 7,7 C 8,4 C 11,3 km/h (2 Bft) 100,00 %
27.10.2016 10:20 9,4 C 89 % 1031,5 hPa 0,0 l/m 10,1 km/h (2 Bft) W 276 0 min 0,000 mm 0,0 UV-I 62 W/m 7,7 C 6,9 C 14,5 km/h (3 Bft) 100,00 %
27.10.2016 10:21 9,4 C 89 % 1031,5 hPa 0,0 l/m 8,7 km/h (2 Bft) W-SW 248 0 min 0,000 mm 0,0 UV-I 61 W/m 7,7 C 7,7 C 14,5 km/h (3 Bft) 100,00 %
27.10.2016 10:22 9,4 C 89 % 1031,5 hPa 0,0 l/m 7,9 km/h (2 Bft) W 279 0 min 0,000 mm 0,0 UV-I 60 W/m 7,7 C 8,3 C 12,9 km/h (3 Bft) 100,00 %
27.10.2016 10:23 9,4 C 90 % 1031,6 hPa 0,0 l/m 8,1 km/h (2 Bft) W-SW 246 0 min 0,000 mm 0,0 UV-I 58 W/m 7,8 C 8,2 C 12,9 km/h (3 Bft) 100,00 %
27.10.2016 10:24 9,4 C 90 % 1031,6 hPa 0,0 l/m 13,1 km/h (3 Bft) W 260 0 min 0,000 mm 0,0 UV-I 58 W/m 7,8 C 5,3 C 19,3 km/h (3 Bft) 96,55 %
27.10.2016 10:25 9,4 C 89 % 1031,6 hPa 0,0 l/m 9,5 km/h (2 Bft) W-SW 248 0 min 0,000 mm 0,0 UV-I 58 W/m 7,7 C 7,2 C 12,9 km/h (3 Bft) 96,30 %
27.10.2016 10:26 9,4 C 89 % 1031,6 hPa 0,0 l/m 10,4 km/h (2 Bft) W-SW 248 0 min 0,000 mm 0,0 UV-I 59 W/m 7,7 C 6,7 C 14,5 km/h (3 Bft) 96,15 %
27.10.2016 10:27 9,4 C 90 % 1031,6 hPa 0,0 l/m 6,8 km/h (2 Bft) W-SW 244 0 min 0,000 mm 0,0 UV-I 61 W/m 7,8 C 9,1 C 11,3 km/h (2 Bft) 100,00 %
27.10.2016 10:28 9,4 C 90 % 1031,7 hPa 0,0 l/m 9,3 km/h (2 Bft) W 261 0 min 0,000 mm 0,0 UV-I 60 W/m 7,8 C 7,4 C 12,9 km/h (3 Bft) 100,00 %
27.10.2016 10:29 9,4 C 90 % 1031,7 hPa 0,0 l/m 8,6 km/h (2 Bft) W-SW 253 0 min 0,000 mm 0,0 UV-I 60 W/m 7,8 C 7,8 C 11,3 km/h (2 Bft) 100,00 %
27.10.2016 10:30 9,4 C 90 % 1031,7 hPa 0,0 l/m 9,3 km/h (2 Bft) W-SW 254 0 min 0,000 mm 0,0 UV-I 55 W/m 7,8 C 7,4 C 12,9 km/h (3 Bft) 100,00 %
27.10.2016 10:31 9,4 C 90 % 1031,8 hPa 0,0 l/m 7,8 km/h (2 Bft) W 273 0 min 0,000 mm 0,0 UV-I 51 W/m 7,8 C 8,4 C 14,5 km/h (3 Bft) 100,00 %
27.10.2016 10:32 9,4 C 90 % 1031,8 hPa 0,0 l/m 6,6 km/h (2 Bft) W-SW 252 0 min 0,000 mm 0,0 UV-I 46 W/m 7,8 C 9,3 C 12,9 km/h (3 Bft) 100,00 %
27.10.2016 10:33 9,4 C 90 % 1031,8 hPa 0,0 l/m 10,3 km/h (2 Bft) W-SW 258 0 min 0,000 mm 0,0 UV-I 40 W/m 7,8 C 6,8 C 16,1 km/h (3 Bft) 92,59 %
27.10.2016 10:34 9,4 C 90 % 1031,9 hPa 0,0 l/m 9,3 km/h (2 Bft) W 259 0 min 0,000 mm 0,0 UV-I 38 W/m 7,8 C 7,4 C 12,9 km/h (3 Bft) 100,00 %
27.10.2016 10:35 9,4 C 90 % 1031,8 hPa 0,0 l/m 8,2 km/h (2 Bft) W-SW 258 0 min 0,000 mm 0,0 UV-I 37 W/m 7,8 C 8,1 C 11,3 km/h (2 Bft) 100,00 %
27.10.2016 10:36 9,4 C 90 % 1031,9 hPa 0,0 l/m 6,8 km/h (2 Bft) W-SW 244 0 min 0,000 mm 0,0 UV-I 35 W/m 7,8 C 9,1 C 11,3 km/h (2 Bft) 100,00 %
27.10.2016 10:37 9,4 C 90 % 1031,8 hPa 0,0 l/m 6,8 km/h (2 Bft) W-NW 284 0 min 0,000 mm 0,0 UV-I 33 W/m 7,8 C 9,1 C 9,7 km/h (2 Bft) 100,00 %
27.10.2016 10:38 9,4 C 90 % 1031,9 hPa 0,0 l/m 7,3 km/h (2 Bft) W-SW 248 0 min 0,000 mm 0,0 UV-I 34 W/m 7,8 C 8,7 C 11,3 km/h (2 Bft) 100,00 %
27.10.2016 10:39 9,4 C 90 % 1031,9 hPa 0,0 l/m 5,7 km/h (1 Bft) W-SW 255 0 min 0,000 mm 0,0 UV-I 36 W/m 7,8 C 9,4 C 11,3 km/h (2 Bft) 100,00 %
27.10.2016 10:40 9,4 C 90 % 1031,9 hPa 0,0 l/m 10,1 km/h (2 Bft) W-SW 240 0 min 0,000 mm 0,0 UV-I 39 W/m 7,8 C 6,9 C 16,1 km/h (3 Bft) 100,00 %
27.10.2016 10:41 9,4 C 90 % 1031,9 hPa 0,0 l/m 11,9 km/h (2 Bft) W-SW 257 0 min 0,000 mm 0,0 UV-I 42 W/m 7,8 C 5,9 C 16,1 km/h (3 Bft) 100,00 %
27.10.2016 10:42 9,3 C 90 % 1031,9 hPa 0,0 l/m 9,9 km/h (2 Bft) W-SW 248 0 min 0,000 mm 0,0 UV-I 44 W/m 7,7 C 6,9 C 12,9 km/h (3 Bft) 93,33 %
27.10.2016 10:43 9,4 C 90 % 1031,9 hPa 0,0 l/m 8,1 km/h (2 Bft) W-SW 250 0 min 0,000 mm 0,0 UV-I 45 W/m 7,8 C 8,2 C 11,3 km/h (2 Bft) 100,00 %
27.10.2016 10:44 9,4 C 90 % 1032,0 hPa 0,0 l/m 8,6 km/h (2 Bft) W 269 0 min 0,000 mm 0,0 UV-I 46 W/m 7,8 C 7,8 C 11,3 km/h (2 Bft) 100,00 %
27.10.2016 10:45 9,3 C 90 % 1031,9 hPa 0,0 l/m 8,8 km/h (2 Bft) W-SW 254 0 min 0,000 mm 0,0 UV-I 47 W/m 7,7 C 7,6 C 12,9 km/h (3 Bft) 100,00 %
27.10.2016 10:46 9,3 C 90 % 1031,9 hPa 0,0 l/m 9,1 km/h (2 Bft) SW 236 0 min 0,000 mm 0,0 UV-I 47 W/m 7,7 C 7,4 C 12,9 km/h (3 Bft) 96,30 %
27.10.2016 10:47 9,4 C 90 % 1032,0 hPa 0,0 l/m 8,1 km/h (2 Bft) W 275 0 min 0,000 mm 0,0 UV-I 46 W/m 7,8 C 8,2 C 12,9 km/h (3 Bft) 100,00 %
27.10.2016 10:48 9,4 C 90 % 1031,9 hPa 0,0 l/m 9,7 km/h (2 Bft) W-SW 244 0 min 0,000 mm 0,0 UV-I 48 W/m 7,8 C 7,1 C 14,5 km/h (3 Bft) 100,00 %
27.10.2016 10:49 9,3 C 90 % 1031,9 hPa 0,0 l/m 6,8 km/h (2 Bft) W-SW 248 0 min 0,000 mm 0,0 UV-I 52 W/m 7,7 C 9,0 C 8,0 km/h (2 Bft) 100,00 %
27.10.2016 10:50 9,4 C 90 % 1032,0 hPa 0,0 l/m 9,4 km/h (2 Bft) W 275 0 min 0,000 mm 0,0 UV-I 55 W/m 7,8 C 7,3 C 12,9 km/h (3 Bft) 100,00 %
27.10.2016 10:51 9,4 C 90 % 1032,0 hPa 0,0 l/m 13,3 km/h (3 Bft) W-SW 254 0 min 0,000 mm 0,0 UV-I 58 W/m 7,8 C 5,2 C 17,7 km/h (3 Bft) 100,00 %
27.10.2016 10:52 9,4 C 90 % 1032,0 hPa 0,0 l/m 7,6 km/h (2 Bft) W-SW 250 0 min 0,000 mm 0,0 UV-I 61 W/m 7,8 C 8,5 C 14,5 km/h (3 Bft) 100,00 %
27.10.2016 10:53 9,4 C 90 % 1032,0 hPa 0,0 l/m 10,5 km/h (2 Bft) W 270 0 min 0,000 mm 0,0 UV-I 67 W/m 7,8 C 6,6 C 12,9 km/h (3 Bft) 100,00 %
27.10.2016 10:54 9,4 C 90 % 1032,0 hPa 0,0 l/m 10,7 km/h (2 Bft) W-SW 256 0 min 0,000 mm 0,0 UV-I 69 W/m 7,8 C 6,5 C 14,5 km/h (3 Bft) 100,00 %
27.10.2016 10:55 9,4 C 90 % 1032,0 hPa 0,0 l/m 13,7 km/h (3 Bft) W-SW 244 0 min 0,000 mm 0,0 UV-I 70 W/m 7,8 C 5,0 C 16,1 km/h (3 Bft) 100,00 %
27.10.2016 10:56 9,4 C 90 % 1032,0 hPa 0,0 l/m 9,5 km/h (2 Bft) W-NW 283 0 min 0,000 mm 0,0 UV-I 73 W/m 7,8 C 7,2 C 12,9 km/h (3 Bft) 100,00 %
27.10.2016 10:57 9,4 C 90 % 1032,0 hPa 0,0 l/m 7,8 km/h (2 Bft) W-SW 240 0 min 0,000 mm 0,0 UV-I 75 W/m 7,8 C 8,4 C 14,5 km/h (3 Bft) 100,00 %
27.10.2016 10:58 9,4 C 90 % 1032,0 hPa 0,0 l/m 10,7 km/h (2 Bft) W 277 0 min 0,000 mm 0,0 UV-I 77 W/m 7,8 C 6,5 C 16,1 km/h (3 Bft) 100,00 %
27.10.2016 10:59 9,4 C 90 % 1032,0 hPa 0,0 l/m 7,5 km/h (2 Bft) W 277 0 min 0,000 mm 0,0 UV-I 77 W/m 7,8 C 8,6 C 11,3 km/h (2 Bft) 100,00 %
27.10.2016 11:00 9,4 C 90 % 1032,0 hPa 0,0 l/m 10,5 km/h (2 Bft) W-SW 246 0 min 0,000 mm 0,0 UV-I 75 W/m 7,8 C 6,6 C 19,3 km/h (3 Bft) 100,00 %
27.10.2016 11:01 9,4 C 90 % 1032,0 hPa 0,0 l/m 8,3 km/h (2 Bft) W-SW 246 0 min 0,026 mm 0,0 UV-I 73 W/m 7,8 C 8,0 C 14,5 km/h (3 Bft) 100,00 %
27.10.2016 11:02 9,4 C 90 % 1032,0 hPa 0,0 l/m 7,9 km/h (2 Bft) W-SW 250 0 min 0,000 mm 0,0 UV-I 76 W/m 7,8 C 8,3 C 11,3 km/h (2 Bft) 100,00 %
27.10.2016 11:03 9,4 C 90 % 1032,0 hPa 0,0 l/m 7,3 km/h (2 Bft) W-SW 256 0 min 0,000 mm 0,0 UV-I 78 W/m 7,8 C 8,7 C 11,3 km/h (2 Bft) 100,00 %
27.10.2016 11:04 9,4 C 90 % 1032,0 hPa 0,0 l/m 8,7 km/h (2 Bft) W-SW 238 0 min 0,000 mm 0,0 UV-I 84 W/m 7,8 C 7,7 C 12,9 km/h (3 Bft) 100,00 %
27.10.2016 11:05 9,4 C 90 % 1032,1 hPa 0,0 l/m 11,7 km/h (2 Bft) W 270 0 min 0,000 mm 0,0 UV-I 86 W/m 7,8 C 6,0 C 16,1 km/h (3 Bft) 100,00 %
27.10.2016 11:06 9,4 C 90 % 1032,1 hPa 0,0 l/m 9,7 km/h (2 Bft) SW 225 0 min 0,000 mm 0,0 UV-I 87 W/m 7,8 C 7,1 C 12,9 km/h (3 Bft) 100,00 %
27.10.2016 11:07 9,4 C 90 % 1032,0 hPa 0,0 l/m 9,1 km/h (2 Bft) W 267 0 min 0,000 mm 0,0 UV-I 92 W/m 7,8 C 7,5 C 12,9 km/h (3 Bft) 100,00 %
27.10.2016 11:08 9,5 C 91 % 1032,0 hPa 0,0 l/m 8,2 km/h (2 Bft) SW 234 0 min 0,000 mm 0,0 UV-I 97 W/m 8,1 C 8,2 C 12,9 km/h (3 Bft) 100,00 %
27.10.2016 11:09 9,5 C 90 % 1032,0 hPa 0,0 l/m 11,2 km/h (2 Bft) W-SW 257 0 min 0,000 mm 0,0 UV-I 101 W/m 7,9 C 6,4 C 14,5 km/h (3 Bft) 100,00 %
27.10.2016 11:10 9,5 C 90 % 1032,0 hPa 0,0 l/m 9,2 km/h (2 Bft) W 261 0 min 0,000 mm 0,0 UV-I 104 W/m 7,9 C 7,5 C 12,9 km/h (3 Bft) 100,00 %
27.10.2016 11:11 9,5 C 90 % 1032,0 hPa 0,0 l/m 9,9 km/h (2 Bft) W 267 0 min 0,000 mm 0,0 UV-I 104 W/m 7,9 C 7,1 C 12,9 km/h (3 Bft) 100,00 %
27.10.2016 11:12 9,5 C 91 % 1032,0 hPa 0,0 l/m 10,0 km/h (2 Bft) W-SW 250 0 min 0,000 mm 0,0 UV-I 101 W/m 8,1 C 7,0 C 14,5 km/h (3 Bft) 100,00 %
27.10.2016 11:13 9,5 C 90 % 1032,1 hPa 0,0 l/m 14,4 km/h (3 Bft) SW 218 0 min 0,000 mm 0,0 UV-I 97 W/m 7,9 C 4,8 C 17,7 km/h (3 Bft) 100,00 %
27.10.2016 11:14 9,5 C 90 % 1032,1 hPa 0,0 l/m 11,9 km/h (2 Bft) W-NW 292 0 min 0,000 mm 0,0 UV-I 95 W/m 7,9 C 6,0 C 16,1 km/h (3 Bft) 100,00 %
27.10.2016 11:15 9,5 C 91 % 1032,1 hPa 0,0 l/m 10,3 km/h (2 Bft) W-SW 257 0 min 0,000 mm 0,0 UV-I 95 W/m 8,1 C 6,9 C 12,9 km/h (3 Bft) 100,00 %
27.10.2016 11:16 9,5 C 91 % 1032,1 hPa 0,0 l/m 10,7 km/h (2 Bft) W-SW 242 0 min 0,000 mm 0,0 UV-I 95 W/m 8,1 C 6,6 C 16,1 km/h (3 Bft) 98,73 %
27.10.2016 11:17 9,5 C 91 % 1032,1 hPa 0,0 l/m 9,3 km/h (2 Bft) SW 229 0 min 0,000 mm 0,0 UV-I 94 W/m 8,1 C 7,5 C 12,9 km/h (3 Bft) 100,00 %
27.10.2016 11:18 9,5 C 90 % 1032,1 hPa 0,0 l/m 8,6 km/h (2 Bft) SW 220 0 min 0,000 mm 0,0 UV-I 88 W/m 7,9 C 7,9 C 12,9 km/h (3 Bft) 100,00 %
27.10.2016 11:19 9,5 C 90 % 1032,2 hPa 0,0 l/m 13,4 km/h (3 Bft) SW 235 0 min 0,000 mm 0,0 UV-I 81 W/m 7,9 C 5,2 C 17,7 km/h (3 Bft) 100,00 %
27.10.2016 11:20 9,5 C 91 % 1032,2 hPa 0,0 l/m 9,3 km/h (2 Bft) W 267 0 min 0,000 mm 0,0 UV-I 78 W/m 8,1 C 7,5 C 12,9 km/h (3 Bft) 100,00 %
27.10.2016 11:21 9,5 C 91 % 1032,1 hPa 0,0 l/m 6,2 km/h (2 Bft) SW 221 0 min 0,000 mm 0,0 UV-I 79 W/m 8,1 C 9,5 C 9,7 km/h (2 Bft) 100,00 %
27.10.2016 11:23 9,4 C 91 % 1032,2 hPa 0,0 l/m 9,2 km/h (2 Bft) W 262 0 min 0,000 mm 0,0 UV-I 83 W/m 8,0 C 7,4 C 14,5 km/h (3 Bft) 100,00 %
27.10.2016 11:24 9,4 C 91 % 1032,2 hPa 0,0 l/m 9,4 km/h (2 Bft) W-SW 246 0 min 0,000 mm 0,0 UV-I 84 W/m 8,0 C 7,3 C 12,9 km/h (3 Bft) 100,00 %
27.10.2016 11:25 9,4 C 90 % 1032,2 hPa 0,0 l/m 10,1 km/h (2 Bft) W 264 0 min 0,000 mm 0,0 UV-I 84 W/m 7,8 C 6,9 C 14,5 km/h (3 Bft) 100,00 %
27.10.2016 11:26 9,4 C 90 % 1032,2 hPa 0,0 l/m 9,7 km/h (2 Bft) W-NW 288 0 min 0,000 mm 0,0 UV-I 84 W/m 7,8 C 7,1 C 16,1 km/h (3 Bft) 100,00 %
27.10.2016 11:27 9,4 C 90 % 1032,1 hPa 0,0 l/m 9,6 km/h (2 Bft) W-NW 298 0 min 0,000 mm 0,0 UV-I 86 W/m 7,8 C 7,2 C 14,5 km/h (3 Bft) 100,00 %
27.10.2016 11:28 9,4 C 90 % 1032,2 hPa 0,0 l/m 10,4 km/h (2 Bft) W-SW 250 0 min 0,000 mm 0,0 UV-I 90 W/m 7,8 C 6,7 C 14,5 km/h (3 Bft) 100,00 %
27.10.2016 11:29 9,4 C 90 % 1032,2 hPa 0,0 l/m 10,1 km/h (2 Bft) W 259 0 min 0,000 mm 0,0 UV-I 88 W/m 7,8 C 6,9 C 14,5 km/h (3 Bft) 98,77 %
27.10.2016 11:30 9,4 C 91 % 1032,2 hPa 0,0 l/m 10,5 km/h (2 Bft) W 261 0 min 0,000 mm 0,0 UV-I 85 W/m 8,0 C 6,6 C 14,5 km/h (3 Bft) 97,37 %
27.10.2016 11:31 9,4 C 91 % 1032,2 hPa 0,0 l/m 10,4 km/h (2 Bft) W-NW 282 0 min 0,000 mm 0,0 UV-I 88 W/m 8,0 C 6,7 C 14,5 km/h (3 Bft) 100,00 %
27.10.2016 11:32 9,4 C 91 % 1032,2 hPa 0,0 l/m 6,4 km/h (2 Bft) SW 235 0 min 0,000 mm 0,0 UV-I 87 W/m 8,0 C 9,4 C 12,9 km/h (3 Bft) 100,00 %
27.10.2016 11:33 9,5 C 91 % 1032,2 hPa 0,0 l/m 4,8 km/h (1 Bft) W-SW 250 0 min 0,000 mm 0,0 UV-I 79 W/m 8,1 C 9,5 C 8,0 km/h (2 Bft) 100,00 %
27.10.2016 11:34 9,5 C 91 % 1032,2 hPa 0,0 l/m 7,9 km/h (2 Bft) W 271 0 min 0,000 mm 0,0 UV-I 78 W/m 8,1 C 8,4 C 9,7 km/h (2 Bft) 100,00 %
27.10.2016 11:35 9,4 C 91 % 1032,2 hPa 0,0 l/m 7,7 km/h (2 Bft) W-SW 246 0 min 0,000 mm 0,0 UV-I 83 W/m 8,0 C 8,4 C 11,3 km/h (2 Bft) 93,33 %
27.10.2016 11:36 9,5 C 91 % 1032,2 hPa 0,0 l/m 10,0 km/h (2 Bft) W 259 0 min 0,000 mm 0,0 UV-I 82 W/m 8,1 C 7,0 C 14,5 km/h (3 Bft) 100,00 %
27.10.2016 11:37 9,5 C 91 % 1032,2 hPa 0,0 l/m 10,1 km/h (2 Bft) W 265 0 min 0,000 mm 0,0 UV-I 82 W/m 8,1 C 7,0 C 14,5 km/h (3 Bft) 96,30 %
27.10.2016 11:38 9,4 C 91 % 1032,2 hPa 0,0 l/m 6,8 km/h (2 Bft) W 268 0 min 0,000 mm 0,0 UV-I 84 W/m 8,0 C 9,1 C 11,3 km/h (2 Bft) 100,00 %
27.10.2016 11:39 9,4 C 91 % 1032,2 hPa 0,0 l/m 6,5 km/h (2 Bft) W 273 0 min 0,000 mm 0,0 UV-I 88 W/m 8,0 C 9,4 C 9,7 km/h (2 Bft) 100,00 %
27.10.2016 11:40 9,4 C 91 % 1032,2 hPa 0,0 l/m 9,9 km/h (2 Bft) SW 234 0 min 0,000 mm 0,0 UV-I 97 W/m 8,0 C 7,0 C 14,5 km/h (3 Bft) 91,30 %
27.10.2016 11:41 9,4 C 91 % 1032,2 hPa 0,0 l/m 7,2 km/h (2 Bft) W 261 0 min 0,000 mm 0,0 UV-I 106 W/m 8,0 C 8,8 C 12,9 km/h (3 Bft) 95,83 %
27.10.2016 11:42 9,4 C 91 % 1032,2 hPa 0,0 l/m 12,9 km/h (3 Bft) W-NW 290 0 min 0,000 mm 0,0 UV-I 106 W/m 8,0 C 5,4 C 17,7 km/h (3 Bft) 100,00 %
27.10.2016 11:43 9,4 C 91 % 1032,2 hPa 0,0 l/m 9,0 km/h (2 Bft) W 265 0 min 0,000 mm 0,0 UV-I 104 W/m 8,0 C 7,6 C 16,1 km/h (3 Bft) 100,00 %
27.10.2016 11:44 9,4 C 91 % 1032,2 hPa 0,0 l/m 5,8 km/h (2 Bft) W-SW 246 0 min 0,000 mm 0,0 UV-I 104 W/m 8,0 C 9,4 C 6,4 km/h (2 Bft) 96,55 %
27.10.2016 11:45 9,5 C 91 % 1032,2 hPa 0,0 l/m 8,1 km/h (2 Bft) W-SW 254 0 min 0,000 mm 0,4 UV-I 113 W/m 8,1 C 8,3 C 12,9 km/h (3 Bft) 95,83 %
27.10.2016 11:46 9,5 C 91 % 1032,2 hPa 0,0 l/m 6,7 km/h (2 Bft) W-SW 248 0 min 0,000 mm 0,5 UV-I 122 W/m 8,1 C 9,3 C 12,9 km/h (3 Bft) 95,65 %
27.10.2016 11:47 9,5 C 91 % 1032,2 hPa 0,0 l/m 6,6 km/h (2 Bft) W-SW 238 0 min 0,000 mm 0,5 UV-I 131 W/m 8,1 C 9,4 C 12,9 km/h (3 Bft) 95,83 %
27.10.2016 11:48 9,6 C 91 % 1032,2 hPa 0,0 l/m 8,2 km/h (2 Bft) W 263 0 min 0,000 mm 0,6 UV-I 134 W/m 8,2 C 8,3 C 14,5 km/h (3 Bft) 98,73 %
27.10.2016 11:49 9,6 C 91 % 1032,2 hPa 0,0 l/m 10,8 km/h (2 Bft) W-SW 246 0 min 0,000 mm 0,6 UV-I 136 W/m 8,2 C 6,7 C 14,5 km/h (3 Bft) 97,56 %
27.10.2016 11:50 9,6 C 91 % 1032,2 hPa 0,0 l/m 9,7 km/h (2 Bft) W 265 0 min 0,000 mm 0,6 UV-I 137 W/m 8,2 C 7,3 C 14,5 km/h (3 Bft) 100,00 %
27.10.2016 11:51 9,6 C 91 % 1032,2 hPa 0,0 l/m 11,2 km/h (2 Bft) W-SW 254 0 min 0,000 mm 0,6 UV-I 141 W/m 8,2 C 6,5 C 14,5 km/h (3 Bft) 96,77 %
27.10.2016 11:52 9,6 C 91 % 1032,2 hPa 0,0 l/m 8,7 km/h (2 Bft) W-SW 248 0 min 0,000 mm 0,6 UV-I 142 W/m 8,2 C 8,0 C 12,9 km/h (3 Bft) 92,31 %
27.10.2016 11:53 9,6 C 91 % 1032,2 hPa 0,0 l/m 8,6 km/h (2 Bft) W-SW 242 0 min 0,000 mm 0,6 UV-I 147 W/m 8,2 C 8,0 C 12,9 km/h (3 Bft) 96,30 %
27.10.2016 11:54 9,7 C 91 % 1032,2 hPa 0,0 l/m 12,7 km/h (3 Bft) W-SW 246 0 min 0,000 mm 0,6 UV-I 148 W/m 8,3 C 5,8 C 17,7 km/h (3 Bft) 86,67 %
27.10.2016 11:55 9,7 C 91 % 1032,3 hPa 0,0 l/m 11,7 km/h (2 Bft) W-SW 249 0 min 0,000 mm 0,6 UV-I 146 W/m 8,3 C 6,3 C 17,7 km/h (3 Bft) 100,00 %
27.10.2016 11:56 9,7 C 90 % 1032,3 hPa 0,0 l/m 15,9 km/h (3 Bft) W-SW 254 0 min 0,000 mm 0,6 UV-I 142 W/m 8,1 C 4,4 C 20,9 km/h (4 Bft) 91,67 %
27.10.2016 11:57 9,7 C 90 % 1032,2 hPa 0,0 l/m 13,7 km/h (3 Bft) W-SW 257 0 min 0,000 mm 0,6 UV-I 138 W/m 8,1 C 5,3 C 20,9 km/h (4 Bft) 100,00 %
27.10.2016 11:58 9,7 C 90 % 1032,2 hPa 0,0 l/m 10,2 km/h (2 Bft) W 265 0 min 0,000 mm 0,6 UV-I 129 W/m 8,1 C 7,1 C 14,5 km/h (3 Bft) 97,62 %
27.10.2016 11:59 9,7 C 90 % 1032,2 hPa 0,0 l/m 10,5 km/h (2 Bft) W 260 0 min 0,000 mm 0,5 UV-I 130 W/m 8,1 C 7,0 C 16,1 km/h (3 Bft) 100,00 %
27.10.2016 12:00 9,7 C 90 % 1032,2 hPa 0,0 l/m 9,4 km/h (2 Bft) W-SW 251 0 min 0,000 mm 0,6 UV-I 132 W/m 8,1 C 7,6 C 12,9 km/h (3 Bft) 96,30 %
27.10.2016 12:01 9,7 C 90 % 1032,2 hPa 0,0 l/m 15,3 km/h (3 Bft) W-SW 250 0 min 0,051 mm 0,5 UV-I 122 W/m 8,1 C 4,6 C 20,9 km/h (4 Bft) 100,00 %
27.10.2016 12:02 9,7 C 90 % 1032,3 hPa 0,0 l/m 15,7 km/h (3 Bft) SW 234 0 min 0,000 mm 0,5 UV-I 112 W/m 8,1 C 4,5 C 19,3 km/h (3 Bft) 95,83 %
27.10.2016 12:03 9,7 C 90 % 1032,3 hPa 0,0 l/m 13,6 km/h (3 Bft) SW 232 0 min 0,000 mm 0,1 UV-I 104 W/m 8,1 C 5,4 C 17,7 km/h (3 Bft) 96,15 %
27.10.2016 12:04 9,7 C 90 % 1032,2 hPa 0,0 l/m 8,8 km/h (2 Bft) W-SW 257 0 min 0,000 mm 0,4 UV-I 109 W/m 8,1 C 8,0 C 14,5 km/h (3 Bft) 100,00 %
27.10.2016 12:05 9,7 C 90 % 1032,2 hPa 0,0 l/m 11,3 km/h (2 Bft) W 265 0 min 0,000 mm 0,4 UV-I 106 W/m 8,1 C 6,5 C 16,1 km/h (3 Bft) 95,65 %
27.10.2016 12:06 9,7 C 90 % 1032,3 hPa 0,0 l/m 9,8 km/h (2 Bft) W-NW 286 0 min 0,000 mm 0,0 UV-I 104 W/m 8,1 C 7,4 C 16,1 km/h (3 Bft) 100,00 %
27.10.2016 12:07 9,7 C 90 % 1032,3 hPa 0,0 l/m 10,0 km/h (2 Bft) SW 236 0 min 0,000 mm 0,0 UV-I 100 W/m 8,1 C 7,3 C 14,5 km/h (3 Bft) 100,00 %
27.10.2016 12:08 9,7 C 90 % 1032,3 hPa 0,0 l/m 11,0 km/h (2 Bft) W 267 0 min 0,000 mm 0,0 UV-I 86 W/m 8,1 C 6,7 C 17,7 km/h (3 Bft) 100,00 %
27.10.2016 12:09 9,7 C 90 % 1032,3 hPa 0,0 l/m 12,4 km/h (3 Bft) W 264 0 min 0,000 mm 0,0 UV-I 71 W/m 8,1 C 6,0 C 16,1 km/h (3 Bft) 96,15 %
27.10.2016 12:10 9,7 C 90 % 1032,3 hPa 0,0 l/m 9,7 km/h (2 Bft) W-SW 256 0 min 0,000 mm 0,0 UV-I 64 W/m 8,1 C 7,4 C 12,9 km/h (3 Bft) 100,00 %
27.10.2016 12:11 9,7 C 90 % 1032,3 hPa 0,0 l/m 10,5 km/h (2 Bft) W-SW 237 0 min 0,000 mm 0,0 UV-I 66 W/m 8,1 C 7,0 C 16,1 km/h (3 Bft) 91,67 %
27.10.2016 12:12 9,7 C 90 % 1032,3 hPa 0,0 l/m 9,5 km/h (2 Bft) SW 236 0 min 0,000 mm 0,0 UV-I 65 W/m 8,1 C 7,6 C 12,9 km/h (3 Bft) 97,56 %
27.10.2016 12:13 9,7 C 90 % 1032,3 hPa 0,0 l/m 7,1 km/h (2 Bft) SW 233 0 min 0,000 mm 0,0 UV-I 56 W/m 8,1 C 9,2 C 8,0 km/h (2 Bft) 100,00 %
27.10.2016 12:14 9,7 C 90 % 1032,3 hPa 0,0 l/m 6,9 km/h (2 Bft) W-SW 250 0 min 0,000 mm 0,0 UV-I 43 W/m 8,1 C 9,3 C 8,0 km/h (2 Bft) 100,00 %
27.10.2016 12:15 9,7 C 91 % 1032,3 hPa 0,0 l/m 10,5 km/h (2 Bft) SW 217 0 min 0,000 mm 0,0 UV-I 41 W/m 8,3 C 7,0 C 16,1 km/h (3 Bft) 100,00 %
27.10.2016 12:16 9,7 C 91 % 1032,3 hPa 0,0 l/m 16,2 km/h (3 Bft) W-SW 257 0 min 0,000 mm 0,0 UV-I 47 W/m 8,3 C 4,3 C 27,4 km/h (4 Bft) 100,00 %
27.10.2016 12:17 9,6 C 91 % 1032,3 hPa 0,0 l/m 11,9 km/h (2 Bft) W-SW 245 0 min 0,000 mm 0,0 UV-I 45 W/m 8,2 C 6,1 C 16,1 km/h (3 Bft) 100,00 %
27.10.2016 12:18 9,6 C 90 % 1032,3 hPa 0,0 l/m 7,3 km/h (2 Bft) W 259 0 min 0,000 mm 0,0 UV-I 45 W/m 8,0 C 8,9 C 11,3 km/h (2 Bft) 100,00 %
27.10.2016 12:19 9,6 C 90 % 1032,3 hPa 0,0 l/m 10,6 km/h (2 Bft) W 263 0 min 0,000 mm 0,0 UV-I 50 W/m 8,0 C 6,8 C 16,1 km/h (3 Bft) 96,55 %
27.10.2016 12:20 9,6 C 91 % 1032,4 hPa 0,0 l/m 13,3 km/h (3 Bft) W 277 0 min 0,000 mm 0,0 UV-I 54 W/m 8,2 C 5,4 C 19,3 km/h (3 Bft) 100,00 %
27.10.2016 12:21 9,6 C 90 % 1032,4 hPa 0,0 l/m 10,8 km/h (2 Bft) W-NW 291 0 min 0,000 mm 0,0 UV-I 55 W/m 8,0 C 6,7 C 17,7 km/h (3 Bft) 100,00 %
27.10.2016 12:22 9,5 C 90 % 1032,3 hPa 0,0 l/m 11,3 km/h (2 Bft) W 279 0 min 0,000 mm 0,0 UV-I 61 W/m 7,9 C 6,3 C 17,7 km/h (3 Bft) 100,00 %
27.10.2016 12:23 9,5 C 90 % 1032,3 hPa 0,0 l/m 9,7 km/h (2 Bft) W 270 0 min 0,000 mm 0,0 UV-I 64 W/m 7,9 C 7,2 C 16,1 km/h (3 Bft) 100,00 %
27.10.2016 12:24 9,5 C 91 % 1032,3 hPa 0,0 l/m 12,2 km/h (2 Bft) W 267 0 min 0,000 mm 0,0 UV-I 70 W/m 8,1 C 5,8 C 17,7 km/h (3 Bft) 100,00 %
27.10.2016 12:25 9,5 C 91 % 1032,3 hPa 0,0 l/m 7,4 km/h (2 Bft) SW 227 0 min 0,000 mm 0,0 UV-I 69 W/m 8,1 C 8,8 C 14,5 km/h (3 Bft) 100,00 %
27.10.2016 12:26 9,5 C 91 % 1032,3 hPa 0,0 l/m 11,2 km/h (2 Bft) W-SW 254 0 min 0,000 mm 0,0 UV-I 61 W/m 8,1 C 6,4 C 16,1 km/h (3 Bft) 100,00 %
27.10.2016 12:28 9,4 C 91 % 1032,3 hPa 0,0 l/m 10,1 km/h (2 Bft) W-NW 286 0 min 0,000 mm 0,0 UV-I 58 W/m 8,0 C 6,9 C 17,7 km/h (3 Bft) 100,00 %
27.10.2016 12:29 9,4 C 90 % 1032,3 hPa 0,0 l/m 6,2 km/h (2 Bft) W-SW 250 0 min 0,000 mm 0,0 UV-I 58 W/m 7,8 C 9,4 C 9,7 km/h (2 Bft) 93,33 %
27.10.2016 12:30 9,4 C 91 % 1032,3 hPa 0,0 l/m 11,1 km/h (2 Bft) SW 229 0 min 0,000 mm 0,0 UV-I 62 W/m 8,0 C 6,3 C 17,7 km/h (3 Bft) 95,65 %
27.10.2016 12:31 9,4 C 90 % 1032,4 hPa 0,0 l/m 11,3 km/h (2 Bft) NW 305 0 min 0,000 mm 0,0 UV-I 65 W/m 7,8 C 6,2 C 16,1 km/h (3 Bft) 100,00 %
27.10.2016 12:32 9,4 C 91 % 1032,3 hPa 0,0 l/m 9,3 km/h (2 Bft) W 267 0 min 0,000 mm 0,0 UV-I 74 W/m 8,0 C 7,4 C 12,9 km/h (3 Bft) 100,00 %
27.10.2016 12:33 9,4 C 91 % 1032,3 hPa 0,0 l/m 6,8 km/h (2 Bft) SW 215 0 min 0,000 mm 0,0 UV-I 84 W/m 8,0 C 9,1 C 11,3 km/h (2 Bft) 100,00 %
27.10.2016 12:34 9,4 C 91 % 1032,3 hPa 0,0 l/m 10,8 km/h (2 Bft) W-SW 257 0 min 0,000 mm 0,0 UV-I 87 W/m 8,0 C 6,5 C 14,5 km/h (3 Bft) 100,00 %
27.10.2016 12:35 9,4 C 91 % 1032,3 hPa 0,0 l/m 11,5 km/h (2 Bft) SW 235 0 min 0,000 mm 0,0 UV-I 89 W/m 8,0 C 6,1 C 19,3 km/h (3 Bft) 96,15 %
27.10.2016 12:36 9,5 C 91 % 1032,3 hPa 0,0 l/m 10,7 km/h (2 Bft) W 277 0 min 0,000 mm 0,0 UV-I 91 W/m 8,1 C 6,6 C 14,5 km/h (3 Bft) 100,00 %
27.10.2016 12:37 9,5 C 91 % 1032,3 hPa 0,0 l/m 13,0 km/h (3 Bft) NW 315 0 min 0,000 mm 0,0 UV-I 91 W/m 8,1 C 5,4 C 20,9 km/h (4 Bft) 100,00 %
27.10.2016 12:38 9,5 C 91 % 1032,3 hPa 0,0 l/m 10,9 km/h (2 Bft) W-SW 257 0 min 0,000 mm 0,0 UV-I 91 W/m 8,1 C 6,5 C 17,7 km/h (3 Bft) 100,00 %
27.10.2016 12:39 9,5 C 91 % 1032,3 hPa 0,0 l/m 8,4 km/h (2 Bft) W-SW 244 0 min 0,000 mm 0,0 UV-I 90 W/m 8,1 C 8,1 C 14,5 km/h (3 Bft) 100,00 %
27.10.2016 12:40 9,5 C 91 % 1032,2 hPa 0,0 l/m 12,2 km/h (2 Bft) W-SW 252 0 min 0,000 mm 0,0 UV-I 88 W/m 8,1 C 5,8 C 17,7 km/h (3 Bft) 96,67 %
27.10.2016 12:41 9,5 C 91 % 1032,2 hPa 0,0 l/m 7,0 km/h (2 Bft) W 267 0 min 0,000 mm 0,0 UV-I 88 W/m 8,1 C 9,1 C 11,3 km/h (2 Bft) 100,00 %
27.10.2016 12:42 9,5 C 91 % 1032,2 hPa 0,0 l/m 5,1 km/h (1 Bft) W 261 0 min 0,000 mm 0,0 UV-I 86 W/m 8,1 C 9,5 C 11,3 km/h (2 Bft) 100,00 %
27.10.2016 12:43 9,5 C 90 % 1032,2 hPa 0,0 l/m 9,4 km/h (2 Bft) W-SW 245 0 min 0,000 mm 0,0 UV-I 84 W/m 7,9 C 7,4 C 12,9 km/h (3 Bft) 100,00 %
27.10.2016 12:44 9,6 C 91 % 1032,3 hPa 0,0 l/m 7,0 km/h (2 Bft) NW 306 0 min 0,000 mm 0,0 UV-I 83 W/m 8,2 C 9,2 C 11,3 km/h (2 Bft) 100,00 %
27.10.2016 12:45 9,6 C 90 % 1032,3 hPa 0,0 l/m 6,3 km/h (2 Bft) W-NW 300 0 min 0,000 mm 0,0 UV-I 83 W/m 8,0 C 9,6 C 9,7 km/h (2 Bft) 100,00 %
27.10.2016 12:46 9,6 C 90 % 1032,3 hPa 0,0 l/m 5,4 km/h (1 Bft) W-SW 244 0 min 0,000 mm 0,0 UV-I 85 W/m 8,0 C 9,6 C 8,0 km/h (2 Bft) 100,00 %
27.10.2016 12:47 9,6 C 90 % 1032,3 hPa 0,0 l/m 7,2 km/h (2 Bft) W-SW 244 0 min 0,000 mm 0,0 UV-I 86 W/m 8,0 C 9,0 C 11,3 km/h (2 Bft) 95,65 %
27.10.2016 12:48 9,6 C 90 % 1032,3 hPa 0,0 l/m 10,5 km/h (2 Bft) W-SW 249 0 min 0,000 mm 0,0 UV-I 87 W/m 8,0 C 6,9 C 14,5 km/h (3 Bft) 100,00 %
27.10.2016 12:49 9,6 C 90 % 1032,3 hPa 0,0 l/m 6,6 km/h (2 Bft) W-SW 251 0 min 0,000 mm 0,0 UV-I 90 W/m 8,0 C 9,5 C 12,9 km/h (3 Bft) 100,00 %
27.10.2016 12:50 9,6 C 90 % 1032,3 hPa 0,0 l/m 9,8 km/h (2 Bft) W-SW 238 0 min 0,000 mm 0,0 UV-I 90 W/m 8,0 C 7,3 C 14,5 km/h (3 Bft) 100,00 %
27.10.2016 12:51 9,6 C 90 % 1032,3 hPa 0,0 l/m 8,4 km/h (2 Bft) W-NW 287 0 min 0,000 mm 0,0 UV-I 92 W/m 8,0 C 8,2 C 11,3 km/h (2 Bft) 100,00 %
27.10.2016 12:52 9,6 C 90 % 1032,3 hPa 0,0 l/m 5,3 km/h (1 Bft) W-SW 257 0 min 0,000 mm 0,0 UV-I 95 W/m 8,0 C 9,6 C 9,7 km/h (2 Bft) 100,00 %
27.10.2016 12:53 9,6 C 90 % 1032,3 hPa 0,0 l/m 7,1 km/h (2 Bft) W 270 0 min 0,000 mm 0,0 UV-I 95 W/m 8,0 C 9,1 C 11,3 km/h (2 Bft) 100,00 %
27.10.2016 12:54 9,6 C 90 % 1032,3 hPa 0,0 l/m 5,3 km/h (1 Bft) W-SW 243 0 min 0,000 mm 0,0 UV-I 95 W/m 8,0 C 9,6 C 8,0 km/h (2 Bft) 100,00 %
27.10.2016 12:55 9,6 C 90 % 1032,3 hPa 0,0 l/m 8,9 km/h (2 Bft) W-SW 243 0 min 0,000 mm 0,0 UV-I 97 W/m 8,0 C 7,8 C 12,9 km/h (3 Bft) 100,00 %
27.10.2016 12:56 9,6 C 90 % 1032,3 hPa 0,0 l/m 6,0 km/h (2 Bft) W-SW 253 0 min 0,000 mm 0,0 UV-I 100 W/m 8,0 C 9,6 C 11,3 km/h (2 Bft) 100,00 %
27.10.2016 12:57 9,6 C 90 % 1032,3 hPa 0,0 l/m 4,4 km/h (1 Bft) W-SW 250 0 min 0,000 mm 0,5 UV-I 102 W/m 8,0 C 9,6 C 6,4 km/h (2 Bft) 100,00 %
27.10.2016 12:58 9,7 C 90 % 1032,3 hPa 0,0 l/m 9,4 km/h (2 Bft) W-NW 286 0 min 0,000 mm 0,4 UV-I 102 W/m 8,1 C 7,6 C 12,9 km/h (3 Bft) 100,00 %
27.10.2016 12:59 9,7 C 90 % 1032,3 hPa 0,0 l/m 5,4 km/h (1 Bft) W-SW 246 0 min 0,000 mm 0,0 UV-I 101 W/m 8,1 C 9,7 C 6,4 km/h (2 Bft) 100,00 %
27.10.2016 13:00 9,7 C 90 % 1032,3 hPa 0,0 l/m 10,9 km/h (2 Bft) W 265 0 min 0,000 mm 0,0 UV-I 100 W/m 8,1 C 6,8 C 16,1 km/h (3 Bft) 100,00 %
27.10.2016 13:01 9,7 C 90 % 1032,3 hPa 0,0 l/m 8,2 km/h (2 Bft) W 266 0 min 0,050 mm 0,0 UV-I 100 W/m 8,1 C 8,4 C 12,9 km/h (3 Bft) 100,00 %
27.10.2016 13:02 9,7 C 90 % 1032,3 hPa 0,0 l/m 7,4 km/h (2 Bft) W-SW 246 0 min 0,000 mm 0,0 UV-I 98 W/m 8,1 C 9,0 C 12,9 km/h (3 Bft) 100,00 %
27.10.2016 13:03 9,7 C 89 % 1032,3 hPa 0,0 l/m 7,4 km/h (2 Bft) W 281 0 min 0,000 mm 0,0 UV-I 98 W/m 8,0 C 9,0 C 11,3 km/h (2 Bft) 100,00 %
27.10.2016 13:04 9,7 C 89 % 1032,3 hPa 0,0 l/m 8,3 km/h (2 Bft) W-SW 249 0 min 0,000 mm 0,0 UV-I 99 W/m 8,0 C 8,3 C 14,5 km/h (3 Bft) 100,00 %
27.10.2016 13:05 9,7 C 89 % 1032,4 hPa 0,0 l/m 8,1 km/h (2 Bft) W 264 0 min 0,000 mm 0,0 UV-I 101 W/m 8,0 C 8,5 C 9,7 km/h (2 Bft) 100,00 %
27.10.2016 13:06 9,7 C 89 % 1032,4 hPa 0,0 l/m 5,6 km/h (1 Bft) W-SW 252 0 min 0,000 mm 0,4 UV-I 104 W/m 8,0 C 9,7 C 9,7 km/h (2 Bft) 100,00 %
27.10.2016 13:07 9,7 C 89 % 1032,4 hPa 0,0 l/m 5,1 km/h (1 Bft) W-SW 246 0 min 0,000 mm 0,5 UV-I 108 W/m 8,0 C 9,7 C 6,4 km/h (2 Bft) 100,00 %
27.10.2016 13:08 9,7 C 89 % 1032,3 hPa 0,0 l/m 8,6 km/h (2 Bft) SW 234 0 min 0,000 mm 0,5 UV-I 112 W/m 8,0 C 8,1 C 12,9 km/h (3 Bft) 100,00 %
27.10.2016 13:09 9,7 C 89 % 1032,3 hPa 0,0 l/m 9,5 km/h (2 Bft) W 262 0 min 0,000 mm 0,5 UV-I 116 W/m 8,0 C 7,6 C 12,9 km/h (3 Bft) 100,00 %
27.10.2016 13:10 9,8 C 88 % 1032,4 hPa 0,0 l/m 7,9 km/h (2 Bft) W-SW 240 0 min 0,000 mm 0,5 UV-I 122 W/m 7,9 C 8,7 C 11,3 km/h (2 Bft) 100,00 %
27.10.2016 13:11 9,8 C 88 % 1032,3 hPa 0,0 l/m 5,8 km/h (2 Bft) SW 236 0 min 0,000 mm 0,5 UV-I 123 W/m 7,9 C 9,8 C 8,0 km/h (2 Bft) 100,00 %
27.10.2016 13:12 9,8 C 88 % 1032,4 hPa 0,0 l/m 9,8 km/h (2 Bft) SW 231 0 min 0,000 mm 0,5 UV-I 123 W/m 7,9 C 7,5 C 12,9 km/h (3 Bft) 96,15 %
27.10.2016 13:13 9,8 C 88 % 1032,4 hPa 0,0 l/m 7,4 km/h (2 Bft) W 267 0 min 0,000 mm 0,5 UV-I 125 W/m 7,9 C 9,1 C 12,9 km/h (3 Bft) 100,00 %
27.10.2016 13:14 9,8 C 88 % 1032,4 hPa 0,0 l/m 7,9 km/h (2 Bft) W-SW 247 0 min 0,000 mm 0,6 UV-I 128 W/m 7,9 C 8,7 C 11,3 km/h (2 Bft) 100,00 %
27.10.2016 13:15 9,8 C 88 % 1032,4 hPa 0,0 l/m 5,0 km/h (1 Bft) W 276 0 min 0,000 mm 0,6 UV-I 129 W/m 7,9 C 9,8 C 6,4 km/h (2 Bft) 100,00 %
27.10.2016 13:16 9,8 C 88 % 1032,4 hPa 0,0 l/m 8,1 km/h (2 Bft) W-SW 257 0 min 0,000 mm 0,6 UV-I 126 W/m 7,9 C 8,6 C 11,3 km/h (2 Bft) 100,00 %
27.10.2016 13:17 9,8 C 88 % 1032,4 hPa 0,0 l/m 7,6 km/h (2 Bft) W-SW 250 0 min 0,000 mm 0,5 UV-I 124 W/m 7,9 C 8,9 C 11,3 km/h (2 Bft) 100,00 %
27.10.2016 13:18 9,9 C 88 % 1032,4 hPa 0,0 l/m 7,4 km/h (2 Bft) W-SW 239 0 min 0,000 mm 0,5 UV-I 123 W/m 8,0 C 9,2 C 11,3 km/h (2 Bft) 100,00 %
27.10.2016 13:19 9,9 C 88 % 1032,4 hPa 0,0 l/m 6,8 km/h (2 Bft) W-SW 248 0 min 0,000 mm 0,5 UV-I 123 W/m 8,0 C 9,6 C 11,3 km/h (2 Bft) 100,00 %
27.10.2016 13:20 9,9 C 88 % 1032,4 hPa 0,0 l/m 10,5 km/h (2 Bft) W-NW 293 0 min 0,000 mm 0,5 UV-I 125 W/m 8,0 C 7,2 C 14,5 km/h (3 Bft) 96,30 %
27.10.2016 13:21 9,9 C 88 % 1032,4 hPa 0,0 l/m 4,7 km/h (1 Bft) W 273 0 min 0,000 mm 0,5 UV-I 130 W/m 8,0 C 9,9 C 6,4 km/h (2 Bft) 100,00 %
27.10.2016 13:22 9,9 C 87 % 1032,4 hPa 0,0 l/m 5,5 km/h (1 Bft) W 261 0 min 0,000 mm 0,6 UV-I 136 W/m 7,8 C 9,9 C 9,7 km/h (2 Bft) 100,00 %
27.10.2016 13:23 9,9 C 87 % 1032,4 hPa 0,0 l/m 6,1 km/h (2 Bft) W-NW 303 0 min 0,000 mm 0,6 UV-I 138 W/m 7,8 C 9,9 C 9,7 km/h (2 Bft) 100,00 %
27.10.2016 13:24 9,9 C 87 % 1032,4 hPa 0,0 l/m 8,5 km/h (2 Bft) W-NW 284 0 min 0,000 mm 0,6 UV-I 136 W/m 7,8 C 8,4 C 14,5 km/h (3 Bft) 100,00 %
27.10.2016 13:25 9,9 C 86 % 1032,4 hPa 0,0 l/m 8,4 km/h (2 Bft) W-SW 256 0 min 0,000 mm 0,5 UV-I 134 W/m 7,7 C 8,5 C 12,9 km/h (3 Bft) 98,76 %
27.10.2016 13:26 9,9 C 86 % 1032,4 hPa 0,0 l/m 8,2 km/h (2 Bft) W-NW 292 0 min 0,000 mm 0,5 UV-I 132 W/m 7,7 C 8,6 C 12,9 km/h (3 Bft) 100,00 %
27.10.2016 13:27 9,9 C 86 % 1032,4 hPa 0,0 l/m 7,6 km/h (2 Bft) W-SW 258 0 min 0,000 mm 0,5 UV-I 134 W/m 7,7 C 9,0 C 12,9 km/h (3 Bft) 100,00 %
27.10.2016 13:28 9,9 C 87 % 1032,4 hPa 0,0 l/m 5,9 km/h (2 Bft) W-SW 246 0 min 0,000 mm 0,6 UV-I 135 W/m 7,8 C 9,9 C 8,0 km/h (2 Bft) 100,00 %
27.10.2016 13:29 9,9 C 87 % 1032,3 hPa 0,0 l/m 7,4 km/h (2 Bft) SW 220 0 min 0,000 mm 0,6 UV-I 135 W/m 7,8 C 9,2 C 9,7 km/h (2 Bft) 100,00 %
27.10.2016 13:30 9,9 C 86 % 1032,4 hPa 0,0 l/m 8,9 km/h (2 Bft) W-SW 255 0 min 0,000 mm 0,5 UV-I 134 W/m 7,7 C 8,2 C 14,5 km/h (3 Bft) 100,00 %
27.10.2016 13:31 9,9 C 86 % 1032,3 hPa 0,0 l/m 11,5 km/h (2 Bft) W 281 0 min 0,000 mm 0,5 UV-I 130 W/m 7,7 C 6,7 C 16,1 km/h (3 Bft) 100,00 %
27.10.2016 13:32 10,0 C 86 % 1032,3 hPa 0,0 l/m 7,4 km/h (2 Bft) W-SW 238 0 min 0,000 mm 0,5 UV-I 129 W/m 7,8 C 9,3 C 12,9 km/h (3 Bft) 100,00 %
27.10.2016 13:33 10,0 C 87 % 1032,3 hPa 0,0 l/m 6,2 km/h (2 Bft) W-SW 250 0 min 0,000 mm 0,5 UV-I 131 W/m 7,9 C 10,0 C 9,7 km/h (2 Bft) 100,00 %
27.10.2016 13:34 10,0 C 86 % 1032,3 hPa 0,0 l/m 7,0 km/h (2 Bft) W-SW 250 0 min 0,000 mm 0,5 UV-I 133 W/m 7,8 C 9,6 C 11,3 km/h (2 Bft) 100,00 %
27.10.2016 13:35 10,1 C 87 % 1032,3 hPa 0,0 l/m 5,1 km/h (1 Bft) W 271 0 min 0,000 mm 0,6 UV-I 136 W/m 8,0 C 10,1 C 11,3 km/h (2 Bft) 100,00 %
27.10.2016 13:36 10,1 C 87 % 1032,3 hPa 0,0 l/m 9,4 km/h (2 Bft) W-SW 256 0 min 0,000 mm 0,6 UV-I 139 W/m 8,0 C 8,1 C 12,9 km/h (3 Bft) 100,00 %
27.10.2016 13:37 10,1 C 86 % 1032,3 hPa 0,0 l/m 9,5 km/h (2 Bft) W 266 0 min 0,000 mm 0,6 UV-I 141 W/m 7,9 C 8,0 C 11,3 km/h (2 Bft) 100,00 %
27.10.2016 13:38 10,1 C 86 % 1032,3 hPa 0,0 l/m 8,0 km/h (2 Bft) W 259 0 min 0,000 mm 0,6 UV-I 143 W/m 7,9 C 9,0 C 12,9 km/h (3 Bft) 96,15 %
27.10.2016 13:39 10,1 C 86 % 1032,3 hPa 0,0 l/m 9,7 km/h (2 Bft) W-SW 251 0 min 0,000 mm 0,6 UV-I 145 W/m 7,9 C 7,9 C 16,1 km/h (3 Bft) 100,00 %
27.10.2016 13:40 10,1 C 86 % 1032,3 hPa 0,0 l/m 9,7 km/h (2 Bft) W 267 0 min 0,000 mm 0,6 UV-I 147 W/m 7,9 C 7,9 C 14,5 km/h (3 Bft) 93,75 %
27.10.2016 13:41 10,1 C 85 % 1032,3 hPa 0,0 l/m 10,2 km/h (2 Bft) W-SW 257 0 min 0,000 mm 0,6 UV-I 150 W/m 7,7 C 7,6 C 16,1 km/h (3 Bft) 100,00 %
27.10.2016 13:42 10,1 C 85 % 1032,4 hPa 0,0 l/m 13,6 km/h (3 Bft) W 271 0 min 0,000 mm 0,6 UV-I 154 W/m 7,7 C 5,9 C 19,3 km/h (3 Bft) 92,31 %
27.10.2016 13:43 10,1 C 85 % 1032,3 hPa 0,0 l/m 6,9 km/h (2 Bft) W-NW 285 0 min 0,000 mm 0,6 UV-I 158 W/m 7,7 C 9,7 C 12,9 km/h (3 Bft) 100,00 %
27.10.2016 13:44 10,1 C 85 % 1032,2 hPa 0,0 l/m 6,7 km/h (2 Bft) SW 234 0 min 0,000 mm 0,7 UV-I 161 W/m 7,7 C 9,9 C 9,7 km/h (2 Bft) 96,15 %
27.10.2016 13:45 10,1 C 85 % 1032,3 hPa 0,0 l/m 9,5 km/h (2 Bft) W-SW 252 0 min 0,000 mm 0,6 UV-I 163 W/m 7,7 C 8,0 C 12,9 km/h (3 Bft) 100,00 %
27.10.2016 13:47 10,2 C 85 % 1032,2 hPa 0,0 l/m 7,1 km/h (2 Bft) W 263 0 min 0,000 mm 0,7 UV-I 166 W/m 7,8 C 9,7 C 16,1 km/h (3 Bft) 96,23 %
27.10.2016 13:48 10,2 C 85 % 1032,2 hPa 0,0 l/m 8,0 km/h (2 Bft) W 259 0 min 0,000 mm 0,7 UV-I 172 W/m 7,8 C 9,1 C 14,5 km/h (3 Bft) 98,76 %
27.10.2016 13:49 10,2 C 85 % 1032,3 hPa 0,0 l/m 11,4 km/h (2 Bft) W-SW 244 0 min 0,000 mm 0,7 UV-I 179 W/m 7,8 C 7,1 C 17,7 km/h (3 Bft) 97,73 %
27.10.2016 13:50 10,2 C 84 % 1032,3 hPa 0,0 l/m 16,4 km/h (3 Bft) W-SW 245 0 min 0,000 mm 0,7 UV-I 181 W/m 7,6 C 4,8 C 20,9 km/h (4 Bft) 95,65 %
27.10.2016 13:51 10,3 C 84 % 1032,3 hPa 0,0 l/m 16,1 km/h (3 Bft) W 269 0 min 0,000 mm 0,7 UV-I 188 W/m 7,7 C 5,1 C 22,5 km/h (4 Bft) 93,33 %
27.10.2016 13:52 10,3 C 83 % 1032,3 hPa 0,0 l/m 8,7 km/h (2 Bft) W 261 0 min 0,000 mm 0,8 UV-I 198 W/m 7,5 C 8,7 C 16,1 km/h (3 Bft) 100,00 %
27.10.2016 13:53 10,3 C 83 % 1032,2 hPa 0,0 l/m 2,9 km/h (1 Bft) W-SW 257 0 min 0,000 mm 0,7 UV-I 194 W/m 7,5 C 10,3 C 4,8 km/h (1 Bft) 96,15 %
27.10.2016 13:54 10,3 C 83 % 1032,2 hPa 0,0 l/m 6,0 km/h (2 Bft) W 281 0 min 0,000 mm 0,7 UV-I 198 W/m 7,5 C 10,3 C 9,7 km/h (2 Bft) 93,10 %
27.10.2016 13:55 10,3 C 83 % 1032,2 hPa 0,0 l/m 9,8 km/h (2 Bft) W 276 0 min 0,000 mm 0,7 UV-I 197 W/m 7,5 C 8,0 C 12,9 km/h (3 Bft) 100,00 %
27.10.2016 13:56 10,3 C 83 % 1032,2 hPa 0,0 l/m 8,7 km/h (2 Bft) W-SW 254 0 min 0,000 mm 0,8 UV-I 209 W/m 7,5 C 8,7 C 12,9 km/h (3 Bft) 96,67 %
27.10.2016 13:57 10,3 C 83 % 1032,1 hPa 0,0 l/m 5,4 km/h (1 Bft) W-SW 242 0 min 0,000 mm 0,8 UV-I 229 W/m 7,5 C 10,3 C 9,7 km/h (2 Bft) 92,31 %
27.10.2016 13:58 10,4 C 84 % 1032,2 hPa 0,0 l/m 14,0 km/h (3 Bft) W 262 0 min 0,000 mm 0,9 UV-I 249 W/m 7,8 C 6,0 C 17,7 km/h (3 Bft) 87,50 %
27.10.2016 13:59 10,4 C 83 % 1032,1 hPa 0,0 l/m 11,9 km/h (2 Bft) W-SW 238 1 min 0,000 mm 0,9 UV-I 268 W/m 7,6 C 7,0 C 14,5 km/h (3 Bft) 100,00 %
27.10.2016 14:00 10,4 C 83 % 1032,1 hPa 0,0 l/m 9,3 km/h (2 Bft) W-SW 237 1 min 0,000 mm 0,9 UV-I 265 W/m 7,6 C 8,4 C 11,3 km/h (2 Bft) 95,83 %
27.10.2016 14:01 10,4 C 83 % 1032,1 hPa 0,0 l/m 8,1 km/h (2 Bft) W-SW 257 1 min 0,077 mm 0,9 UV-I 269 W/m 7,6 C 9,2 C 12,9 km/h (3 Bft) 95,65 %
27.10.2016 14:02 10,5 C 83 % 1032,1 hPa 0,0 l/m 7,2 km/h (2 Bft) SW 225 1 min 0,000 mm 0,9 UV-I 260 W/m 7,7 C 9,9 C 14,5 km/h (3 Bft) 100,00 %
27.10.2016 14:03 10,6 C 84 % 1032,1 hPa 0,0 l/m 8,9 km/h (2 Bft) W 261 1 min 0,000 mm 0,9 UV-I 267 W/m 8,0 C 8,9 C 11,3 km/h (2 Bft) 100,00 %
27.10.2016 14:04 10,6 C 83 % 1032,1 hPa 0,0 l/m 8,4 km/h (2 Bft) W 262 1 min 0,000 mm 0,9 UV-I 290 W/m 7,8 C 9,2 C 16,1 km/h (3 Bft) 96,30 %
27.10.2016 14:05 10,7 C 82 % 1032,1 hPa 0,0 l/m 14,6 km/h (3 Bft) W-SW 240 1 min 0,000 mm 0,9 UV-I 296 W/m 7,8 C 6,1 C 19,3 km/h (3 Bft) 95,65 %
27.10.2016 14:06 10,7 C 82 % 1032,1 hPa 0,0 l/m 8,6 km/h (2 Bft) W 281 1 min 0,000 mm 0,9 UV-I 307 W/m 7,8 C 9,2 C 17,7 km/h (3 Bft) 100,00 %
27.10.2016 14:07 10,7 C 82 % 1032,1 hPa 0,0 l/m 3,3 km/h (1 Bft) SW 218 1 min 0,000 mm 0,9 UV-I 298 W/m 7,8 C 10,7 C 6,4 km/h (2 Bft) 95,65 %
27.10.2016 14:08 10,8 C 82 % 1032,1 hPa 0,0 l/m 7,9 km/h (2 Bft) W 261 1 min 0,000 mm 0,9 UV-I 290 W/m 7,9 C 9,8 C 11,3 km/h (2 Bft) 100,00 %
27.10.2016 14:09 10,8 C 83 % 1032,1 hPa 0,0 l/m 11,7 km/h (2 Bft) W 270 1 min 0,000 mm 0,9 UV-I 289 W/m 8,0 C 7,6 C 17,7 km/h (3 Bft) 93,33 %
27.10.2016 14:10 10,8 C 82 % 1032,2 hPa 0,0 l/m 14,2 km/h (3 Bft) W-SW 254 1 min 0,000 mm 0,9 UV-I 284 W/m 7,9 C 6,4 C 20,9 km/h (4 Bft) 96,15 %
27.10.2016 14:11 10,8 C 81 % 1032,1 hPa 0,0 l/m 15,9 km/h (3 Bft) W 263 1 min 0,000 mm 0,9 UV-I 273 W/m 7,7 C 5,7 C 20,9 km/h (4 Bft) 96,43 %
27.10.2016 14:12 10,8 C 80 % 1032,2 hPa 0,0 l/m 12,7 km/h (3 Bft) W-SW 246 1 min 0,000 mm 0,9 UV-I 261 W/m 7,5 C 7,1 C 19,3 km/h (3 Bft) 100,00 %
27.10.2016 14:13 10,8 C 80 % 1032,2 hPa 0,0 l/m 10,3 km/h (2 Bft) W-NW 283 1 min 0,000 mm 0,8 UV-I 244 W/m 7,5 C 8,3 C 12,9 km/h (3 Bft) 95,83 %
27.10.2016 14:14 10,8 C 81 % 1032,2 hPa 0,0 l/m 12,0 km/h (2 Bft) W-SW 256 0 min 0,000 mm 0,8 UV-I 219 W/m 7,7 C 7,4 C 17,7 km/h (3 Bft) 100,00 %
27.10.2016 14:15 10,8 C 81 % 1032,2 hPa 0,0 l/m 13,4 km/h (3 Bft) W-NW 291 0 min 0,000 mm 0,7 UV-I 192 W/m 7,7 C 6,8 C 20,9 km/h (4 Bft) 100,00 %
27.10.2016 14:16 10,8 C 81 % 1032,2 hPa 0,0 l/m 8,7 km/h (2 Bft) W 260 0 min 0,000 mm 0,6 UV-I 173 W/m 7,7 C 9,2 C 16,1 km/h (3 Bft) 100,00 %
27.10.2016 14:17 10,8 C 81 % 1032,2 hPa 0,0 l/m 9,0 km/h (2 Bft) W 268 0 min 0,000 mm 0,6 UV-I 157 W/m 7,7 C 9,1 C 14,5 km/h (3 Bft) 100,00 %
27.10.2016 14:18 10,8 C 80 % 1032,2 hPa 0,0 l/m 13,0 km/h (3 Bft) W-SW 254 0 min 0,000 mm 0,6 UV-I 145 W/m 7,5 C 7,0 C 16,1 km/h (3 Bft) 95,65 %
27.10.2016 14:19 10,7 C 81 % 1032,2 hPa 0,0 l/m 9,9 km/h (2 Bft) W-SW 255 0 min 0,000 mm 0,5 UV-I 132 W/m 7,6 C 8,4 C 12,9 km/h (3 Bft) 100,00 %
27.10.2016 14:20 10,7 C 81 % 1032,2 hPa 0,0 l/m 9,7 km/h (2 Bft) SW 224 0 min 0,000 mm 0,4 UV-I 119 W/m 7,6 C 8,5 C 16,1 km/h (3 Bft) 100,00 %
27.10.2016 14:21 10,7 C 81 % 1032,2 hPa 0,0 l/m 9,2 km/h (2 Bft) W-SW 238 0 min 0,000 mm 0,0 UV-I 104 W/m 7,6 C 8,8 C 12,9 km/h (3 Bft) 100,00 %
27.10.2016 14:22 10,7 C 81 % 1032,2 hPa 0,0 l/m 11,4 km/h (2 Bft) NW 306 0 min 0,000 mm 0,0 UV-I 92 W/m 7,6 C 7,6 C 14,5 km/h (3 Bft) 96,55 %
27.10.2016 14:24 10,6 C 81 % 1032,2 hPa 0,0 l/m 7,0 km/h (2 Bft) W-NW 285 0 min 0,000 mm 0,0 UV-I 75 W/m 7,5 C 10,2 C 11,3 km/h (2 Bft) 100,00 %
27.10.2016 14:26 10,5 C 81 % 1032,1 hPa 0,0 l/m 5,8 km/h (2 Bft) W 262 0 min 0,000 mm 0,0 UV-I 61 W/m 7,4 C 10,5 C 12,9 km/h (3 Bft) 100,00 %
27.10.2016 14:28 10,5 C 81 % 1032,2 hPa 0,0 l/m 9,3 km/h (2 Bft) W-SW 244 0 min 0,000 mm 0,0 UV-I 53 W/m 7,4 C 8,6 C 16,1 km/h (3 Bft) 97,87 %
27.10.2016 14:30 10,4 C 82 % 1032,2 hPa 0,0 l/m 6,7 km/h (2 Bft) W 261 0 min 0,000 mm 0,0 UV-I 48 W/m 7,5 C 10,2 C 11,3 km/h (2 Bft) 100,00 %
27.10.2016 14:32 10,4 C 82 % 1032,2 hPa 0,0 l/m 10,6 km/h (2 Bft) W 264 0 min 0,000 mm 0,0 UV-I 47 W/m 7,5 C 7,7 C 14,5 km/h (3 Bft) 97,83 %
27.10.2016 14:34 10,4 C 82 % 1032,2 hPa 0,0 l/m 5,3 km/h (1 Bft) W 263 0 min 0,000 mm 0,0 UV-I 46 W/m 7,5 C 10,4 C 12,9 km/h (3 Bft) 100,00 %
27.10.2016 14:36 10,3 C 82 % 1032,2 hPa 0,0 l/m 6,5 km/h (2 Bft) W 269 0 min 0,000 mm 0,0 UV-I 47 W/m 7,4 C 10,3 C 11,3 km/h (2 Bft) 100,00 %
27.10.2016 14:38 10,3 C 82 % 1032,1 hPa 0,0 l/m 3,5 km/h (1 Bft) W 273 0 min 0,000 mm 0,0 UV-I 49 W/m 7,4 C 10,3 C 4,8 km/h (1 Bft) 100,00 %
27.10.2016 14:40 10,3 C 82 % 1032,1 hPa 0,0 l/m 7,9 km/h (2 Bft) W 271 0 min 0,000 mm 0,0 UV-I 50 W/m 7,4 C 9,2 C 16,1 km/h (3 Bft) 100,00 %
27.10.2016 14:42 10,3 C 81 % 1032,0 hPa 0,0 l/m 7,2 km/h (2 Bft) W-NW 298 0 min 0,000 mm 0,0 UV-I 55 W/m 7,2 C 9,7 C 14,5 km/h (3 Bft) 100,00 %
27.10.2016 14:44 10,3 C 82 % 1032,0 hPa 0,0 l/m 6,3 km/h (2 Bft) W-SW 256 0 min 0,000 mm 0,0 UV-I 61 W/m 7,4 C 10,3 C 9,7 km/h (2 Bft) 100,00 %
27.10.2016 14:46 10,3 C 83 % 1032,0 hPa 0,0 l/m 5,2 km/h (1 Bft) W-SW 247 0 min 0,000 mm 0,0 UV-I 59 W/m 7,5 C 10,3 C 9,7 km/h (2 Bft) 100,00 %
27.10.2016 14:48 10,3 C 82 % 1032,1 hPa 0,0 l/m 7,5 km/h (2 Bft) SW 236 0 min 0,000 mm 0,0 UV-I 51 W/m 7,4 C 9,5 C 12,9 km/h (3 Bft) 100,00 %
27.10.2016 14:50 10,3 C 82 % 1032,0 hPa 0,0 l/m 5,0 km/h (1 Bft) W-SW 252 0 min 0,000 mm 0,0 UV-I 47 W/m 7,4 C 10,3 C 8,0 km/h (2 Bft) 100,00 %
27.10.2016 14:52 10,2 C 82 % 1032,1 hPa 0,0 l/m 7,1 km/h (2 Bft) W-SW 243 0 min 0,000 mm 0,0 UV-I 45 W/m 7,3 C 9,7 C 12,9 km/h (3 Bft) 100,00 %
27.10.2016 14:54 10,2 C 82 % 1032,0 hPa 0,0 l/m 5,6 km/h (1 Bft) W-SW 248 0 min 0,000 mm 0,0 UV-I 40 W/m 7,3 C 10,2 C 9,7 km/h (2 Bft) 100,00 %
27.10.2016 14:56 10,3 C 83 % 1032,0 hPa 0,0 l/m 6,3 km/h (2 Bft) W-SW 257 0 min 0,000 mm 0,0 UV-I 35 W/m 7,5 C 10,3 C 9,7 km/h (2 Bft) 100,00 %
27.10.2016 14:58 10,3 C 83 % 1032,0 hPa 0,0 l/m 6,2 km/h (2 Bft) W-SW 256 0 min 0,000 mm 0,0 UV-I 29 W/m 7,5 C 10,3 C 11,3 km/h (2 Bft) 100,00 %
27.10.2016 15:00 10,3 C 83 % 1032,0 hPa 0,0 l/m 5,7 km/h (1 Bft) W-SW 249 0 min 0,076 mm 0,0 UV-I 26 W/m 7,5 C 10,3 C 11,3 km/h (2 Bft) 100,00 %
27.10.2016 15:02 10,3 C 83 % 1032,0 hPa 0,0 l/m 6,7 km/h (2 Bft) W 275 0 min 0,000 mm 0,0 UV-I 26 W/m 7,5 C 10,1 C 11,3 km/h (2 Bft) 100,00 %
27.10.2016 15:04 10,3 C 83 % 1032,0 hPa 0,0 l/m 5,9 km/h (2 Bft) W-NW 291 0 min 0,000 mm 0,0 UV-I 26 W/m 7,5 C 10,3 C 9,7 km/h (2 Bft) 100,00 %
27.10.2016 15:06 10,3 C 83 % 1032,1 hPa 0,0 l/m 5,3 km/h (1 Bft) W-SW 254 0 min 0,000 mm 0,0 UV-I 25 W/m 7,5 C 10,3 C 8,0 km/h (2 Bft) 100,00 %
27.10.2016 15:08 10,3 C 83 % 1032,1 hPa 0,0 l/m 6,8 km/h (2 Bft) W-SW 243 0 min 0,000 mm 0,0 UV-I 25 W/m 7,5 C 10,0 C 11,3 km/h (2 Bft) 100,00 %
27.10.2016 15:10 10,3 C 83 % 1032,0 hPa 0,0 l/m 6,0 km/h (2 Bft) W-SW 247 0 min 0,000 mm 0,0 UV-I 23 W/m 7,5 C 10,3 C 11,3 km/h (2 Bft) 100,00 %
27.10.2016 15:12 10,3 C 83 % 1032,0 hPa 0,0 l/m 8,3 km/h (2 Bft) W 266 0 min 0,000 mm 0,0 UV-I 23 W/m 7,5 C 9,0 C 16,1 km/h (3 Bft) 100,00 %
27.10.2016 15:14 10,4 C 82 % 1032,0 hPa 0,0 l/m 7,7 km/h (2 Bft) W 275 0 min 0,000 mm 0,0 UV-I 24 W/m 7,5 C 9,5 C 12,9 km/h (3 Bft) 100,00 %
27.10.2016 15:16 10,3 C 83 % 1032,0 hPa 0,0 l/m 5,3 km/h (1 Bft) W 275 0 min 0,000 mm 0,0 UV-I 26 W/m 7,5 C 10,3 C 9,7 km/h (2 Bft) 100,00 %
27.10.2016 15:18 10,3 C 82 % 1032,0 hPa 0,0 l/m 8,7 km/h (2 Bft) W 274 0 min 0,000 mm 0,0 UV-I 26 W/m 7,4 C 8,7 C 16,1 km/h (3 Bft) 98,00 %
27.10.2016 15:20 10,3 C 83 % 1032,0 hPa 0,0 l/m 6,7 km/h (2 Bft) W-SW 250 0 min 0,000 mm 0,0 UV-I 30 W/m 7,5 C 10,1 C 11,3 km/h (2 Bft) 98,00 %
27.10.2016 15:22 10,3 C 83 % 1032,0 hPa 0,0 l/m 4,9 km/h (1 Bft) W 266 0 min 0,000 mm 0,0 UV-I 31 W/m 7,5 C 10,3 C 8,0 km/h (2 Bft) 100,00 %
27.10.2016 15:24 10,3 C 83 % 1031,9 hPa 0,0 l/m 6,3 km/h (2 Bft) W 272 0 min 0,000 mm 0,0 UV-I 33 W/m 7,5 C 10,3 C 12,9 km/h (3 Bft) 97,56 %
27.10.2016 15:26 10,3 C 83 % 1031,9 hPa 0,0 l/m 5,0 km/h (1 Bft) W 269 0 min 0,000 mm 0,0 UV-I 34 W/m 7,5 C 10,3 C 9,7 km/h (2 Bft) 100,00 %
27.10.2016 15:28 10,3 C 83 % 1031,9 hPa 0,0 l/m 3,2 km/h (1 Bft) W 266 0 min 0,000 mm 0,0 UV-I 39 W/m 7,5 C 10,3 C 6,4 km/h (2 Bft) 97,87 %
27.10.2016 15:30 10,3 C 83 % 1031,9 hPa 0,0 l/m 6,7 km/h (2 Bft) W-NW 288 0 min 0,000 mm 0,0 UV-I 45 W/m 7,5 C 10,1 C 12,9 km/h (3 Bft) 100,00 %
27.10.2016 15:32 10,2 C 83 % 1031,9 hPa 0,0 l/m 5,7 km/h (1 Bft) SW 236 0 min 0,000 mm 0,0 UV-I 54 W/m 7,4 C 10,2 C 9,7 km/h (2 Bft) 100,00 %
27.10.2016 15:34 10,2 C 83 % 1031,9 hPa 0,0 l/m 4,7 km/h (1 Bft) W-SW 244 0 min 0,000 mm 0,0 UV-I 65 W/m 7,4 C 10,2 C 6,4 km/h (2 Bft) 96,43 %
27.10.2016 15:36 10,2 C 83 % 1032,0 hPa 0,0 l/m 5,3 km/h (1 Bft) W 271 0 min 0,000 mm 0,0 UV-I 79 W/m 7,4 C 10,2 C 11,3 km/h (2 Bft) 100,00 %
27.10.2016 15:38 10,3 C 83 % 1031,9 hPa 0,0 l/m 5,5 km/h (1 Bft) W 273 0 min 0,000 mm 0,0 UV-I 95 W/m 7,5 C 10,3 C 9,7 km/h (2 Bft) 93,18 %
27.10.2016 15:40 10,3 C 83 % 1032,0 hPa 0,0 l/m 3,5 km/h (1 Bft) W 274 0 min 0,000 mm 0,0 UV-I 104 W/m 7,5 C 10,3 C 6,4 km/h (2 Bft) 96,23 %
27.10.2016 15:42 10,3 C 84 % 1032,0 hPa 0,0 l/m 4,9 km/h (1 Bft) W-SW 254 0 min 0,000 mm 0,0 UV-I 111 W/m 7,7 C 10,3 C 9,7 km/h (2 Bft) 98,00 %
27.10.2016 15:44 10,4 C 83 % 1032,0 hPa 0,0 l/m 7,2 km/h (2 Bft) W 270 0 min 0,000 mm 0,0 UV-I 125 W/m 7,6 C 9,8 C 12,9 km/h (3 Bft) 100,00 %
27.10.2016 15:46 10,4 C 83 % 1031,9 hPa 0,0 l/m 4,8 km/h (1 Bft) W-SW 248 0 min 0,000 mm 0,0 UV-I 136 W/m 7,6 C 10,4 C 9,7 km/h (2 Bft) 96,77 %
27.10.2016 15:48 10,5 C 83 % 1031,9 hPa 0,0 l/m 4,4 km/h (1 Bft) W-SW 258 0 min 0,000 mm 0,0 UV-I 138 W/m 7,7 C 10,5 C 8,0 km/h (2 Bft) 97,87 %
27.10.2016 15:50 10,5 C 83 % 1031,9 hPa 0,0 l/m 9,2 km/h (2 Bft) W-SW 255 0 min 0,000 mm 0,0 UV-I 124 W/m 7,7 C 8,6 C 17,7 km/h (3 Bft) 98,00 %
27.10.2016 15:52 10,4 C 82 % 1031,9 hPa 0,0 l/m 10,0 km/h (2 Bft) W-SW 250 0 min 0,000 mm 0,0 UV-I 137 W/m 7,5 C 8,0 C 17,7 km/h (3 Bft) 97,73 %
27.10.2016 15:54 10,4 C 82 % 1031,8 hPa 0,0 l/m 7,1 km/h (2 Bft) W-NW 286 2 min 0,000 mm 0,0 UV-I 204 W/m 7,5 C 9,9 C 12,9 km/h (3 Bft) 97,56 %
27.10.2016 15:56 10,5 C 83 % 1031,9 hPa 0,0 l/m 9,6 km/h (2 Bft) W-SW 238 2 min 0,000 mm 0,0 UV-I 220 W/m 7,7 C 8,4 C 17,7 km/h (3 Bft) 96,77 %
27.10.2016 15:58 10,5 C 82 % 1031,9 hPa 0,0 l/m 8,6 km/h (2 Bft) W 265 2 min 0,000 mm 0,0 UV-I 164 W/m 7,6 C 9,0 C 14,5 km/h (3 Bft) 94,74 %
27.10.2016 16:00 10,6 C 81 % 1032,0 hPa 0,0 l/m 8,2 km/h (2 Bft) W 260 2 min 0,051 mm 0,0 UV-I 207 W/m 7,5 C 9,4 C 17,7 km/h (3 Bft) 96,43 %
27.10.2016 16:02 10,6 C 82 % 1031,9 hPa 0,0 l/m 6,6 km/h (2 Bft) W-SW 256 2 min 0,000 mm 0,0 UV-I 208 W/m 7,7 C 10,5 C 14,5 km/h (3 Bft) 97,56 %
27.10.2016 16:04 10,6 C 82 % 1032,0 hPa 0,0 l/m 5,7 km/h (1 Bft) W-SW 246 2 min 0,000 mm 0,0 UV-I 211 W/m 7,7 C 10,6 C 11,3 km/h (2 Bft) 97,37 %
27.10.2016 16:06 10,6 C 81 % 1031,9 hPa 0,0 l/m 7,4 km/h (2 Bft) W-SW 254 2 min 0,000 mm 0,0 UV-I 202 W/m 7,5 C 9,9 C 11,3 km/h (2 Bft) 98,21 %
27.10.2016 16:08 10,6 C 81 % 1032,0 hPa 0,0 l/m 9,4 km/h (2 Bft) W 266 2 min 0,000 mm 0,0 UV-I 185 W/m 7,5 C 8,6 C 16,1 km/h (3 Bft) 96,15 %
27.10.2016 16:10 10,6 C 82 % 1032,0 hPa 0,0 l/m 7,8 km/h (2 Bft) W-SW 253 2 min 0,000 mm 0,0 UV-I 177 W/m 7,7 C 9,6 C 14,5 km/h (3 Bft) 98,44 %
27.10.2016 16:12 10,5 C 81 % 1032,1 hPa 0,0 l/m 9,8 km/h (2 Bft) W 264 2 min 0,000 mm 0,0 UV-I 164 W/m 7,4 C 8,3 C 20,9 km/h (4 Bft) 100,00 %
27.10.2016 16:14 10,6 C 81 % 1032,0 hPa 0,0 l/m 8,4 km/h (2 Bft) W-SW 254 2 min 0,000 mm 0,0 UV-I 146 W/m 7,5 C 9,2 C 12,9 km/h (3 Bft) 97,56 %
27.10.2016 16:16 10,6 C 81 % 1032,0 hPa 0,0 l/m 7,4 km/h (2 Bft) W-SW 252 2 min 0,000 mm 0,0 UV-I 173 W/m 7,5 C 9,9 C 17,7 km/h (3 Bft) 100,00 %
27.10.2016 16:18 10,6 C 81 % 1032,0 hPa 0,0 l/m 7,3 km/h (2 Bft) W 281 2 min 0,000 mm 0,0 UV-I 177 W/m 7,5 C 10,0 C 16,1 km/h (3 Bft) 97,87 %
27.10.2016 16:20 10,6 C 82 % 1032,0 hPa 0,0 l/m 3,1 km/h (1 Bft) W 271 2 min 0,000 mm 0,0 UV-I 175 W/m 7,7 C 10,6 C 11,3 km/h (2 Bft) 100,00 %
27.10.2016 16:22 10,7 C 82 % 1032,0 hPa 0,0 l/m 6,4 km/h (2 Bft) W-SW 248 2 min 0,000 mm 0,0 UV-I 175 W/m 7,8 C 10,7 C 9,7 km/h (2 Bft) 100,00 %
27.10.2016 16:24 10,7 C 81 % 1032,0 hPa 0,0 l/m 6,5 km/h (2 Bft) W-SW 244 2 min 0,000 mm 0,0 UV-I 156 W/m 7,6 C 10,7 C 11,3 km/h (2 Bft) 97,44 %
27.10.2016 16:26 10,7 C 81 % 1032,1 hPa 0,0 l/m 6,4 km/h (2 Bft) W 261 2 min 0,000 mm 0,0 UV-I 156 W/m 7,6 C 10,7 C 12,9 km/h (3 Bft) 100,00 %
27.10.2016 16:28 10,6 C 81 % 1032,1 hPa 0,0 l/m 4,1 km/h (1 Bft) W 269 2 min 0,000 mm 0,0 UV-I 154 W/m 7,5 C 10,6 C 9,7 km/h (2 Bft) 100,00 %
27.10.2016 16:30 10,6 C 82 % 1032,2 hPa 0,0 l/m 4,8 km/h (1 Bft) W 270 2 min 0,000 mm 0,0 UV-I 145 W/m 7,7 C 10,6 C 12,9 km/h (3 Bft) 97,37 %
27.10.2016 16:32 10,6 C 81 % 1032,2 hPa 0,0 l/m 8,9 km/h (2 Bft) SW 229 2 min 0,000 mm 0,0 UV-I 150 W/m 7,5 C 8,9 C 14,5 km/h (3 Bft) 98,92 %
27.10.2016 16:34 10,6 C 81 % 1032,2 hPa 0,0 l/m 8,4 km/h (2 Bft) W 265 2 min 0,000 mm 0,0 UV-I 145 W/m 7,5 C 9,2 C 14,5 km/h (3 Bft) 100,00 %
27.10.2016 16:36 10,6 C 81 % 1032,1 hPa 0,0 l/m 6,8 km/h (2 Bft) W-SW 254 2 min 0,000 mm 0,0 UV-I 138 W/m 7,5 C 10,3 C 14,5 km/h (3 Bft) 100,00 %
27.10.2016 16:38 10,5 C 81 % 1032,2 hPa 0,0 l/m 9,1 km/h (2 Bft) W-SW 252 2 min 0,000 mm 0,0 UV-I 136 W/m 7,4 C 8,7 C 14,5 km/h (3 Bft) 100,00 %
27.10.2016 16:40 10,5 C 82 % 1032,1 hPa 0,0 l/m 5,9 km/h (2 Bft) W 272 2 min 0,000 mm 0,0 UV-I 133 W/m 7,6 C 10,5 C 11,3 km/h (2 Bft) 100,00 %
27.10.2016 16:42 10,5 C 81 % 1032,2 hPa 0,0 l/m 7,8 km/h (2 Bft) SW 217 2 min 0,000 mm 0,0 UV-I 131 W/m 7,4 C 9,5 C 14,5 km/h (3 Bft) 100,00 %
27.10.2016 16:44 10,5 C 81 % 1032,1 hPa 0,0 l/m 9,0 km/h (2 Bft) W 259 2 min 0,000 mm 0,0 UV-I 103 W/m 7,4 C 8,7 C 14,5 km/h (3 Bft) 98,11 %
27.10.2016 16:46 10,4 C 80 % 1032,1 hPa 0,0 l/m 9,3 km/h (2 Bft) W-SW 254 0 min 0,000 mm 0,0 UV-I 78 W/m 7,1 C 8,4 C 20,9 km/h (4 Bft) 97,37 %
27.10.2016 16:48 10,4 C 80 % 1032,1 hPa 0,0 l/m 10,2 km/h (2 Bft) W-SW 240 0 min 0,000 mm 0,0 UV-I 77 W/m 7,1 C 7,9 C 17,7 km/h (3 Bft) 98,11 %
27.10.2016 16:50 10,4 C 81 % 1032,1 hPa 0,0 l/m 8,3 km/h (2 Bft) W-SW 246 0 min 0,000 mm 0,0 UV-I 72 W/m 7,3 C 9,1 C 11,3 km/h (2 Bft) 100,00 %
27.10.2016 16:52 10,3 C 81 % 1032,2 hPa 0,0 l/m 7,7 km/h (2 Bft) W-SW 258 0 min 0,000 mm 0,0 UV-I 63 W/m 7,2 C 9,4 C 11,3 km/h (2 Bft) 100,00 %
27.10.2016 16:54 10,2 C 81 % 1032,2 hPa 0,0 l/m 9,6 km/h (2 Bft) W 263 0 min 0,000 mm 0,0 UV-I 56 W/m 7,1 C 8,0 C 14,5 km/h (3 Bft) 100,00 %
27.10.2016 16:56 10,2 C 81 % 1032,1 hPa 0,0 l/m 10,0 km/h (2 Bft) W-NW 296 0 min 0,000 mm 0,0 UV-I 52 W/m 7,1 C 7,8 C 14,5 km/h (3 Bft) 100,00 %
27.10.2016 16:58 10,2 C 82 % 1032,2 hPa 0,0 l/m 9,1 km/h (2 Bft) W 273 0 min 0,000 mm 0,0 UV-I 48 W/m 7,3 C 8,4 C 14,5 km/h (3 Bft) 100,00 %
27.10.2016 17:00 10,1 C 82 % 1032,2 hPa 0,0 l/m 10,1 km/h (2 Bft) W-SW 250 0 min 0,076 mm 0,0 UV-I 44 W/m 7,2 C 7,6 C 17,7 km/h (3 Bft) 97,37 %
27.10.2016 17:03 10,1 C 81 % 1032,2 hPa 0,0 l/m 10,7 km/h (2 Bft) W 271 0 min 0,000 mm 0,0 UV-I 39 W/m 7,0 C 7,3 C 19,3 km/h (3 Bft) 98,53 %
27.10.2016 17:04 10,1 C 81 % 1032,1 hPa 0,0 l/m 13,3 km/h (3 Bft) W-SW 238 0 min 0,000 mm 0,0 UV-I 37 W/m 7,0 C 6,0 C 16,1 km/h (3 Bft) 100,00 %
27.10.2016 17:06 10,1 C 81 % 1032,3 hPa 0,0 l/m 10,8 km/h (2 Bft) W 261 0 min 0,000 mm 0,0 UV-I 36 W/m 7,0 C 7,3 C 16,1 km/h (3 Bft) 100,00 %
27.10.2016 17:08 10,1 C 81 % 1032,2 hPa 0,0 l/m 10,8 km/h (2 Bft) W-SW 252 0 min 0,000 mm 0,0 UV-I 34 W/m 7,0 C 7,3 C 16,1 km/h (3 Bft) 100,00 %
27.10.2016 17:10 10,1 C 81 % 1032,2 hPa 0,0 l/m 8,2 km/h (2 Bft) W-SW 256 0 min 0,000 mm 0,0 UV-I 33 W/m 7,0 C 8,8 C 12,9 km/h (3 Bft) 100,00 %
27.10.2016 17:12 10,0 C 81 % 1032,2 hPa 0,0 l/m 8,7 km/h (2 Bft) W-SW 250 0 min 0,000 mm 0,0 UV-I 32 W/m 6,9 C 8,4 C 14,5 km/h (3 Bft) 100,00 %
27.10.2016 17:14 9,9 C 81 % 1032,3 hPa 0,0 l/m 8,5 km/h (2 Bft) W-SW 256 0 min 0,000 mm 0,0 UV-I 32 W/m 6,8 C 8,4 C 12,9 km/h (3 Bft) 100,00 %
27.10.2016 17:16 9,9 C 81 % 1032,3 hPa 0,0 l/m 6,6 km/h (2 Bft) W-SW 253 0 min 0,000 mm 0,0 UV-I 31 W/m 6,8 C 9,8 C 14,5 km/h (3 Bft) 100,00 %
27.10.2016 17:18 9,9 C 81 % 1032,3 hPa 0,0 l/m 7,2 km/h (2 Bft) W-SW 254 0 min 0,000 mm 0,0 UV-I 27 W/m 6,8 C 9,3 C 9,7 km/h (2 Bft) 100,00 %
27.10.2016 17:20 9,9 C 82 % 1032,3 hPa 0,0 l/m 8,3 km/h (2 Bft) W-NW 294 0 min 0,000 mm 0,0 UV-I 24 W/m 7,0 C 8,5 C 11,3 km/h (2 Bft) 100,00 %
27.10.2016 17:22 9,9 C 82 % 1032,3 hPa 0,0 l/m 4,7 km/h (1 Bft) W 264 0 min 0,000 mm 0,0 UV-I 21 W/m 7,0 C 9,9 C 9,7 km/h (2 Bft) 97,73 %
27.10.2016 17:24 9,8 C 82 % 1032,4 hPa 0,0 l/m 4,9 km/h (1 Bft) W 269 0 min 0,000 mm 0,0 UV-I 19 W/m 6,9 C 9,8 C 9,7 km/h (2 Bft) 100,00 %
27.10.2016 17:26 9,8 C 83 % 1032,4 hPa 0,0 l/m 4,9 km/h (1 Bft) W 259 0 min 0,000 mm 0,0 UV-I 17 W/m 7,1 C 9,8 C 11,3 km/h (2 Bft) 100,00 %
27.10.2016 17:28 9,7 C 83 % 1032,5 hPa 0,0 l/m 4,7 km/h (1 Bft) W 269 0 min 0,000 mm 0,0 UV-I 16 W/m 7,0 C 9,7 C 9,7 km/h (2 Bft) 100,00 %
27.10.2016 17:30 9,7 C 83 % 1032,4 hPa 0,0 l/m 5,3 km/h (1 Bft) W-SW 256 0 min 0,000 mm 0,0 UV-I 18 W/m 7,0 C 9,7 C 11,3 km/h (2 Bft) 100,00 %
27.10.2016 17:32 9,7 C 84 % 1032,4 hPa 0,0 l/m 6,9 km/h (2 Bft) W 259 0 min 0,000 mm 0,0 UV-I 16 W/m 7,1 C 9,3 C 12,9 km/h (3 Bft) 100,00 %
27.10.2016 17:34 9,7 C 84 % 1032,5 hPa 0,0 l/m 7,3 km/h (2 Bft) W-SW 253 0 min 0,000 mm 0,0 UV-I 13 W/m 7,1 C 9,0 C 11,3 km/h (2 Bft) 97,87 %
27.10.2016 17:36 9,7 C 84 % 1032,5 hPa 0,0 l/m 6,6 km/h (2 Bft) W-SW 257 0 min 0,000 mm 0,0 UV-I 12 W/m 7,1 C 9,6 C 11,3 km/h (2 Bft) 97,87 %
27.10.2016 17:38 9,7 C 84 % 1032,5 hPa 0,0 l/m 6,2 km/h (2 Bft) W 261 0 min 0,000 mm 0,0 UV-I 11 W/m 7,1 C 9,7 C 11,3 km/h (2 Bft) 100,00 %
27.10.2016 17:40 9,6 C 84 % 1032,5 hPa 0,0 l/m 6,4 km/h (2 Bft) W-SW 249 0 min 0,000 mm 0,0 UV-I 9 W/m 7,0 C 9,6 C 9,7 km/h (2 Bft) 97,87 %
27.10.2016 17:42 9,6 C 84 % 1032,5 hPa 0,0 l/m 8,0 km/h (2 Bft) W 271 0 min 0,000 mm 0,0 UV-I 7 W/m 7,0 C 8,4 C 12,9 km/h (3 Bft) 100,00 %
27.10.2016 17:44 9,6 C 84 % 1032,5 hPa 0,0 l/m 8,2 km/h (2 Bft) W-SW 258 0 min 0,000 mm 0,0 UV-I 7 W/m 7,0 C 8,3 C 11,3 km/h (2 Bft) 100,00 %
27.10.2016 17:46 9,7 C 84 % 1032,5 hPa 0,0 l/m 8,4 km/h (2 Bft) W 259 0 min 0,000 mm 0,0 UV-I 7 W/m 7,1 C 8,3 C 12,9 km/h (3 Bft) 97,73 %
27.10.2016 17:48 9,7 C 83 % 1032,5 hPa 0,0 l/m 10,2 km/h (2 Bft) W 263 0 min 0,000 mm 0,0 UV-I 7 W/m 7,0 C 7,1 C 14,5 km/h (3 Bft) 97,78 %
27.10.2016 17:50 9,7 C 84 % 1032,5 hPa 0,0 l/m 9,5 km/h (2 Bft) NW 306 0 min 0,000 mm 0,0 UV-I 7 W/m 7,1 C 7,6 C 12,9 km/h (3 Bft) 96,00 %
27.10.2016 17:52 9,7 C 83 % 1032,5 hPa 0,0 l/m 10,6 km/h (2 Bft) W-SW 256 0 min 0,000 mm 0,0 UV-I 6 W/m 7,0 C 6,9 C 16,1 km/h (3 Bft) 97,56 %
27.10.2016 17:54 9,7 C 83 % 1032,5 hPa 0,0 l/m 7,8 km/h (2 Bft) W-SW 242 0 min 0,000 mm 0,0 UV-I 5 W/m 7,0 C 8,7 C 11,3 km/h (2 Bft) 97,87 %
27.10.2016 17:56 9,7 C 84 % 1032,5 hPa 0,0 l/m 8,1 km/h (2 Bft) W-SW 242 0 min 0,000 mm 0,0 UV-I 5 W/m 7,1 C 8,5 C 11,3 km/h (2 Bft) 95,45 %
27.10.2016 17:59 9,7 C 84 % 1032,5 hPa 0,0 l/m 8,8 km/h (2 Bft) W-SW 254 0 min 0,000 mm 0,0 UV-I 3 W/m 7,1 C 8,0 C 16,1 km/h (3 Bft) 95,71 %
27.10.2016 18:00 9,7 C 84 % 1032,5 hPa 0,0 l/m 8,6 km/h (2 Bft) W 266 0 min 0,000 mm 0,0 UV-I 0 W/m 7,1 C 8,1 C 11,3 km/h (2 Bft) 96,30 %
27.10.2016 18:02 9,6 C 84 % 1032,6 hPa 0,0 l/m 10,2 km/h (2 Bft) W 260 0 min 0,025 mm 0,0 UV-I 0 W/m 7,0 C 7,0 C 12,9 km/h (3 Bft) 97,56 %
27.10.2016 18:04 9,6 C 84 % 1032,6 hPa 0,0 l/m 6,1 km/h (2 Bft) W 266 0 min 0,000 mm 0,0 UV-I 0 W/m 7,0 C 9,6 C 9,7 km/h (2 Bft) 98,31 %
27.10.2016 18:06 9,6 C 84 % 1032,7 hPa 0,0 l/m 9,5 km/h (2 Bft) W-SW 258 0 min 0,000 mm 0,0 UV-I 0 W/m 7,0 C 7,5 C 16,1 km/h (3 Bft) 97,14 %
27.10.2016 18:08 9,6 C 84 % 1032,7 hPa 0,0 l/m 6,1 km/h (2 Bft) W 260 0 min 0,000 mm 0,0 UV-I 0 W/m 7,0 C 9,6 C 9,7 km/h (2 Bft) 98,21 %
27.10.2016 18:10 9,6 C 84 % 1032,8 hPa 0,0 l/m 5,7 km/h (1 Bft) W 269 0 min 0,000 mm 0,0 UV-I 0 W/m 7,0 C 9,6 C 11,3 km/h (2 Bft) 96,00 %
27.10.2016 18:12 9,6 C 84 % 1032,8 hPa 0,0 l/m 5,8 km/h (2 Bft) W-SW 256 0 min 0,000 mm 0,0 UV-I 0 W/m 7,0 C 9,6 C 11,3 km/h (2 Bft) 95,83 %
27.10.2016 18:14 9,6 C 84 % 1032,8 hPa 0,0 l/m 5,6 km/h (1 Bft) W-SW 244 0 min 0,000 mm 0,0 UV-I 0 W/m 7,0 C 9,6 C 9,7 km/h (2 Bft) 96,88 %
27.10.2016 18:16 9,6 C 84 % 1032,8 hPa 0,0 l/m 4,1 km/h (1 Bft) W 269 0 min 0,000 mm 0,0 UV-I 0 W/m 7,0 C 9,6 C 6,4 km/h (2 Bft) 98,00 %
27.10.2016 18:18 9,6 C 84 % 1032,8 hPa 0,0 l/m 5,4 km/h (1 Bft) SW 230 0 min 0,000 mm 0,0 UV-I 0 W/m 7,0 C 9,6 C 11,3 km/h (2 Bft) 94,74 %
27.10.2016 18:20 9,5 C 84 % 1032,9 hPa 0,0 l/m 4,7 km/h (1 Bft) W-SW 244 0 min 0,000 mm 0,0 UV-I 0 W/m 6,9 C 9,5 C 6,4 km/h (2 Bft) 98,11 %
27.10.2016 18:22 9,5 C 84 % 1032,9 hPa 0,0 l/m 5,4 km/h (1 Bft) W-SW 258 0 min 0,000 mm 0,0 UV-I 0 W/m 6,9 C 9,5 C 8,0 km/h (2 Bft) 100,00 %
27.10.2016 18:24 9,5 C 84 % 1032,9 hPa 0,0 l/m 5,1 km/h (1 Bft) SW 233 0 min 0,000 mm 0,0 UV-I 0 W/m 6,9 C 9,5 C 6,4 km/h (2 Bft) 100,00 %
27.10.2016 18:26 9,5 C 84 % 1033,0 hPa 0,0 l/m 4,5 km/h (1 Bft) W-SW 246 0 min 0,000 mm 0,0 UV-I 0 W/m 6,9 C 9,5 C 8,0 km/h (2 Bft) 100,00 %
27.10.2016 18:29 9,4 C 85 % 1033,0 hPa 0,0 l/m 4,6 km/h (1 Bft) W-SW 242 0 min 0,000 mm 0,0 UV-I 0 W/m 7,0 C 9,4 C 11,3 km/h (2 Bft) 96,92 %
27.10.2016 18:30 9,4 C 84 % 1033,0 hPa 0,0 l/m 4,8 km/h (1 Bft) W-SW 243 0 min 0,000 mm 0,0 UV-I 0 W/m 6,8 C 9,4 C 4,8 km/h (1 Bft) 100,00 %
27.10.2016 18:32 9,4 C 85 % 1033,0 hPa 0,0 l/m 4,5 km/h (1 Bft) W-SW 238 0 min 0,000 mm 0,0 UV-I 0 W/m 7,0 C 9,4 C 6,4 km/h (2 Bft) 100,00 %
27.10.2016 18:34 9,4 C 85 % 1033,0 hPa 0,0 l/m 5,2 km/h (1 Bft) W-SW 248 0 min 0,000 mm 0,0 UV-I 0 W/m 7,0 C 9,4 C 8,0 km/h (2 Bft) 100,00 %
27.10.2016 18:36 9,4 C 85 % 1032,9 hPa 0,0 l/m 6,0 km/h (2 Bft) W-SW 257 0 min 0,000 mm 0,0 UV-I 0 W/m 7,0 C 9,4 C 12,9 km/h (3 Bft) 100,00 %
27.10.2016 18:38 9,4 C 85 % 1033,0 hPa 0,0 l/m 5,9 km/h (2 Bft) W-SW 254 0 min 0,000 mm 0,0 UV-I 0 W/m 7,0 C 9,4 C 9,7 km/h (2 Bft) 100,00 %
27.10.2016 18:40 9,4 C 85 % 1033,0 hPa 0,0 l/m 6,1 km/h (2 Bft) W-SW 248 0 min 0,000 mm 0,0 UV-I 0 W/m 7,0 C 9,4 C 9,7 km/h (2 Bft) 100,00 %
27.10.2016 18:42 9,4 C 85 % 1033,1 hPa 0,0 l/m 5,6 km/h (1 Bft) W-SW 249 0 min 0,000 mm 0,0 UV-I 0 W/m 7,0 C 9,4 C 8,0 km/h (2 Bft) 100,00 %
27.10.2016 18:44 9,4 C 85 % 1033,1 hPa 0,0 l/m 5,2 km/h (1 Bft) SW 236 0 min 0,000 mm 0,0 UV-I 0 W/m 7,0 C 9,4 C 11,3 km/h (2 Bft) 98,00 %
27.10.2016 18:46 9,4 C 85 % 1033,1 hPa 0,0 l/m 3,5 km/h (1 Bft) SW 235 0 min 0,000 mm 0,0 UV-I 0 W/m 7,0 C 9,4 C 4,8 km/h (1 Bft) 98,00 %
27.10.2016 18:48 9,4 C 85 % 1033,2 hPa 0,0 l/m 1,2 km/h (1 Bft) SW 235 0 min 0,000 mm 0,0 UV-I 0 W/m 7,0 C 9,4 C 4,8 km/h (1 Bft) 100,00 %
27.10.2016 18:50 9,4 C 85 % 1033,2 hPa 0,0 l/m 1,1 km/h (1 Bft) SW 235 0 min 0,000 mm 0,0 UV-I 0 W/m 7,0 C 9,4 C 3,2 km/h (1 Bft) 100,00 %
27.10.2016 18:52 9,4 C 85 % 1033,2 hPa 0,0 l/m 2,7 km/h (1 Bft) SW 222 0 min 0,000 mm 0,0 UV-I 0 W/m 7,0 C 9,4 C 6,4 km/h (2 Bft) 100,00 %
27.10.2016 18:54 9,4 C 85 % 1033,3 hPa 0,0 l/m 4,1 km/h (1 Bft) SW 219 0 min 0,000 mm 0,0 UV-I 0 W/m 7,0 C 9,4 C 6,4 km/h (2 Bft) 100,00 %
27.10.2016 18:56 9,3 C 85 % 1033,3 hPa 0,0 l/m 2,1 km/h (1 Bft) SW 219 0 min 0,000 mm 0,0 UV-I 0 W/m 6,9 C 9,3 C 3,2 km/h (1 Bft) 98,00 %
27.10.2016 18:58 9,3 C 86 % 1033,3 hPa 0,0 l/m 3,8 km/h (1 Bft) SW 224 0 min 0,000 mm 0,0 UV-I 0 W/m 7,1 C 9,3 C 6,4 km/h (2 Bft) 100,00 %
27.10.2016 19:00 9,3 C 86 % 1033,4 hPa 0,0 l/m 5,1 km/h (1 Bft) SW 219 0 min 0,000 mm 0,0 UV-I 0 W/m 7,1 C 9,3 C 8,0 km/h (2 Bft) 100,00 %
27.10.2016 19:02 9,3 C 85 % 1033,4 hPa 0,0 l/m 2,1 km/h (1 Bft) SW 219 0 min 0,000 mm 0,0 UV-I 0 W/m 6,9 C 9,3 C 3,2 km/h (1 Bft) 100,00 %
27.10.2016 19:04 9,3 C 85 % 1033,4 hPa 0,0 l/m 3,9 km/h (1 Bft) SW 219 0 min 0,000 mm 0,0 UV-I 0 W/m 6,9 C 9,3 C 6,4 km/h (2 Bft) 100,00 %
27.10.2016 19:06 9,3 C 85 % 1033,4 hPa 0,0 l/m 5,4 km/h (1 Bft) SW 232 0 min 0,000 mm 0,0 UV-I 0 W/m 6,9 C 9,3 C 8,0 km/h (2 Bft) 100,00 %
27.10.2016 19:08 9,3 C 86 % 1033,4 hPa 0,0 l/m 7,0 km/h (2 Bft) SW 227 0 min 0,000 mm 0,0 UV-I 0 W/m 7,1 C 8,9 C 9,7 km/h (2 Bft) 100,00 %
27.10.2016 19:10 9,3 C 85 % 1033,4 hPa 0,0 l/m 4,6 km/h (1 Bft) W 274 0 min 0,000 mm 0,0 UV-I 0 W/m 6,9 C 9,3 C 8,0 km/h (2 Bft) 97,37 %
27.10.2016 19:12 9,3 C 86 % 1033,4 hPa 0,0 l/m 5,0 km/h (1 Bft) W 281 0 min 0,000 mm 0,0 UV-I 0 W/m 7,1 C 9,3 C 9,7 km/h (2 Bft) 100,00 %
27.10.2016 19:14 9,3 C 85 % 1033,4 hPa 0,0 l/m 4,6 km/h (1 Bft) W-SW 249 0 min 0,000 mm 0,0 UV-I 0 W/m 6,9 C 9,3 C 6,4 km/h (2 Bft) 100,00 %
27.10.2016 19:16 9,3 C 85 % 1033,4 hPa 0,0 l/m 4,8 km/h (1 Bft) W-SW 257 0 min 0,000 mm 0,0 UV-I 0 W/m 6,9 C 9,3 C 6,4 km/h (2 Bft) 100,00 %
27.10.2016 19:18 9,3 C 86 % 1033,4 hPa 0,0 l/m 5,5 km/h (1 Bft) W-SW 258 0 min 0,000 mm 0,0 UV-I 0 W/m 7,1 C 9,3 C 8,0 km/h (2 Bft) 100,00 %
27.10.2016 19:20 9,2 C 86 % 1033,4 hPa 0,0 l/m 4,2 km/h (1 Bft) W-SW 258 0 min 0,000 mm 0,0 UV-I 0 W/m 7,0 C 9,2 C 4,8 km/h (1 Bft) 100,00 %
27.10.2016 19:22 9,2 C 86 % 1033,4 hPa 0,0 l/m 4,6 km/h (1 Bft) W 259 0 min 0,000 mm 0,0 UV-I 0 W/m 7,0 C 9,2 C 6,4 km/h (2 Bft) 100,00 %
27.10.2016 19:24 9,2 C 86 % 1033,4 hPa 0,0 l/m 5,3 km/h (1 Bft) W 259 0 min 0,000 mm 0,0 UV-I 0 W/m 7,0 C 9,2 C 6,4 km/h (2 Bft) 100,00 %
27.10.2016 19:26 9,2 C 86 % 1033,4 hPa 0,0 l/m 7,1 km/h (2 Bft) W 261 0 min 0,000 mm 0,0 UV-I 0 W/m 7,0 C 8,7 C 11,3 km/h (2 Bft) 98,00 %
27.10.2016 19:28 9,2 C 86 % 1033,4 hPa 0,0 l/m 7,0 km/h (2 Bft) W 263 0 min 0,000 mm 0,0 UV-I 0 W/m 7,0 C 8,8 C 9,7 km/h (2 Bft) 97,14 %
27.10.2016 19:30 9,2 C 86 % 1033,5 hPa 0,0 l/m 7,8 km/h (2 Bft) W 261 0 min 0,000 mm 0,0 UV-I 0 W/m 7,0 C 8,2 C 12,9 km/h (3 Bft) 100,00 %
27.10.2016 19:32 9,2 C 86 % 1033,5 hPa 0,0 l/m 8,2 km/h (2 Bft) W-SW 257 0 min 0,000 mm 0,0 UV-I 0 W/m 7,0 C 7,9 C 12,9 km/h (3 Bft) 100,00 %
27.10.2016 19:34 9,2 C 86 % 1033,6 hPa 0,0 l/m 9,4 km/h (2 Bft) W 265 0 min 0,000 mm 0,0 UV-I 0 W/m 7,0 C 7,1 C 14,5 km/h (3 Bft) 98,44 %
27.10.2016 19:36 9,2 C 86 % 1033,6 hPa 0,0 l/m 9,7 km/h (2 Bft) W-SW 252 0 min 0,000 mm 0,0 UV-I 0 W/m 7,0 C 6,9 C 14,5 km/h (3 Bft) 100,00 %
27.10.2016 19:38 9,2 C 86 % 1033,7 hPa 0,0 l/m 9,4 km/h (2 Bft) W 261 0 min 0,000 mm 0,0 UV-I 0 W/m 7,0 C 7,1 C 14,5 km/h (3 Bft) 96,97 %
27.10.2016 19:40 9,2 C 86 % 1033,7 hPa 0,0 l/m 9,0 km/h (2 Bft) W-SW 252 0 min 0,000 mm 0,0 UV-I 0 W/m 7,0 C 7,3 C 12,9 km/h (3 Bft) 97,01 %
27.10.2016 19:42 9,2 C 86 % 1033,7 hPa 0,0 l/m 7,9 km/h (2 Bft) W-SW 244 0 min 0,000 mm 0,0 UV-I 0 W/m 7,0 C 8,1 C 11,3 km/h (2 Bft) 100,00 %
27.10.2016 19:44 9,2 C 86 % 1033,7 hPa 0,0 l/m 7,2 km/h (2 Bft) W-SW 252 0 min 0,000 mm 0,0 UV-I 0 W/m 7,0 C 8,6 C 11,3 km/h (2 Bft) 98,51 %
27.10.2016 19:46 9,1 C 86 % 1033,7 hPa 0,0 l/m 7,3 km/h (2 Bft) W-SW 244 0 min 0,000 mm 0,0 UV-I 0 W/m 6,9 C 8,4 C 9,7 km/h (2 Bft) 97,78 %
27.10.2016 19:48 9,1 C 86 % 1033,7 hPa 0,0 l/m 6,8 km/h (2 Bft) W 261 0 min 0,000 mm 0,0 UV-I 0 W/m 6,9 C 8,8 C 11,3 km/h (2 Bft) 100,00 %
27.10.2016 19:50 9,1 C 86 % 1033,8 hPa 0,0 l/m 5,2 km/h (1 Bft) W 261 0 min 0,000 mm 0,0 UV-I 0 W/m 6,9 C 9,1 C 11,3 km/h (2 Bft) 97,92 %
27.10.2016 19:52 9,1 C 87 % 1033,8 hPa 0,0 l/m 2,9 km/h (1 Bft) W 275 0 min 0,000 mm 0,0 UV-I 0 W/m 7,1 C 9,1 C 4,8 km/h (1 Bft) 97,37 %
27.10.2016 19:54 9,1 C 87 % 1033,8 hPa 0,0 l/m 2,8 km/h (1 Bft) W 275 0 min 0,000 mm 0,0 UV-I 0 W/m 7,1 C 9,1 C 4,8 km/h (1 Bft) 98,21 %
27.10.2016 19:56 9,0 C 87 % 1033,8 hPa 0,0 l/m 4,0 km/h (1 Bft) W 261 0 min 0,000 mm 0,0 UV-I 0 W/m 7,0 C 9,0 C 6,4 km/h (2 Bft) 97,56 %
27.10.2016 19:58 9,0 C 87 % 1033,7 hPa 0,0 l/m 6,2 km/h (2 Bft) W-SW 252 0 min 0,000 mm 0,0 UV-I 0 W/m 7,0 C 9,0 C 9,7 km/h (2 Bft) 94,00 %
27.10.2016 20:00 9,0 C 87 % 1033,7 hPa 0,0 l/m 5,9 km/h (2 Bft) W-SW 248 0 min 0,000 mm 0,0 UV-I 0 W/m 7,0 C 9,0 C 8,0 km/h (2 Bft) 95,12 %
27.10.2016 20:02 8,9 C 87 % 1033,7 hPa 0,0 l/m 8,0 km/h (2 Bft) W 261 0 min 0,000 mm 0,0 UV-I 0 W/m 6,9 C 7,7 C 12,9 km/h (3 Bft) 98,11 %
27.10.2016 20:04 8,9 C 87 % 1033,7 hPa 0,0 l/m 9,0 km/h (2 Bft) W-SW 247 0 min 0,000 mm 0,0 UV-I 0 W/m 6,9 C 7,0 C 12,9 km/h (3 Bft) 97,37 %
27.10.2016 20:06 9,0 C 87 % 1033,7 hPa 0,0 l/m 7,8 km/h (2 Bft) W-SW 255 0 min 0,000 mm 0,0 UV-I 0 W/m 7,0 C 7,9 C 11,3 km/h (2 Bft) 98,00 %
27.10.2016 20:08 9,0 C 87 % 1033,7 hPa 0,0 l/m 7,5 km/h (2 Bft) W-SW 253 0 min 0,000 mm 0,0 UV-I 0 W/m 7,0 C 8,2 C 12,9 km/h (3 Bft) 95,74 %
27.10.2016 20:10 8,9 C 87 % 1033,7 hPa 0,0 l/m 7,5 km/h (2 Bft) W-SW 244 0 min 0,000 mm 0,0 UV-I 0 W/m 6,9 C 8,1 C 11,3 km/h (2 Bft) 97,73 %
27.10.2016 20:12 8,9 C 87 % 1033,7 hPa 0,0 l/m 6,5 km/h (2 Bft) SW 231 0 min 0,000 mm 0,0 UV-I 0 W/m 6,9 C 8,9 C 9,7 km/h (2 Bft) 98,11 %
27.10.2016 20:14 8,9 C 87 % 1033,7 hPa 0,0 l/m 6,7 km/h (2 Bft) W-SW 243 0 min 0,000 mm 0,0 UV-I 0 W/m 6,9 C 8,7 C 9,7 km/h (2 Bft) 97,73 %
27.10.2016 20:16 8,9 C 87 % 1033,6 hPa 0,0 l/m 6,9 km/h (2 Bft) W-SW 254 0 min 0,000 mm 0,0 UV-I 0 W/m 6,9 C 8,5 C 12,9 km/h (3 Bft) 96,00 %
27.10.2016 20:18 9,0 C 87 % 1033,6 hPa 0,0 l/m 7,6 km/h (2 Bft) S-SW 203 0 min 0,000 mm 0,0 UV-I 0 W/m 7,0 C 8,1 C 12,9 km/h (3 Bft) 98,00 %
27.10.2016 20:20 9,0 C 87 % 1033,6 hPa 0,0 l/m 6,8 km/h (2 Bft) W 271 0 min 0,000 mm 0,0 UV-I 0 W/m 7,0 C 8,7 C 11,3 km/h (2 Bft) 97,87 %
27.10.2016 20:22 9,0 C 87 % 1033,7 hPa 0,0 l/m 7,1 km/h (2 Bft) W-SW 254 0 min 0,000 mm 0,0 UV-I 0 W/m 7,0 C 8,5 C 12,9 km/h (3 Bft) 95,12 %
27.10.2016 20:24 9,0 C 87 % 1033,7 hPa 0,0 l/m 7,4 km/h (2 Bft) W-SW 253 0 min 0,000 mm 0,0 UV-I 0 W/m 7,0 C 8,2 C 12,9 km/h (3 Bft) 98,11 %
27.10.2016 20:26 8,9 C 87 % 1033,7 hPa 0,0 l/m 5,7 km/h (1 Bft) W-SW 244 0 min 0,000 mm 0,0 UV-I 0 W/m 6,9 C 8,9 C 8,0 km/h (2 Bft) 97,62 %
27.10.2016 20:28 8,9 C 87 % 1033,7 hPa 0,0 l/m 5,8 km/h (2 Bft) W 259 0 min 0,000 mm 0,0 UV-I 0 W/m 6,9 C 8,9 C 8,0 km/h (2 Bft) 100,00 %
27.10.2016 20:30 8,9 C 87 % 1033,8 hPa 0,0 l/m 6,2 km/h (2 Bft) W-SW 245 0 min 0,000 mm 0,0 UV-I 0 W/m 6,9 C 8,9 C 9,7 km/h (2 Bft) 100,00 %
27.10.2016 20:32 8,9 C 87 % 1033,8 hPa 0,0 l/m 6,5 km/h (2 Bft) W-SW 245 0 min 0,000 mm 0,0 UV-I 0 W/m 6,9 C 8,9 C 11,3 km/h (2 Bft) 100,00 %
27.10.2016 20:34 8,9 C 87 % 1033,8 hPa 0,0 l/m 8,2 km/h (2 Bft) W-SW 252 0 min 0,000 mm 0,0 UV-I 0 W/m 6,9 C 7,6 C 12,9 km/h (3 Bft) 97,87 %
27.10.2016 20:36 8,9 C 87 % 1033,8 hPa 0,0 l/m 6,6 km/h (2 Bft) W 261 0 min 0,000 mm 0,0 UV-I 0 W/m 6,9 C 8,8 C 9,7 km/h (2 Bft) 97,37 %
27.10.2016 20:38 8,9 C 87 % 1033,9 hPa 0,0 l/m 7,4 km/h (2 Bft) W 267 0 min 0,000 mm 0,0 UV-I 0 W/m 6,9 C 8,1 C 11,3 km/h (2 Bft) 98,11 %
27.10.2016 20:40 8,9 C 87 % 1033,9 hPa 0,0 l/m 5,1 km/h (1 Bft) W-SW 254 0 min 0,000 mm 0,0 UV-I 0 W/m 6,9 C 8,9 C 6,4 km/h (2 Bft) 100,00 %
27.10.2016 20:42 8,9 C 87 % 1034,0 hPa 0,0 l/m 5,5 km/h (1 Bft) W-SW 253 0 min 0,000 mm 0,0 UV-I 0 W/m 6,9 C 8,9 C 8,0 km/h (2 Bft) 100,00 %
27.10.2016 20:44 8,9 C 87 % 1034,0 hPa 0,0 l/m 5,8 km/h (2 Bft) W-SW 250 0 min 0,000 mm 0,0 UV-I 0 W/m 6,9 C 8,9 C 8,0 km/h (2 Bft) 100,00 %
27.10.2016 20:46 8,9 C 87 % 1034,0 hPa 0,0 l/m 4,9 km/h (1 Bft) W-SW 250 0 min 0,000 mm 0,0 UV-I 0 W/m 6,9 C 8,9 C 6,4 km/h (2 Bft) 100,00 %
27.10.2016 20:48 8,9 C 87 % 1034,0 hPa 0,0 l/m 4,8 km/h (1 Bft) W 259 0 min 0,000 mm 0,0 UV-I 0 W/m 6,9 C 8,9 C 8,0 km/h (2 Bft) 100,00 %
27.10.2016 20:50 8,9 C 87 % 1034,1 hPa 0,0 l/m 4,9 km/h (1 Bft) W-SW 250 0 min 0,000 mm 0,0 UV-I 0 W/m 6,9 C 8,9 C 8,0 km/h (2 Bft) 100,00 %
27.10.2016 20:52 8,9 C 87 % 1034,0 hPa 0,0 l/m 5,9 km/h (2 Bft) W-SW 250 0 min 0,000 mm 0,0 UV-I 0 W/m 6,9 C 8,9 C 9,7 km/h (2 Bft) 100,00 %
27.10.2016 20:54 8,9 C 87 % 1034,1 hPa 0,0 l/m 4,9 km/h (1 Bft) W-NW 291 0 min 0,000 mm 0,0 UV-I 0 W/m 6,9 C 8,9 C 8,0 km/h (2 Bft) 100,00 %
27.10.2016 20:56 8,9 C 87 % 1034,0 hPa 0,0 l/m 4,3 km/h (1 Bft) W-SW 244 0 min 0,000 mm 0,0 UV-I 0 W/m 6,9 C 8,9 C 6,4 km/h (2 Bft) 100,00 %
27.10.2016 20:58 8,8 C 87 % 1034,0 hPa 0,0 l/m 5,7 km/h (1 Bft) W-SW 255 0 min 0,000 mm 0,0 UV-I 0 W/m 6,8 C 8,8 C 9,7 km/h (2 Bft) 100,00 %
27.10.2016 21:00 8,8 C 87 % 1034,1 hPa 0,0 l/m 4,3 km/h (1 Bft) W-SW 238 0 min 0,000 mm 0,0 UV-I 0 W/m 6,8 C 8,8 C 6,4 km/h (2 Bft) 98,00 %
27.10.2016 21:02 8,8 C 87 % 1034,1 hPa 0,0 l/m 3,6 km/h (1 Bft) W-SW 238 0 min 0,000 mm 0,0 UV-I 0 W/m 6,8 C 8,8 C 4,8 km/h (1 Bft) 100,00 %
27.10.2016 21:04 8,8 C 87 % 1034,1 hPa 0,0 l/m 2,8 km/h (1 Bft) W-SW 238 0 min 0,000 mm 0,0 UV-I 0 W/m 6,8 C 8,8 C 4,8 km/h (1 Bft) 100,00 %
27.10.2016 21:06 8,8 C 87 % 1034,1 hPa 0,0 l/m 3,3 km/h (1 Bft) W-SW 238 0 min 0,000 mm 0,0 UV-I 0 W/m 6,8 C 8,8 C 4,8 km/h (1 Bft) 100,00 %
27.10.2016 21:08 8,8 C 87 % 1034,1 hPa 0,0 l/m 3,3 km/h (1 Bft) W-SW 238 0 min 0,000 mm 0,0 UV-I 0 W/m 6,8 C 8,8 C 4,8 km/h (1 Bft) 98,21 %
27.10.2016 21:10 8,8 C 87 % 1034,1 hPa 0,0 l/m 4,3 km/h (1 Bft) W-SW 238 0 min 0,000 mm 0,0 UV-I 0 W/m 6,8 C 8,8 C 6,4 km/h (2 Bft) 100,00 %
27.10.2016 21:12 8,8 C 87 % 1034,1 hPa 0,0 l/m 3,6 km/h (1 Bft) W-SW 245 0 min 0,000 mm 0,0 UV-I 0 W/m 6,8 C 8,8 C 6,4 km/h (2 Bft) 100,00 %
27.10.2016 21:14 8,8 C 87 % 1034,0 hPa 0,0 l/m 4,7 km/h (1 Bft) W-SW 247 0 min 0,000 mm 0,0 UV-I 0 W/m 6,8 C 8,8 C 8,0 km/h (2 Bft) 97,14 %
27.10.2016 21:16 8,8 C 87 % 1034,1 hPa 0,0 l/m 7,0 km/h (2 Bft) W-SW 257 0 min 0,000 mm 0,0 UV-I 0 W/m 6,8 C 8,3 C 12,9 km/h (3 Bft) 100,00 %
27.10.2016 21:18 8,8 C 87 % 1034,0 hPa 0,0 l/m 5,8 km/h (2 Bft) SW 236 0 min 0,000 mm 0,0 UV-I 0 W/m 6,8 C 8,8 C 11,3 km/h (2 Bft) 98,00 %
27.10.2016 21:20 8,8 C 87 % 1034,0 hPa 0,0 l/m 4,9 km/h (1 Bft) SW 222 0 min 0,000 mm 0,0 UV-I 0 W/m 6,8 C 8,8 C 8,0 km/h (2 Bft) 100,00 %
27.10.2016 21:22 8,8 C 87 % 1034,0 hPa 0,0 l/m 5,2 km/h (1 Bft) W-SW 238 0 min 0,000 mm 0,0 UV-I 0 W/m 6,8 C 8,8 C 6,4 km/h (2 Bft) 98,46 %
27.10.2016 21:24 8,8 C 87 % 1034,0 hPa 0,0 l/m 7,4 km/h (2 Bft) W-SW 254 0 min 0,000 mm 0,0 UV-I 0 W/m 6,8 C 8,0 C 11,3 km/h (2 Bft) 100,00 %
27.10.2016 21:26 8,7 C 87 % 1034,1 hPa 0,0 l/m 5,2 km/h (1 Bft) W-SW 248 0 min 0,000 mm 0,0 UV-I 0 W/m 6,7 C 8,7 C 8,0 km/h (2 Bft) 100,00 %
27.10.2016 21:28 8,7 C 87 % 1034,0 hPa 0,0 l/m 6,1 km/h (2 Bft) W-SW 244 0 min 0,000 mm 0,0 UV-I 0 W/m 6,7 C 8,7 C 11,3 km/h (2 Bft) 100,00 %
27.10.2016 21:30 8,7 C 87 % 1034,1 hPa 0,0 l/m 6,4 km/h (2 Bft) W-SW 246 0 min 0,000 mm 0,0 UV-I 0 W/m 6,7 C 8,7 C 11,3 km/h (2 Bft) 100,00 %
27.10.2016 21:32 8,7 C 87 % 1034,1 hPa 0,0 l/m 6,6 km/h (2 Bft) W-SW 240 0 min 0,000 mm 0,0 UV-I 0 W/m 6,7 C 8,6 C 9,7 km/h (2 Bft) 100,00 %
27.10.2016 21:34 8,8 C 87 % 1034,1 hPa 0,0 l/m 6,3 km/h (2 Bft) W-SW 240 0 min 0,000 mm 0,0 UV-I 0 W/m 6,8 C 8,8 C 12,9 km/h (3 Bft) 98,00 %
27.10.2016 21:36 8,7 C 87 % 1034,1 hPa 0,0 l/m 7,2 km/h (2 Bft) W-SW 248 0 min 0,000 mm 0,0 UV-I 0 W/m 6,7 C 8,1 C 11,3 km/h (2 Bft) 100,00 %
27.10.2016 21:38 8,7 C 87 % 1034,1 hPa 0,0 l/m 7,0 km/h (2 Bft) W-SW 241 0 min 0,000 mm 0,0 UV-I 0 W/m 6,7 C 8,2 C 11,3 km/h (2 Bft) 98,21 %
27.10.2016 21:40 8,8 C 87 % 1034,0 hPa 0,0 l/m 5,1 km/h (1 Bft) W-SW 248 0 min 0,000 mm 0,0 UV-I 0 W/m 6,8 C 8,8 C 6,4 km/h (2 Bft) 100,00 %
27.10.2016 21:42 8,8 C 87 % 1034,0 hPa 0,0 l/m 5,2 km/h (1 Bft) W-SW 245 0 min 0,000 mm 0,0 UV-I 0 W/m 6,8 C 8,8 C 8,0 km/h (2 Bft) 100,00 %
27.10.2016 21:44 8,8 C 87 % 1034,1 hPa 0,0 l/m 7,7 km/h (2 Bft) W-SW 253 0 min 0,000 mm 0,0 UV-I 0 W/m 6,8 C 7,8 C 12,9 km/h (3 Bft) 100,00 %
27.10.2016 21:46 8,8 C 87 % 1034,1 hPa 0,0 l/m 5,2 km/h (1 Bft) W-SW 244 0 min 0,000 mm 0,0 UV-I 0 W/m 6,8 C 8,8 C 8,0 km/h (2 Bft) 100,00 %
27.10.2016 21:48 8,8 C 86 % 1034,1 hPa 0,0 l/m 7,7 km/h (2 Bft) W-SW 252 0 min 0,000 mm 0,0 UV-I 0 W/m 6,6 C 7,8 C 12,9 km/h (3 Bft) 100,00 %
27.10.2016 21:50 8,8 C 86 % 1034,1 hPa 0,0 l/m 7,3 km/h (2 Bft) W 265 0 min 0,000 mm 0,0 UV-I 0 W/m 6,6 C 8,1 C 11,3 km/h (2 Bft) 100,00 %
27.10.2016 21:52 8,8 C 86 % 1034,1 hPa 0,0 l/m 7,1 km/h (2 Bft) W-SW 243 0 min 0,000 mm 0,0 UV-I 0 W/m 6,6 C 8,3 C 12,9 km/h (3 Bft) 100,00 %
27.10.2016 21:54 8,8 C 86 % 1034,1 hPa 0,0 l/m 6,0 km/h (2 Bft) W-SW 246 0 min 0,000 mm 0,0 UV-I 0 W/m 6,6 C 8,8 C 8,0 km/h (2 Bft) 100,00 %
27.10.2016 21:56 8,8 C 86 % 1034,1 hPa 0,0 l/m 4,7 km/h (1 Bft) W-SW 244 0 min 0,000 mm 0,0 UV-I 0 W/m 6,6 C 8,8 C 6,4 km/h (2 Bft) 98,11 %
27.10.2016 21:58 8,7 C 87 % 1034,1 hPa 0,0 l/m 5,1 km/h (1 Bft) SW 230 0 min 0,000 mm 0,0 UV-I 0 W/m 6,7 C 8,7 C 6,4 km/h (2 Bft) 95,45 %
27.10.2016 22:00 8,7 C 87 % 1034,1 hPa 0,0 l/m 5,8 km/h (2 Bft) SW 231 0 min 0,000 mm 0,0 UV-I 0 W/m 6,7 C 8,7 C 8,0 km/h (2 Bft) 95,74 %
27.10.2016 22:02 8,7 C 87 % 1034,1 hPa 0,0 l/m 5,8 km/h (2 Bft) W-SW 256 0 min 0,000 mm 0,0 UV-I 0 W/m 6,7 C 8,7 C 8,0 km/h (2 Bft) 98,00 %
27.10.2016 22:04 8,7 C 87 % 1034,2 hPa 0,0 l/m 4,8 km/h (1 Bft) SW 227 0 min 0,000 mm 0,0 UV-I 0 W/m 6,7 C 8,7 C 8,0 km/h (2 Bft) 97,87 %
27.10.2016 22:06 8,7 C 87 % 1034,2 hPa 0,0 l/m 5,9 km/h (2 Bft) S-SW 211 0 min 0,000 mm 0,0 UV-I 0 W/m 6,7 C 8,7 C 8,0 km/h (2 Bft) 97,56 %
27.10.2016 22:09 8,7 C 87 % 1034,1 hPa 0,0 l/m 6,0 km/h (2 Bft) SW 227 0 min 0,000 mm 0,0 UV-I 0 W/m 6,7 C 8,7 C 9,7 km/h (2 Bft) 95,95 %
27.10.2016 22:10 8,7 C 87 % 1034,1 hPa 0,0 l/m 6,2 km/h (2 Bft) SW 221 0 min 0,000 mm 0,0 UV-I 0 W/m 6,7 C 8,7 C 8,0 km/h (2 Bft) 100,00 %
27.10.2016 22:12 8,7 C 87 % 1034,1 hPa 0,0 l/m 5,1 km/h (1 Bft) SW 236 0 min 0,000 mm 0,0 UV-I 0 W/m 6,7 C 8,7 C 11,3 km/h (2 Bft) 98,08 %
27.10.2016 22:14 8,7 C 87 % 1034,1 hPa 0,0 l/m 5,5 km/h (1 Bft) W-SW 241 0 min 0,000 mm 0,0 UV-I 0 W/m 6,7 C 8,7 C 8,0 km/h (2 Bft) 98,21 %
27.10.2016 22:16 8,7 C 87 % 1034,1 hPa 0,0 l/m 5,1 km/h (1 Bft) SW 231 0 min 0,000 mm 0,0 UV-I 0 W/m 6,7 C 8,7 C 8,0 km/h (2 Bft) 96,00 %
27.10.2016 22:18 8,7 C 87 % 1034,1 hPa 0,0 l/m 4,5 km/h (1 Bft) W-SW 242 0 min 0,000 mm 0,0 UV-I 0 W/m 6,7 C 8,7 C 6,4 km/h (2 Bft) 97,37 %
27.10.2016 22:20 8,7 C 87 % 1034,0 hPa 0,0 l/m 5,5 km/h (1 Bft) SW 233 0 min 0,000 mm 0,0 UV-I 0 W/m 6,7 C 8,7 C 8,0 km/h (2 Bft) 97,62 %
27.10.2016 22:22 8,7 C 87 % 1034,1 hPa 0,0 l/m 5,4 km/h (1 Bft) SW 232 0 min 0,000 mm 0,0 UV-I 0 W/m 6,7 C 8,7 C 8,0 km/h (2 Bft) 96,36 %
27.10.2016 22:24 8,7 C 87 % 1034,1 hPa 0,0 l/m 4,8 km/h (1 Bft) SW 223 0 min 0,000 mm 0,0 UV-I 0 W/m 6,7 C 8,7 C 8,0 km/h (2 Bft) 97,92 %
27.10.2016 22:26 8,7 C 87 % 1034,1 hPa 0,0 l/m 4,7 km/h (1 Bft) W-SW 242 0 min 0,000 mm 0,0 UV-I 0 W/m 6,7 C 8,7 C 9,7 km/h (2 Bft) 97,56 %
27.10.2016 22:28 8,7 C 87 % 1034,2 hPa 0,0 l/m 4,6 km/h (1 Bft) W-SW 244 0 min 0,000 mm 0,0 UV-I 0 W/m 6,7 C 8,7 C 6,4 km/h (2 Bft) 98,00 %
27.10.2016 22:30 8,7 C 87 % 1034,1 hPa 0,0 l/m 3,4 km/h (1 Bft) W-SW 244 0 min 0,000 mm 0,0 UV-I 0 W/m 6,7 C 8,7 C 6,4 km/h (2 Bft) 97,87 %
27.10.2016 22:33 8,7 C 87 % 1034,1 hPa 0,0 l/m 4,4 km/h (1 Bft) W-SW 254 0 min 0,000 mm 0,0 UV-I 0 W/m 6,7 C 8,7 C 6,4 km/h (2 Bft) 100,00 %
27.10.2016 22:34 8,7 C 87 % 1034,1 hPa 0,0 l/m 3,8 km/h (1 Bft) W-SW 238 0 min 0,000 mm 0,0 UV-I 0 W/m 6,7 C 8,7 C 4,8 km/h (1 Bft) 100,00 %
27.10.2016 22:36 8,7 C 87 % 1034,0 hPa 0,0 l/m 3,9 km/h (1 Bft) SW 234 0 min 0,000 mm 0,0 UV-I 0 W/m 6,7 C 8,7 C 6,4 km/h (2 Bft) 98,00 %
27.10.2016 22:38 8,6 C 87 % 1034,1 hPa 0,0 l/m 4,5 km/h (1 Bft) SW 233 0 min 0,000 mm 0,0 UV-I 0 W/m 6,6 C 8,6 C 6,4 km/h (2 Bft) 97,37 %
27.10.2016 22:40 8,6 C 88 % 1034,1 hPa 0,0 l/m 5,3 km/h (1 Bft) SW 223 0 min 0,000 mm 0,0 UV-I 0 W/m 6,7 C 8,6 C 8,0 km/h (2 Bft) 100,00 %
27.10.2016 22:43 8,5 C 89 % 1034,0 hPa 0,0 l/m 4,9 km/h (1 Bft) SW 224 0 min 0,000 mm 0,0 UV-I 0 W/m 6,8 C 8,5 C 6,4 km/h (2 Bft) 98,63 %
27.10.2016 22:44 8,5 C 89 % 1034,0 hPa 0,0 l/m 5,0 km/h (1 Bft) SW 236 0 min 0,000 mm 0,0 UV-I 0 W/m 6,8 C 8,5 C 6,4 km/h (2 Bft) 100,00 %
27.10.2016 22:46 8,4 C 89 % 1034,0 hPa 0,0 l/m 6,7 km/h (2 Bft) SW 234 0 min 0,000 mm 0,0 UV-I 0 W/m 6,7 C 8,2 C 9,7 km/h (2 Bft) 100,00 %
27.10.2016 22:48 8,4 C 89 % 1034,1 hPa 0,0 l/m 6,0 km/h (2 Bft) SW 227 0 min 0,000 mm 0,0 UV-I 0 W/m 6,7 C 8,4 C 9,7 km/h (2 Bft) 100,00 %
27.10.2016 22:50 8,4 C 90 % 1034,0 hPa 0,0 l/m 6,1 km/h (2 Bft) SW 225 0 min 0,000 mm 0,0 UV-I 0 W/m 6,9 C 8,4 C 9,7 km/h (2 Bft) 100,00 %
27.10.2016 22:53 8,3 C 90 % 1034,0 hPa 0,0 l/m 4,5 km/h (1 Bft) SW 225 0 min 0,000 mm 0,0 UV-I 0 W/m 6,8 C 8,3 C 6,4 km/h (2 Bft) 98,75 %
27.10.2016 22:54 8,3 C 90 % 1034,0 hPa 0,0 l/m 5,6 km/h (1 Bft) SW 221 0 min 0,000 mm 0,0 UV-I 0 W/m 6,8 C 8,3 C 6,4 km/h (2 Bft) 90,91 %
27.10.2016 22:56 8,3 C 90 % 1034,0 hPa 0,0 l/m 4,5 km/h (1 Bft) SW 223 0 min 0,000 mm 0,0 UV-I 0 W/m 6,8 C 8,3 C 6,4 km/h (2 Bft) 100,00 %
27.10.2016 22:58 8,3 C 91 % 1034,0 hPa 0,0 l/m 4,1 km/h (1 Bft) SW 227 0 min 0,000 mm 0,0 UV-I 0 W/m 6,9 C 8,3 C 6,4 km/h (2 Bft) 100,00 %
27.10.2016 23:00 8,3 C 91 % 1034,1 hPa 0,0 l/m 3,7 km/h (1 Bft) SW 227 0 min 0,000 mm 0,0 UV-I 0 W/m 6,9 C 8,3 C 6,4 km/h (2 Bft) 95,74 %
27.10.2016 23:02 8,3 C 91 % 1034,1 hPa 0,0 l/m 4,0 km/h (1 Bft) SW 219 0 min 0,000 mm 0,0 UV-I 0 W/m 6,9 C 8,3 C 6,4 km/h (2 Bft) 97,44 %
27.10.2016 23:04 8,3 C 91 % 1034,1 hPa 0,0 l/m 3,7 km/h (1 Bft) S-SW 205 0 min 0,000 mm 0,0 UV-I 0 W/m 6,9 C 8,3 C 4,8 km/h (1 Bft) 100,00 %
27.10.2016 23:06 8,3 C 91 % 1034,1 hPa 0,0 l/m 3,6 km/h (1 Bft) SW 226 0 min 0,000 mm 0,0 UV-I 0 W/m 6,9 C 8,3 C 4,8 km/h (1 Bft) 100,00 %
27.10.2016 23:08 8,4 C 91 % 1034,0 hPa 0,0 l/m 3,3 km/h (1 Bft) SW 226 0 min 0,000 mm 0,0 UV-I 0 W/m 7,0 C 8,4 C 4,8 km/h (1 Bft) 97,37 %
27.10.2016 23:10 8,4 C 91 % 1034,0 hPa 0,0 l/m 2,9 km/h (1 Bft) SW 226 0 min 0,000 mm 0,0 UV-I 0 W/m 7,0 C 8,4 C 4,8 km/h (1 Bft) 100,00 %
27.10.2016 23:12 8,4 C 91 % 1034,0 hPa 0,0 l/m 2,6 km/h (1 Bft) SW 226 0 min 0,000 mm 0,0 UV-I 0 W/m 7,0 C 8,4 C 4,8 km/h (1 Bft) 100,00 %
27.10.2016 23:14 8,4 C 91 % 1034,0 hPa 0,0 l/m 2,3 km/h (1 Bft) SW 226 0 min 0,000 mm 0,0 UV-I 0 W/m 7,0 C 8,4 C 3,2 km/h (1 Bft) 100,00 %
27.10.2016 23:16 8,3 C 91 % 1034,0 hPa 0,0 l/m 3,0 km/h (1 Bft) SW 226 0 min 0,000 mm 0,0 UV-I 0 W/m 6,9 C 8,3 C 4,8 km/h (1 Bft) 100,00 %
27.10.2016 23:18 8,3 C 91 % 1034,0 hPa 0,0 l/m 3,1 km/h (1 Bft) SW 226 0 min 0,000 mm 0,0 UV-I 0 W/m 6,9 C 8,3 C 3,2 km/h (1 Bft) 97,87 %
27.10.2016 23:20 8,4 C 91 % 1034,0 hPa 0,0 l/m 2,0 km/h (1 Bft) SW 226 0 min 0,000 mm 0,0 UV-I 0 W/m 7,0 C 8,4 C 3,2 km/h (1 Bft) 100,00 %
27.10.2016 23:23 8,3 C 91 % 1033,9 hPa 0,0 l/m 1,6 km/h (1 Bft) SW 226 0 min 0,000 mm 0,0 UV-I 0 W/m 6,9 C 8,3 C 3,2 km/h (1 Bft) 98,46 %
27.10.2016 23:24 8,3 C 91 % 1033,9 hPa 0,0 l/m 2,0 km/h (1 Bft) SW 226 0 min 0,000 mm 0,0 UV-I 0 W/m 6,9 C 8,3 C 3,2 km/h (1 Bft) 100,00 %
27.10.2016 23:26 8,3 C 91 % 1033,9 hPa 0,0 l/m 0,0 km/h (0 Bft) SW 226 0 min 0,000 mm 0,0 UV-I 0 W/m 6,9 C 8,3 C 0,0 km/h (0 Bft) 96,00 %
27.10.2016 23:28 8,3 C 91 % 1033,9 hPa 0,0 l/m 0,3 km/h (0 Bft) SW 226 0 min 0,000 mm 0,0 UV-I 0 W/m 6,9 C 8,3 C 1,6 km/h (1 Bft) 100,00 %
27.10.2016 23:30 8,3 C 91 % 1033,9 hPa 0,0 l/m 0,8 km/h (0 Bft) SW 226 0 min 0,000 mm 0,0 UV-I 0 W/m 6,9 C 8,3 C 1,6 km/h (1 Bft) 100,00 %
27.10.2016 23:32 8,3 C 91 % 1033,9 hPa 0,0 l/m 1,3 km/h (1 Bft) SW 226 0 min 0,000 mm 0,0 UV-I 0 W/m 6,9 C 8,3 C 3,2 km/h (1 Bft) 95,74 %
27.10.2016 23:34 8,3 C 91 % 1033,9 hPa 0,0 l/m 0,8 km/h (0 Bft) SW 226 0 min 0,000 mm 0,0 UV-I 0 W/m 6,9 C 8,3 C 1,6 km/h (1 Bft) 100,00 %
27.10.2016 23:36 8,3 C 91 % 1033,8 hPa 0,0 l/m 0,4 km/h (0 Bft) SW 226 0 min 0,000 mm 0,0 UV-I 0 W/m 6,9 C 8,3 C 1,6 km/h (1 Bft) 100,00 %
27.10.2016 23:38 8,2 C 91 % 1033,8 hPa 0,0 l/m 1,5 km/h (1 Bft) SW 226 0 min 0,000 mm 0,0 UV-I 0 W/m 6,8 C 8,2 C 3,2 km/h (1 Bft) 100,00 %
27.10.2016 23:40 8,2 C 91 % 1033,9 hPa 0,0 l/m 1,1 km/h (1 Bft) SW 226 0 min 0,000 mm 0,0 UV-I 0 W/m 6,8 C 8,2 C 1,6 km/h (1 Bft) 97,44 %
27.10.2016 23:43 8,2 C 92 % 1033,8 hPa 0,0 l/m 1,1 km/h (1 Bft) SW 226 0 min 0,000 mm 0,0 UV-I 0 W/m 7,0 C 8,2 C 1,6 km/h (1 Bft) 100,00 %
27.10.2016 23:44 8,2 C 92 % 1033,8 hPa 0,0 l/m 1,0 km/h (0 Bft) SW 226 0 min 0,000 mm 0,0 UV-I 0 W/m 7,0 C 8,2 C 3,2 km/h (1 Bft) 100,00 %
27.10.2016 23:46 8,2 C 92 % 1033,9 hPa 0,0 l/m 0,4 km/h (0 Bft) SW 226 0 min 0,000 mm 0,0 UV-I 0 W/m 7,0 C 8,2 C 1,6 km/h (1 Bft) 100,00 %
27.10.2016 23:48 8,2 C 92 % 1033,8 hPa 0,0 l/m 0,2 km/h (0 Bft) SW 226 0 min 0,000 mm 0,0 UV-I 0 W/m 7,0 C 8,2 C 1,6 km/h (1 Bft) 100,00 %
27.10.2016 23:50 8,2 C 92 % 1033,9 hPa 0,0 l/m 0,8 km/h (0 Bft) SW 226 0 min 0,000 mm 0,0 UV-I 0 W/m 7,0 C 8,2 C 3,2 km/h (1 Bft) 100,00 %
27.10.2016 23:52 8,2 C 92 % 1033,9 hPa 0,0 l/m 1,3 km/h (1 Bft) SW 226 0 min 0,000 mm 0,0 UV-I 0 W/m 7,0 C 8,2 C 3,2 km/h (1 Bft) 100,00 %
27.10.2016 23:54 8,2 C 92 % 1033,8 hPa 0,0 l/m 2,1 km/h (1 Bft) SW 226 0 min 0,000 mm 0,0 UV-I 0 W/m 7,0 C 8,2 C 3,2 km/h (1 Bft) 100,00 %
27.10.2016 23:56 8,2 C 92 % 1033,9 hPa 0,0 l/m 2,9 km/h (1 Bft) SW 226 0 min 0,000 mm 0,0 UV-I 0 W/m 7,0 C 8,2 C 4,8 km/h (1 Bft) 100,00 %
27.10.2016 23:58 8,3 C 92 % 1033,9 hPa 0,0 l/m 3,3 km/h (1 Bft) SW 226 0 min 0,000 mm 0,0 UV-I 0 W/m 7,1 C 8,3 C 4,8 km/h (1 Bft) 98,00 %
_ Min-Zeit 23:28 14:12 00:42 - 01:26 - - - - - - 22:38 12:16 01:26 04:38
Minimum _ 8,2 C 80 % 1027,7 hPa - 0,0 km/h (0 Bft) - - - - - - 6,6 C 4,3 C 0,0 km/h (0 Bft) 83,33 %
_ Max-Zeit 14:11 00:00 22:04 00:00 13:50 - - 15:54 14:01 13:58 14:06 02:15 16:22 12:16 00:00
Maximum _ 10,9 C 96 % 1034,2 hPa 0,0 l/m 16,4 km/h
W-SW (3 Bft)
- - 2 min 0,077 mm 0,9 UV-I 307 W/m 8,9 C 10,7 C 27,4 km/h
W-SW (4 Bft)
100,00 %
Durchschnitt _ 9,4 C 90 % 1031,2 hPa #0,0 l/m 6,7 km/h (2 Bft) W-SW - #1:07 h #0,457 mm 0,6 UV-I 79 W/m 7,8 C 8,7 C 10,2 km/h (2 Bft) 98,70 %